<?xml version="1.0" encoding="UTF-8" standalone="no" ?>
<gpx xmlns="http://www.topografix.com/GPX/1/1" xmlns:xsi="http://www.w3.org/2001/XMLSchema-instance" xsi:schemaLocation="http://www.topografix.com/GPX/1/1 http://www.topografix.com/GPX/1/1/gpx.xsd" version="1.1" creator="VisuGPX - https://www.visugpx.com">
  <metadata>
    <name>Pipay</name>
    <desc><![CDATA[
]]></desc>
  </metadata>
  <trk>
    <name><![CDATA[Pipay_1]]></name>
    <extensions>
      <line xmlns="http://www.topografix.com/GPX/gpx_style/0/2">
        <color>0000FF</color>
        <width>4</width>
      </line>
    </extensions>
    <trkseg>
      <trkpt lat="45.26442" lon="6.01528">
        <ele>1565.4549560547</ele>
        <time>2017-11-10T07:36:46Z</time>
      </trkpt>
      <trkpt lat="45.26447" lon="6.01529">
        <ele>1561.4549560547</ele>
        <time>2017-11-10T07:38:37Z</time>
      </trkpt>
      <trkpt lat="45.26448" lon="6.01536">
        <ele>1561.4549560547</ele>
        <time>2017-11-10T07:39:16Z</time>
      </trkpt>
      <trkpt lat="45.26448" lon="6.01543">
        <ele>1562.4549560547</ele>
        <time>2017-11-10T07:39:20Z</time>
      </trkpt>
      <trkpt lat="45.26448" lon="6.01551">
        <ele>1564.4549560547</ele>
        <time>2017-11-10T07:39:27Z</time>
      </trkpt>
      <trkpt lat="45.26451" lon="6.01557">
        <ele>1565.4549560547</ele>
        <time>2017-11-10T07:39:32Z</time>
      </trkpt>
      <trkpt lat="45.26454" lon="6.01563">
        <ele>1564.4549560547</ele>
        <time>2017-11-10T07:39:37Z</time>
      </trkpt>
      <trkpt lat="45.26459" lon="6.01567">
        <ele>1564.4549560547</ele>
        <time>2017-11-10T07:39:41Z</time>
      </trkpt>
      <trkpt lat="45.26461" lon="6.01574">
        <ele>1563.4549560547</ele>
        <time>2017-11-10T07:39:46Z</time>
      </trkpt>
      <trkpt lat="45.26461" lon="6.01581">
        <ele>1565.4549560547</ele>
        <time>2017-11-10T07:39:51Z</time>
      </trkpt>
      <trkpt lat="45.26456" lon="6.01585">
        <ele>1564.4549560547</ele>
        <time>2017-11-10T07:39:54Z</time>
      </trkpt>
      <trkpt lat="45.26454" lon="6.01591">
        <ele>1567.4549560547</ele>
        <time>2017-11-10T07:39:58Z</time>
      </trkpt>
      <trkpt lat="45.2645" lon="6.01597">
        <ele>1565.4549560547</ele>
        <time>2017-11-10T07:40:02Z</time>
      </trkpt>
      <trkpt lat="45.26446" lon="6.01601">
        <ele>1565.4549560547</ele>
        <time>2017-11-10T07:40:06Z</time>
      </trkpt>
      <trkpt lat="45.26442" lon="6.01605">
        <ele>1564.4549560547</ele>
        <time>2017-11-10T07:40:09Z</time>
      </trkpt>
      <trkpt lat="45.26437" lon="6.0161">
        <ele>1566.4549560547</ele>
        <time>2017-11-10T07:40:12Z</time>
      </trkpt>
      <trkpt lat="45.26433" lon="6.01613">
        <ele>1565.4549560547</ele>
        <time>2017-11-10T07:40:16Z</time>
      </trkpt>
      <trkpt lat="45.2643" lon="6.01618">
        <ele>1565.4549560547</ele>
        <time>2017-11-10T07:40:19Z</time>
      </trkpt>
      <trkpt lat="45.26425" lon="6.01621">
        <ele>1563.4549560547</ele>
        <time>2017-11-10T07:40:22Z</time>
      </trkpt>
      <trkpt lat="45.2642" lon="6.01624">
        <ele>1561.4549560547</ele>
        <time>2017-11-10T07:40:26Z</time>
      </trkpt>
      <trkpt lat="45.26415" lon="6.01629">
        <ele>1562.4549560547</ele>
        <time>2017-11-10T07:40:31Z</time>
      </trkpt>
      <trkpt lat="45.26411" lon="6.01634">
        <ele>1563.4549560547</ele>
        <time>2017-11-10T07:40:34Z</time>
      </trkpt>
      <trkpt lat="45.26408" lon="6.0164">
        <ele>1565.4549560547</ele>
        <time>2017-11-10T07:40:38Z</time>
      </trkpt>
      <trkpt lat="45.26405" lon="6.01645">
        <ele>1565.4549560547</ele>
        <time>2017-11-10T07:40:43Z</time>
      </trkpt>
      <trkpt lat="45.26402" lon="6.01651">
        <ele>1565.4549560547</ele>
        <time>2017-11-10T07:40:46Z</time>
      </trkpt>
      <trkpt lat="45.26398" lon="6.01656">
        <ele>1568.4549560547</ele>
        <time>2017-11-10T07:40:51Z</time>
      </trkpt>
      <trkpt lat="45.26395" lon="6.01661">
        <ele>1568.4549560547</ele>
        <time>2017-11-10T07:40:57Z</time>
      </trkpt>
      <trkpt lat="45.26391" lon="6.01667">
        <ele>1569.4549560547</ele>
        <time>2017-11-10T07:41:00Z</time>
      </trkpt>
      <trkpt lat="45.26387" lon="6.01671">
        <ele>1570.4549560547</ele>
        <time>2017-11-10T07:41:03Z</time>
      </trkpt>
      <trkpt lat="45.26385" lon="6.01677">
        <ele>1569.4549560547</ele>
        <time>2017-11-10T07:41:06Z</time>
      </trkpt>
      <trkpt lat="45.26383" lon="6.01683">
        <ele>1569.4549560547</ele>
        <time>2017-11-10T07:41:10Z</time>
      </trkpt>
      <trkpt lat="45.26379" lon="6.01688">
        <ele>1569.4549560547</ele>
        <time>2017-11-10T07:41:14Z</time>
      </trkpt>
      <trkpt lat="45.26378" lon="6.01695">
        <ele>1568.4549560547</ele>
        <time>2017-11-10T07:41:20Z</time>
      </trkpt>
      <trkpt lat="45.26382" lon="6.01701">
        <ele>1570.4549560547</ele>
        <time>2017-11-10T07:41:24Z</time>
      </trkpt>
      <trkpt lat="45.2638" lon="6.01709">
        <ele>1575.4549560547</ele>
        <time>2017-11-10T07:41:29Z</time>
      </trkpt>
      <trkpt lat="45.26379" lon="6.01716">
        <ele>1575.4549560547</ele>
        <time>2017-11-10T07:41:33Z</time>
      </trkpt>
      <trkpt lat="45.26379" lon="6.01722">
        <ele>1577.4549560547</ele>
        <time>2017-11-10T07:41:39Z</time>
      </trkpt>
      <trkpt lat="45.26379" lon="6.01729">
        <ele>1579.4549560547</ele>
        <time>2017-11-10T07:41:44Z</time>
      </trkpt>
      <trkpt lat="45.26379" lon="6.01736">
        <ele>1581.4549560547</ele>
        <time>2017-11-10T07:41:48Z</time>
      </trkpt>
      <trkpt lat="45.26376" lon="6.01743">
        <ele>1582.4549560547</ele>
        <time>2017-11-10T07:41:52Z</time>
      </trkpt>
      <trkpt lat="45.26374" lon="6.0175">
        <ele>1582.4549560547</ele>
        <time>2017-11-10T07:41:57Z</time>
      </trkpt>
      <trkpt lat="45.26376" lon="6.01756">
        <ele>1585.4549560547</ele>
        <time>2017-11-10T07:42:02Z</time>
      </trkpt>
      <trkpt lat="45.26377" lon="6.01765">
        <ele>1586.4549560547</ele>
        <time>2017-11-10T07:42:08Z</time>
      </trkpt>
      <trkpt lat="45.26378" lon="6.01772">
        <ele>1587.4549560547</ele>
        <time>2017-11-10T07:42:17Z</time>
      </trkpt>
      <trkpt lat="45.26379" lon="6.0178">
        <ele>1589.4549560547</ele>
        <time>2017-11-10T07:42:24Z</time>
      </trkpt>
      <trkpt lat="45.26378" lon="6.01787">
        <ele>1592.4549560547</ele>
        <time>2017-11-10T07:42:29Z</time>
      </trkpt>
      <trkpt lat="45.26379" lon="6.01794">
        <ele>1593.4549560547</ele>
        <time>2017-11-10T07:42:36Z</time>
      </trkpt>
      <trkpt lat="45.26377" lon="6.01802">
        <ele>1595.4549560547</ele>
        <time>2017-11-10T07:42:40Z</time>
      </trkpt>
      <trkpt lat="45.26377" lon="6.01809">
        <ele>1594.4549560547</ele>
        <time>2017-11-10T07:42:44Z</time>
      </trkpt>
      <trkpt lat="45.26376" lon="6.01816">
        <ele>1596.4549560547</ele>
        <time>2017-11-10T07:42:48Z</time>
      </trkpt>
      <trkpt lat="45.26375" lon="6.01823">
        <ele>1599.4549560547</ele>
        <time>2017-11-10T07:42:53Z</time>
      </trkpt>
      <trkpt lat="45.26372" lon="6.01827">
        <ele>1598.4549560547</ele>
        <time>2017-11-10T07:42:58Z</time>
      </trkpt>
      <trkpt lat="45.26371" lon="6.01834">
        <ele>1599.4549560547</ele>
        <time>2017-11-10T07:43:03Z</time>
      </trkpt>
      <trkpt lat="45.26367" lon="6.01839">
        <ele>1601.4549560547</ele>
        <time>2017-11-10T07:43:08Z</time>
      </trkpt>
      <trkpt lat="45.26364" lon="6.01845">
        <ele>1601.4549560547</ele>
        <time>2017-11-10T07:43:14Z</time>
      </trkpt>
      <trkpt lat="45.2636" lon="6.01851">
        <ele>1602.4549560547</ele>
        <time>2017-11-10T07:43:19Z</time>
      </trkpt>
      <trkpt lat="45.26356" lon="6.01854">
        <ele>1601.4549560547</ele>
        <time>2017-11-10T07:43:23Z</time>
      </trkpt>
      <trkpt lat="45.26351" lon="6.01857">
        <ele>1602.4549560547</ele>
        <time>2017-11-10T07:43:28Z</time>
      </trkpt>
      <trkpt lat="45.26348" lon="6.01862">
        <ele>1601.4549560547</ele>
        <time>2017-11-10T07:43:37Z</time>
      </trkpt>
      <trkpt lat="45.26344" lon="6.01861">
        <ele>1603.4549560547</ele>
        <time>2017-11-10T07:43:44Z</time>
      </trkpt>
      <trkpt lat="45.2634" lon="6.01865">
        <ele>1604.4549560547</ele>
        <time>2017-11-10T07:43:50Z</time>
      </trkpt>
      <trkpt lat="45.26334" lon="6.01865">
        <ele>1600.4549560547</ele>
        <time>2017-11-10T07:43:55Z</time>
      </trkpt>
      <trkpt lat="45.26331" lon="6.0187">
        <ele>1600.4549560547</ele>
        <time>2017-11-10T07:44:00Z</time>
      </trkpt>
      <trkpt lat="45.26329" lon="6.01876">
        <ele>1608.4549560547</ele>
        <time>2017-11-10T07:44:09Z</time>
      </trkpt>
      <trkpt lat="45.26326" lon="6.01882">
        <ele>1611.4549560547</ele>
        <time>2017-11-10T07:44:16Z</time>
      </trkpt>
      <trkpt lat="45.26322" lon="6.01884">
        <ele>1614.4549560547</ele>
        <time>2017-11-10T07:44:21Z</time>
      </trkpt>
      <trkpt lat="45.26317" lon="6.01885">
        <ele>1614.4549560547</ele>
        <time>2017-11-10T07:44:27Z</time>
      </trkpt>
      <trkpt lat="45.26312" lon="6.01886">
        <ele>1615.4549560547</ele>
        <time>2017-11-10T07:44:32Z</time>
      </trkpt>
      <trkpt lat="45.26308" lon="6.01891">
        <ele>1620.4549560547</ele>
        <time>2017-11-10T07:44:41Z</time>
      </trkpt>
      <trkpt lat="45.26305" lon="6.01896">
        <ele>1622.4549560547</ele>
        <time>2017-11-10T07:44:48Z</time>
      </trkpt>
      <trkpt lat="45.26302" lon="6.019">
        <ele>1623.4549560547</ele>
        <time>2017-11-10T07:44:54Z</time>
      </trkpt>
      <trkpt lat="45.26298" lon="6.01906">
        <ele>1623.4549560547</ele>
        <time>2017-11-10T07:45:00Z</time>
      </trkpt>
      <trkpt lat="45.26295" lon="6.01911">
        <ele>1625.4549560547</ele>
        <time>2017-11-10T07:45:06Z</time>
      </trkpt>
      <trkpt lat="45.26291" lon="6.01918">
        <ele>1624.4549560547</ele>
        <time>2017-11-10T07:45:13Z</time>
      </trkpt>
      <trkpt lat="45.26286" lon="6.01922">
        <ele>1622.4549560547</ele>
        <time>2017-11-10T07:45:22Z</time>
      </trkpt>
      <trkpt lat="45.26282" lon="6.01926">
        <ele>1627.4549560547</ele>
        <time>2017-11-10T07:45:30Z</time>
      </trkpt>
      <trkpt lat="45.2628" lon="6.01933">
        <ele>1625.4549560547</ele>
        <time>2017-11-10T07:45:36Z</time>
      </trkpt>
      <trkpt lat="45.26275" lon="6.01938">
        <ele>1626.4549560547</ele>
        <time>2017-11-10T07:45:44Z</time>
      </trkpt>
      <trkpt lat="45.26271" lon="6.0194">
        <ele>1629.4549560547</ele>
        <time>2017-11-10T07:45:49Z</time>
      </trkpt>
      <trkpt lat="45.26266" lon="6.01943">
        <ele>1631.4549560547</ele>
        <time>2017-11-10T07:45:55Z</time>
      </trkpt>
      <trkpt lat="45.26262" lon="6.01947">
        <ele>1631.4549560547</ele>
        <time>2017-11-10T07:46:00Z</time>
      </trkpt>
      <trkpt lat="45.26259" lon="6.01953">
        <ele>1634.4549560547</ele>
        <time>2017-11-10T07:46:10Z</time>
      </trkpt>
      <trkpt lat="45.26254" lon="6.01956">
        <ele>1636.4549560547</ele>
        <time>2017-11-10T07:46:17Z</time>
      </trkpt>
      <trkpt lat="45.2625" lon="6.01956">
        <ele>1639.4549560547</ele>
        <time>2017-11-10T07:46:26Z</time>
      </trkpt>
      <trkpt lat="45.26245" lon="6.01955">
        <ele>1645.4549560547</ele>
        <time>2017-11-10T07:46:37Z</time>
      </trkpt>
      <trkpt lat="45.26242" lon="6.0195">
        <ele>1646.4549560547</ele>
        <time>2017-11-10T07:46:42Z</time>
      </trkpt>
      <trkpt lat="45.26237" lon="6.01947">
        <ele>1647.4549560547</ele>
        <time>2017-11-10T07:46:50Z</time>
      </trkpt>
      <trkpt lat="45.2623" lon="6.01943">
        <ele>1649.4549560547</ele>
        <time>2017-11-10T07:47:01Z</time>
      </trkpt>
      <trkpt lat="45.26225" lon="6.01942">
        <ele>1650.4549560547</ele>
        <time>2017-11-10T07:47:07Z</time>
      </trkpt>
      <trkpt lat="45.26219" lon="6.01946">
        <ele>1651.4549560547</ele>
        <time>2017-11-10T07:47:13Z</time>
      </trkpt>
      <trkpt lat="45.26215" lon="6.01951">
        <ele>1653.4549560547</ele>
        <time>2017-11-10T07:47:19Z</time>
      </trkpt>
      <trkpt lat="45.2621" lon="6.01953">
        <ele>1654.4549560547</ele>
        <time>2017-11-10T07:47:24Z</time>
      </trkpt>
      <trkpt lat="45.26205" lon="6.01954">
        <ele>1656.4549560547</ele>
        <time>2017-11-10T07:47:30Z</time>
      </trkpt>
      <trkpt lat="45.26202" lon="6.01959">
        <ele>1658.4549560547</ele>
        <time>2017-11-10T07:47:37Z</time>
      </trkpt>
      <trkpt lat="45.26199" lon="6.01966">
        <ele>1658.4549560547</ele>
        <time>2017-11-10T07:47:43Z</time>
      </trkpt>
      <trkpt lat="45.26197" lon="6.01973">
        <ele>1662.4549560547</ele>
        <time>2017-11-10T07:49:08Z</time>
      </trkpt>
      <trkpt lat="45.26194" lon="6.01978">
        <ele>1663.4549560547</ele>
        <time>2017-11-10T07:49:14Z</time>
      </trkpt>
      <trkpt lat="45.26191" lon="6.01984">
        <ele>1662.4549560547</ele>
        <time>2017-11-10T07:49:24Z</time>
      </trkpt>
      <trkpt lat="45.26191" lon="6.0199">
        <ele>1661.4549560547</ele>
        <time>2017-11-10T07:49:28Z</time>
      </trkpt>
      <trkpt lat="45.2619" lon="6.01997">
        <ele>1664.4549560547</ele>
        <time>2017-11-10T07:49:33Z</time>
      </trkpt>
      <trkpt lat="45.26189" lon="6.02003">
        <ele>1664.4549560547</ele>
        <time>2017-11-10T07:49:38Z</time>
      </trkpt>
      <trkpt lat="45.26187" lon="6.0201">
        <ele>1663.4549560547</ele>
        <time>2017-11-10T07:49:43Z</time>
      </trkpt>
      <trkpt lat="45.26185" lon="6.02016">
        <ele>1664.4549560547</ele>
        <time>2017-11-10T07:49:50Z</time>
      </trkpt>
      <trkpt lat="45.26183" lon="6.02025">
        <ele>1665.4549560547</ele>
        <time>2017-11-10T07:49:56Z</time>
      </trkpt>
      <trkpt lat="45.26183" lon="6.02033">
        <ele>1668.4549560547</ele>
        <time>2017-11-10T07:50:06Z</time>
      </trkpt>
      <trkpt lat="45.26184" lon="6.02041">
        <ele>1669.4549560547</ele>
        <time>2017-11-10T07:50:12Z</time>
      </trkpt>
      <trkpt lat="45.26185" lon="6.02048">
        <ele>1670.4549560547</ele>
        <time>2017-11-10T07:50:15Z</time>
      </trkpt>
      <trkpt lat="45.26186" lon="6.02056">
        <ele>1673.4549560547</ele>
        <time>2017-11-10T07:50:19Z</time>
      </trkpt>
      <trkpt lat="45.26186" lon="6.02063">
        <ele>1673.4549560547</ele>
        <time>2017-11-10T07:50:22Z</time>
      </trkpt>
      <trkpt lat="45.26187" lon="6.02071">
        <ele>1674.4549560547</ele>
        <time>2017-11-10T07:50:26Z</time>
      </trkpt>
      <trkpt lat="45.26189" lon="6.02079">
        <ele>1676.4549560547</ele>
        <time>2017-11-10T07:50:29Z</time>
      </trkpt>
      <trkpt lat="45.26191" lon="6.02086">
        <ele>1677.4549560547</ele>
        <time>2017-11-10T07:50:32Z</time>
      </trkpt>
      <trkpt lat="45.26192" lon="6.02093">
        <ele>1679.4549560547</ele>
        <time>2017-11-10T07:50:36Z</time>
      </trkpt>
      <trkpt lat="45.26192" lon="6.02101">
        <ele>1680.4549560547</ele>
        <time>2017-11-10T07:50:40Z</time>
      </trkpt>
      <trkpt lat="45.26193" lon="6.0211">
        <ele>1679.4549560547</ele>
        <time>2017-11-10T07:50:44Z</time>
      </trkpt>
      <trkpt lat="45.26195" lon="6.02117">
        <ele>1680.4549560547</ele>
        <time>2017-11-10T07:50:48Z</time>
      </trkpt>
      <trkpt lat="45.26197" lon="6.02124">
        <ele>1681.4549560547</ele>
        <time>2017-11-10T07:50:52Z</time>
      </trkpt>
      <trkpt lat="45.26197" lon="6.02131">
        <ele>1682.4549560547</ele>
        <time>2017-11-10T07:50:55Z</time>
      </trkpt>
      <trkpt lat="45.262" lon="6.02136">
        <ele>1682.4549560547</ele>
        <time>2017-11-10T07:50:59Z</time>
      </trkpt>
      <trkpt lat="45.26199" lon="6.02145">
        <ele>1683.4549560547</ele>
        <time>2017-11-10T07:51:03Z</time>
      </trkpt>
      <trkpt lat="45.26201" lon="6.02151">
        <ele>1683.4549560547</ele>
        <time>2017-11-10T07:51:07Z</time>
      </trkpt>
      <trkpt lat="45.26201" lon="6.02159">
        <ele>1684.4549560547</ele>
        <time>2017-11-10T07:51:11Z</time>
      </trkpt>
      <trkpt lat="45.26202" lon="6.02165">
        <ele>1685.4549560547</ele>
        <time>2017-11-10T07:51:16Z</time>
      </trkpt>
      <trkpt lat="45.26202" lon="6.02172">
        <ele>1685.4549560547</ele>
        <time>2017-11-10T07:51:20Z</time>
      </trkpt>
      <trkpt lat="45.26204" lon="6.02179">
        <ele>1687.4549560547</ele>
        <time>2017-11-10T07:51:25Z</time>
      </trkpt>
      <trkpt lat="45.26204" lon="6.02185">
        <ele>1686.4549560547</ele>
        <time>2017-11-10T07:51:31Z</time>
      </trkpt>
      <trkpt lat="45.26204" lon="6.02192">
        <ele>1688.4549560547</ele>
        <time>2017-11-10T07:51:40Z</time>
      </trkpt>
      <trkpt lat="45.26202" lon="6.02199">
        <ele>1689.4549560547</ele>
        <time>2017-11-10T07:51:43Z</time>
      </trkpt>
      <trkpt lat="45.26201" lon="6.02206">
        <ele>1690.4549560547</ele>
        <time>2017-11-10T07:51:47Z</time>
      </trkpt>
      <trkpt lat="45.26201" lon="6.02214">
        <ele>1691.4549560547</ele>
        <time>2017-11-10T07:51:56Z</time>
      </trkpt>
      <trkpt lat="45.26201" lon="6.02222">
        <ele>1693.4549560547</ele>
        <time>2017-11-10T07:52:01Z</time>
      </trkpt>
      <trkpt lat="45.26202" lon="6.0223">
        <ele>1695.4549560547</ele>
        <time>2017-11-10T07:52:09Z</time>
      </trkpt>
      <trkpt lat="45.26203" lon="6.02237">
        <ele>1698.4549560547</ele>
        <time>2017-11-10T07:52:14Z</time>
      </trkpt>
      <trkpt lat="45.26203" lon="6.02244">
        <ele>1699.4549560547</ele>
        <time>2017-11-10T07:52:19Z</time>
      </trkpt>
      <trkpt lat="45.26204" lon="6.0225">
        <ele>1701.4549560547</ele>
        <time>2017-11-10T07:52:25Z</time>
      </trkpt>
      <trkpt lat="45.26208" lon="6.02257">
        <ele>1701.4560546875</ele>
        <time>2017-11-10T07:52:32Z</time>
      </trkpt>
      <trkpt lat="45.26208" lon="6.02264">
        <ele>1699.4560546875</ele>
        <time>2017-11-10T07:52:39Z</time>
      </trkpt>
      <trkpt lat="45.26209" lon="6.02271">
        <ele>1702.4560546875</ele>
        <time>2017-11-10T07:52:45Z</time>
      </trkpt>
      <trkpt lat="45.26209" lon="6.02278">
        <ele>1703.4560546875</ele>
        <time>2017-11-10T07:52:51Z</time>
      </trkpt>
      <trkpt lat="45.2621" lon="6.02286">
        <ele>1705.4560546875</ele>
        <time>2017-11-10T07:52:57Z</time>
      </trkpt>
      <trkpt lat="45.26211" lon="6.02292">
        <ele>1707.4560546875</ele>
        <time>2017-11-10T07:53:03Z</time>
      </trkpt>
      <trkpt lat="45.26212" lon="6.02299">
        <ele>1708.4560546875</ele>
        <time>2017-11-10T07:53:08Z</time>
      </trkpt>
      <trkpt lat="45.26212" lon="6.02306">
        <ele>1709.4560546875</ele>
        <time>2017-11-10T07:53:12Z</time>
      </trkpt>
      <trkpt lat="45.26213" lon="6.02313">
        <ele>1710.4560546875</ele>
        <time>2017-11-10T07:53:18Z</time>
      </trkpt>
      <trkpt lat="45.26214" lon="6.02322">
        <ele>1711.4560546875</ele>
        <time>2017-11-10T07:53:25Z</time>
      </trkpt>
      <trkpt lat="45.26216" lon="6.02327">
        <ele>1712.4560546875</ele>
        <time>2017-11-10T07:53:29Z</time>
      </trkpt>
      <trkpt lat="45.26215" lon="6.02334">
        <ele>1714.4560546875</ele>
        <time>2017-11-10T07:53:32Z</time>
      </trkpt>
      <trkpt lat="45.26215" lon="6.02343">
        <ele>1715.4560546875</ele>
        <time>2017-11-10T07:53:37Z</time>
      </trkpt>
      <trkpt lat="45.26217" lon="6.0235">
        <ele>1714.4560546875</ele>
        <time>2017-11-10T07:53:43Z</time>
      </trkpt>
      <trkpt lat="45.2622" lon="6.02357">
        <ele>1715.4560546875</ele>
        <time>2017-11-10T07:53:49Z</time>
      </trkpt>
      <trkpt lat="45.26222" lon="6.02364">
        <ele>1717.4560546875</ele>
        <time>2017-11-10T07:53:53Z</time>
      </trkpt>
      <trkpt lat="45.26223" lon="6.02371">
        <ele>1718.4560546875</ele>
        <time>2017-11-10T07:53:59Z</time>
      </trkpt>
      <trkpt lat="45.26224" lon="6.0238">
        <ele>1718.4560546875</ele>
        <time>2017-11-10T07:54:05Z</time>
      </trkpt>
      <trkpt lat="45.26225" lon="6.02386">
        <ele>1719.4560546875</ele>
        <time>2017-11-10T07:54:10Z</time>
      </trkpt>
      <trkpt lat="45.26226" lon="6.02393">
        <ele>1719.4560546875</ele>
        <time>2017-11-10T07:54:16Z</time>
      </trkpt>
      <trkpt lat="45.26225" lon="6.02401">
        <ele>1720.4560546875</ele>
        <time>2017-11-10T07:54:20Z</time>
      </trkpt>
      <trkpt lat="45.26227" lon="6.02406">
        <ele>1722.4560546875</ele>
        <time>2017-11-10T07:54:24Z</time>
      </trkpt>
      <trkpt lat="45.2623" lon="6.02412">
        <ele>1723.4560546875</ele>
        <time>2017-11-10T07:54:28Z</time>
      </trkpt>
      <trkpt lat="45.2623" lon="6.02419">
        <ele>1722.4560546875</ele>
        <time>2017-11-10T07:54:33Z</time>
      </trkpt>
      <trkpt lat="45.26233" lon="6.02424">
        <ele>1722.4560546875</ele>
        <time>2017-11-10T07:54:37Z</time>
      </trkpt>
      <trkpt lat="45.26234" lon="6.02432">
        <ele>1723.4560546875</ele>
        <time>2017-11-10T07:54:41Z</time>
      </trkpt>
      <trkpt lat="45.26236" lon="6.02438">
        <ele>1722.4560546875</ele>
        <time>2017-11-10T07:54:45Z</time>
      </trkpt>
      <trkpt lat="45.26238" lon="6.02445">
        <ele>1724.4560546875</ele>
        <time>2017-11-10T07:54:49Z</time>
      </trkpt>
      <trkpt lat="45.26239" lon="6.02452">
        <ele>1725.4560546875</ele>
        <time>2017-11-10T07:54:53Z</time>
      </trkpt>
      <trkpt lat="45.26242" lon="6.02459">
        <ele>1727.4560546875</ele>
        <time>2017-11-10T07:54:58Z</time>
      </trkpt>
      <trkpt lat="45.26246" lon="6.02464">
        <ele>1727.4560546875</ele>
        <time>2017-11-10T07:55:04Z</time>
      </trkpt>
      <trkpt lat="45.2625" lon="6.02469">
        <ele>1727.4560546875</ele>
        <time>2017-11-10T07:55:08Z</time>
      </trkpt>
      <trkpt lat="45.2625" lon="6.02476">
        <ele>1727.4560546875</ele>
        <time>2017-11-10T07:55:13Z</time>
      </trkpt>
      <trkpt lat="45.26252" lon="6.02483">
        <ele>1729.4560546875</ele>
        <time>2017-11-10T07:55:18Z</time>
      </trkpt>
      <trkpt lat="45.26256" lon="6.02489">
        <ele>1730.4560546875</ele>
        <time>2017-11-10T07:55:24Z</time>
      </trkpt>
      <trkpt lat="45.26259" lon="6.02496">
        <ele>1729.4560546875</ele>
        <time>2017-11-10T07:55:28Z</time>
      </trkpt>
      <trkpt lat="45.26261" lon="6.02502">
        <ele>1727.4560546875</ele>
        <time>2017-11-10T07:55:32Z</time>
      </trkpt>
      <trkpt lat="45.26265" lon="6.02508">
        <ele>1728.4560546875</ele>
        <time>2017-11-10T07:55:36Z</time>
      </trkpt>
      <trkpt lat="45.26267" lon="6.02514">
        <ele>1728.4560546875</ele>
        <time>2017-11-10T07:55:43Z</time>
      </trkpt>
      <trkpt lat="45.26271" lon="6.02519">
        <ele>1729.4560546875</ele>
        <time>2017-11-10T07:55:48Z</time>
      </trkpt>
      <trkpt lat="45.26275" lon="6.02525">
        <ele>1731.4560546875</ele>
        <time>2017-11-10T07:55:52Z</time>
      </trkpt>
      <trkpt lat="45.26277" lon="6.02531">
        <ele>1728.4560546875</ele>
        <time>2017-11-10T07:55:57Z</time>
      </trkpt>
      <trkpt lat="45.26281" lon="6.02537">
        <ele>1729.4560546875</ele>
        <time>2017-11-10T07:56:00Z</time>
      </trkpt>
      <trkpt lat="45.26284" lon="6.02543">
        <ele>1727.4560546875</ele>
        <time>2017-11-10T07:56:03Z</time>
      </trkpt>
      <trkpt lat="45.26288" lon="6.0255">
        <ele>1727.4560546875</ele>
        <time>2017-11-10T07:56:08Z</time>
      </trkpt>
      <trkpt lat="45.26292" lon="6.02554">
        <ele>1726.4560546875</ele>
        <time>2017-11-10T07:56:12Z</time>
      </trkpt>
      <trkpt lat="45.26297" lon="6.02557">
        <ele>1729.4560546875</ele>
        <time>2017-11-10T07:56:16Z</time>
      </trkpt>
      <trkpt lat="45.26301" lon="6.0256">
        <ele>1729.4560546875</ele>
        <time>2017-11-10T07:56:20Z</time>
      </trkpt>
      <trkpt lat="45.26305" lon="6.02564">
        <ele>1728.4560546875</ele>
        <time>2017-11-10T07:56:24Z</time>
      </trkpt>
      <trkpt lat="45.2631" lon="6.02568">
        <ele>1732.4560546875</ele>
        <time>2017-11-10T07:56:28Z</time>
      </trkpt>
      <trkpt lat="45.26313" lon="6.02572">
        <ele>1733.4560546875</ele>
        <time>2017-11-10T07:56:32Z</time>
      </trkpt>
      <trkpt lat="45.26318" lon="6.02577">
        <ele>1734.4560546875</ele>
        <time>2017-11-10T07:56:36Z</time>
      </trkpt>
      <trkpt lat="45.26323" lon="6.02581">
        <ele>1733.4560546875</ele>
        <time>2017-11-10T07:56:40Z</time>
      </trkpt>
      <trkpt lat="45.26327" lon="6.02584">
        <ele>1734.4560546875</ele>
        <time>2017-11-10T07:56:45Z</time>
      </trkpt>
      <trkpt lat="45.26332" lon="6.02585">
        <ele>1735.4560546875</ele>
        <time>2017-11-10T07:56:47Z</time>
      </trkpt>
      <trkpt lat="45.26336" lon="6.0259">
        <ele>1734.4560546875</ele>
        <time>2017-11-10T07:56:50Z</time>
      </trkpt>
      <trkpt lat="45.2634" lon="6.02594">
        <ele>1735.4560546875</ele>
        <time>2017-11-10T07:56:52Z</time>
      </trkpt>
      <trkpt lat="45.26344" lon="6.02598">
        <ele>1735.4560546875</ele>
        <time>2017-11-10T07:56:54Z</time>
      </trkpt>
      <trkpt lat="45.26348" lon="6.02603">
        <ele>1734.4560546875</ele>
        <time>2017-11-10T07:56:57Z</time>
      </trkpt>
      <trkpt lat="45.26351" lon="6.0261">
        <ele>1735.4560546875</ele>
        <time>2017-11-10T07:57:01Z</time>
      </trkpt>
      <trkpt lat="45.26355" lon="6.02612">
        <ele>1739.4560546875</ele>
        <time>2017-11-10T07:57:04Z</time>
      </trkpt>
      <trkpt lat="45.26359" lon="6.02618">
        <ele>1741.4560546875</ele>
        <time>2017-11-10T07:57:08Z</time>
      </trkpt>
      <trkpt lat="45.26363" lon="6.02622">
        <ele>1739.4560546875</ele>
        <time>2017-11-10T07:57:12Z</time>
      </trkpt>
      <trkpt lat="45.26365" lon="6.02628">
        <ele>1741.4560546875</ele>
        <time>2017-11-10T07:57:15Z</time>
      </trkpt>
      <trkpt lat="45.26367" lon="6.02634">
        <ele>1739.4560546875</ele>
        <time>2017-11-10T07:57:19Z</time>
      </trkpt>
      <trkpt lat="45.26368" lon="6.02642">
        <ele>1739.4560546875</ele>
        <time>2017-11-10T07:57:22Z</time>
      </trkpt>
      <trkpt lat="45.2637" lon="6.02649">
        <ele>1737.4560546875</ele>
        <time>2017-11-10T07:57:26Z</time>
      </trkpt>
      <trkpt lat="45.26371" lon="6.02658">
        <ele>1735.4560546875</ele>
        <time>2017-11-10T07:57:31Z</time>
      </trkpt>
      <trkpt lat="45.26376" lon="6.02663">
        <ele>1737.4560546875</ele>
        <time>2017-11-10T07:57:35Z</time>
      </trkpt>
      <trkpt lat="45.26377" lon="6.0267">
        <ele>1738.4560546875</ele>
        <time>2017-11-10T07:57:39Z</time>
      </trkpt>
      <trkpt lat="45.26382" lon="6.02677">
        <ele>1740.4560546875</ele>
        <time>2017-11-10T07:57:44Z</time>
      </trkpt>
      <trkpt lat="45.2638" lon="6.02685">
        <ele>1737.4560546875</ele>
        <time>2017-11-10T07:57:48Z</time>
      </trkpt>
      <trkpt lat="45.26379" lon="6.02692">
        <ele>1739.4560546875</ele>
        <time>2017-11-10T07:57:53Z</time>
      </trkpt>
      <trkpt lat="45.26382" lon="6.027">
        <ele>1742.4560546875</ele>
        <time>2017-11-10T07:57:58Z</time>
      </trkpt>
      <trkpt lat="45.2638" lon="6.02707">
        <ele>1742.4560546875</ele>
        <time>2017-11-10T07:58:02Z</time>
      </trkpt>
      <trkpt lat="45.2638" lon="6.02714">
        <ele>1742.4560546875</ele>
        <time>2017-11-10T07:58:06Z</time>
      </trkpt>
      <trkpt lat="45.26381" lon="6.02721">
        <ele>1743.4560546875</ele>
        <time>2017-11-10T07:58:10Z</time>
      </trkpt>
      <trkpt lat="45.2638" lon="6.02729">
        <ele>1743.4560546875</ele>
        <time>2017-11-10T07:58:14Z</time>
      </trkpt>
      <trkpt lat="45.26378" lon="6.02734">
        <ele>1743.4560546875</ele>
        <time>2017-11-10T07:58:17Z</time>
      </trkpt>
      <trkpt lat="45.26376" lon="6.02742">
        <ele>1743.45703125</ele>
        <time>2017-11-10T07:58:20Z</time>
      </trkpt>
      <trkpt lat="45.26373" lon="6.02748">
        <ele>1744.45703125</ele>
        <time>2017-11-10T07:58:23Z</time>
      </trkpt>
      <trkpt lat="45.2637" lon="6.02754">
        <ele>1742.45703125</ele>
        <time>2017-11-10T07:58:27Z</time>
      </trkpt>
      <trkpt lat="45.26367" lon="6.02758">
        <ele>1743.45703125</ele>
        <time>2017-11-10T07:58:30Z</time>
      </trkpt>
      <trkpt lat="45.26363" lon="6.02762">
        <ele>1741.45703125</ele>
        <time>2017-11-10T07:58:34Z</time>
      </trkpt>
      <trkpt lat="45.26358" lon="6.02767">
        <ele>1745.45703125</ele>
        <time>2017-11-10T07:58:40Z</time>
      </trkpt>
      <trkpt lat="45.26354" lon="6.02772">
        <ele>1744.45703125</ele>
        <time>2017-11-10T07:58:44Z</time>
      </trkpt>
      <trkpt lat="45.26351" lon="6.02777">
        <ele>1744.45703125</ele>
        <time>2017-11-10T07:58:48Z</time>
      </trkpt>
      <trkpt lat="45.26346" lon="6.02779">
        <ele>1746.4560546875</ele>
        <time>2017-11-10T07:58:53Z</time>
      </trkpt>
      <trkpt lat="45.26342" lon="6.02784">
        <ele>1750.4560546875</ele>
        <time>2017-11-10T07:58:58Z</time>
      </trkpt>
      <trkpt lat="45.26338" lon="6.02786">
        <ele>1753.4560546875</ele>
        <time>2017-11-10T07:59:03Z</time>
      </trkpt>
      <trkpt lat="45.26334" lon="6.02789">
        <ele>1756.4560546875</ele>
        <time>2017-11-10T07:59:08Z</time>
      </trkpt>
      <trkpt lat="45.2633" lon="6.02793">
        <ele>1757.4560546875</ele>
        <time>2017-11-10T07:59:14Z</time>
      </trkpt>
      <trkpt lat="45.26328" lon="6.02799">
        <ele>1758.4560546875</ele>
        <time>2017-11-10T07:59:20Z</time>
      </trkpt>
      <trkpt lat="45.26323" lon="6.02799">
        <ele>1760.4560546875</ele>
        <time>2017-11-10T07:59:26Z</time>
      </trkpt>
      <trkpt lat="45.26318" lon="6.02803">
        <ele>1756.4560546875</ele>
        <time>2017-11-10T07:59:31Z</time>
      </trkpt>
      <trkpt lat="45.26314" lon="6.02806">
        <ele>1752.4560546875</ele>
        <time>2017-11-10T07:59:35Z</time>
      </trkpt>
      <trkpt lat="45.26308" lon="6.02805">
        <ele>1753.4560546875</ele>
        <time>2017-11-10T07:59:41Z</time>
      </trkpt>
      <trkpt lat="45.26304" lon="6.02809">
        <ele>1756.4560546875</ele>
        <time>2017-11-10T07:59:47Z</time>
      </trkpt>
      <trkpt lat="45.26298" lon="6.0281">
        <ele>1753.4560546875</ele>
        <time>2017-11-10T07:59:54Z</time>
      </trkpt>
      <trkpt lat="45.26293" lon="6.02807">
        <ele>1754.4560546875</ele>
        <time>2017-11-10T08:00:00Z</time>
      </trkpt>
      <trkpt lat="45.26288" lon="6.02807">
        <ele>1760.4560546875</ele>
        <time>2017-11-10T08:00:06Z</time>
      </trkpt>
      <trkpt lat="45.26283" lon="6.0281">
        <ele>1763.4560546875</ele>
        <time>2017-11-10T08:00:13Z</time>
      </trkpt>
      <trkpt lat="45.26278" lon="6.0281">
        <ele>1771.4560546875</ele>
        <time>2017-11-10T08:00:28Z</time>
      </trkpt>
      <trkpt lat="45.26272" lon="6.02809">
        <ele>1771.4560546875</ele>
        <time>2017-11-10T08:00:37Z</time>
      </trkpt>
      <trkpt lat="45.26268" lon="6.02811">
        <ele>1771.4560546875</ele>
        <time>2017-11-10T08:00:47Z</time>
      </trkpt>
      <trkpt lat="45.26264" lon="6.02816">
        <ele>1772.4560546875</ele>
        <time>2017-11-10T08:00:57Z</time>
      </trkpt>
      <trkpt lat="45.2626" lon="6.02818">
        <ele>1772.4560546875</ele>
        <time>2017-11-10T08:01:03Z</time>
      </trkpt>
      <trkpt lat="45.26254" lon="6.02816">
        <ele>1772.4560546875</ele>
        <time>2017-11-10T08:01:08Z</time>
      </trkpt>
      <trkpt lat="45.26249" lon="6.02815">
        <ele>1776.4560546875</ele>
        <time>2017-11-10T08:01:16Z</time>
      </trkpt>
      <trkpt lat="45.26244" lon="6.02814">
        <ele>1781.4560546875</ele>
        <time>2017-11-10T08:01:25Z</time>
      </trkpt>
      <trkpt lat="45.26239" lon="6.02811">
        <ele>1782.4560546875</ele>
        <time>2017-11-10T08:01:33Z</time>
      </trkpt>
      <trkpt lat="45.26234" lon="6.02809">
        <ele>1785.4560546875</ele>
        <time>2017-11-10T08:01:42Z</time>
      </trkpt>
      <trkpt lat="45.26231" lon="6.02804">
        <ele>1787.4560546875</ele>
        <time>2017-11-10T08:01:48Z</time>
      </trkpt>
      <trkpt lat="45.26227" lon="6.028">
        <ele>1787.4560546875</ele>
        <time>2017-11-10T08:01:53Z</time>
      </trkpt>
      <trkpt lat="45.26223" lon="6.02796">
        <ele>1789.4560546875</ele>
        <time>2017-11-10T08:01:59Z</time>
      </trkpt>
      <trkpt lat="45.26219" lon="6.02792">
        <ele>1790.4560546875</ele>
        <time>2017-11-10T08:02:06Z</time>
      </trkpt>
      <trkpt lat="45.26214" lon="6.02788">
        <ele>1797.4560546875</ele>
        <time>2017-11-10T08:02:18Z</time>
      </trkpt>
      <trkpt lat="45.2621" lon="6.02784">
        <ele>1796.4560546875</ele>
        <time>2017-11-10T08:02:26Z</time>
      </trkpt>
      <trkpt lat="45.26208" lon="6.02779">
        <ele>1798.4560546875</ele>
        <time>2017-11-10T08:02:32Z</time>
      </trkpt>
      <trkpt lat="45.26205" lon="6.02774">
        <ele>1800.4560546875</ele>
        <time>2017-11-10T08:02:39Z</time>
      </trkpt>
      <trkpt lat="45.26201" lon="6.02771">
        <ele>1802.4560546875</ele>
        <time>2017-11-10T08:02:48Z</time>
      </trkpt>
      <trkpt lat="45.26196" lon="6.0277">
        <ele>1803.4560546875</ele>
        <time>2017-11-10T08:02:57Z</time>
      </trkpt>
      <trkpt lat="45.26192" lon="6.02766">
        <ele>1806.4560546875</ele>
        <time>2017-11-10T08:03:01Z</time>
      </trkpt>
      <trkpt lat="45.26188" lon="6.02763">
        <ele>1808.4560546875</ele>
        <time>2017-11-10T08:03:07Z</time>
      </trkpt>
      <trkpt lat="45.26183" lon="6.0276">
        <ele>1809.4560546875</ele>
        <time>2017-11-10T08:03:15Z</time>
      </trkpt>
      <trkpt lat="45.26179" lon="6.02758">
        <ele>1811.4560546875</ele>
        <time>2017-11-10T08:03:22Z</time>
      </trkpt>
      <trkpt lat="45.26175" lon="6.02754">
        <ele>1814.4560546875</ele>
        <time>2017-11-10T08:03:30Z</time>
      </trkpt>
      <trkpt lat="45.2617" lon="6.02749">
        <ele>1816.4560546875</ele>
        <time>2017-11-10T08:03:37Z</time>
      </trkpt>
      <trkpt lat="45.26165" lon="6.02747">
        <ele>1815.4560546875</ele>
        <time>2017-11-10T08:03:42Z</time>
      </trkpt>
      <trkpt lat="45.2616" lon="6.02744">
        <ele>1816.4560546875</ele>
        <time>2017-11-10T08:03:47Z</time>
      </trkpt>
      <trkpt lat="45.26156" lon="6.02741">
        <ele>1817.4560546875</ele>
        <time>2017-11-10T08:03:55Z</time>
      </trkpt>
      <trkpt lat="45.26151" lon="6.02738">
        <ele>1816.4560546875</ele>
        <time>2017-11-10T08:03:59Z</time>
      </trkpt>
      <trkpt lat="45.26147" lon="6.02734">
        <ele>1818.4560546875</ele>
        <time>2017-11-10T08:04:07Z</time>
      </trkpt>
      <trkpt lat="45.26143" lon="6.02729">
        <ele>1818.4560546875</ele>
        <time>2017-11-10T08:04:14Z</time>
      </trkpt>
      <trkpt lat="45.26139" lon="6.02724">
        <ele>1821.4560546875</ele>
        <time>2017-11-10T08:04:21Z</time>
      </trkpt>
      <trkpt lat="45.26134" lon="6.02718">
        <ele>1825.4560546875</ele>
        <time>2017-11-10T08:04:29Z</time>
      </trkpt>
      <trkpt lat="45.26131" lon="6.02712">
        <ele>1827.4560546875</ele>
        <time>2017-11-10T08:04:33Z</time>
      </trkpt>
      <trkpt lat="45.26128" lon="6.02708">
        <ele>1829.4560546875</ele>
        <time>2017-11-10T08:04:39Z</time>
      </trkpt>
      <trkpt lat="45.26125" lon="6.02702">
        <ele>1831.4560546875</ele>
        <time>2017-11-10T08:04:46Z</time>
      </trkpt>
      <trkpt lat="45.26121" lon="6.02698">
        <ele>1831.4560546875</ele>
        <time>2017-11-10T08:04:51Z</time>
      </trkpt>
      <trkpt lat="45.26118" lon="6.02693">
        <ele>1835.4560546875</ele>
        <time>2017-11-10T08:05:01Z</time>
      </trkpt>
      <trkpt lat="45.26114" lon="6.02689">
        <ele>1835.4560546875</ele>
        <time>2017-11-10T08:05:07Z</time>
      </trkpt>
      <trkpt lat="45.26111" lon="6.02684">
        <ele>1837.4560546875</ele>
        <time>2017-11-10T08:05:16Z</time>
      </trkpt>
      <trkpt lat="45.26106" lon="6.02682">
        <ele>1839.4560546875</ele>
        <time>2017-11-10T08:05:22Z</time>
      </trkpt>
      <trkpt lat="45.26101" lon="6.02684">
        <ele>1841.4560546875</ele>
        <time>2017-11-10T08:05:29Z</time>
      </trkpt>
      <trkpt lat="45.26096" lon="6.02686">
        <ele>1842.4560546875</ele>
        <time>2017-11-10T08:05:35Z</time>
      </trkpt>
      <trkpt lat="45.26092" lon="6.02691">
        <ele>1844.4560546875</ele>
        <time>2017-11-10T08:05:40Z</time>
      </trkpt>
      <trkpt lat="45.26089" lon="6.02697">
        <ele>1845.4560546875</ele>
        <time>2017-11-10T08:05:47Z</time>
      </trkpt>
      <trkpt lat="45.26088" lon="6.02703">
        <ele>1846.4560546875</ele>
        <time>2017-11-10T08:05:52Z</time>
      </trkpt>
      <trkpt lat="45.26085" lon="6.0271">
        <ele>1849.4560546875</ele>
        <time>2017-11-10T08:06:00Z</time>
      </trkpt>
      <trkpt lat="45.26083" lon="6.02717">
        <ele>1852.4560546875</ele>
        <time>2017-11-10T08:06:07Z</time>
      </trkpt>
      <trkpt lat="45.26084" lon="6.02724">
        <ele>1853.4560546875</ele>
        <time>2017-11-10T08:06:12Z</time>
      </trkpt>
      <trkpt lat="45.26082" lon="6.0273">
        <ele>1856.4560546875</ele>
        <time>2017-11-10T08:06:17Z</time>
      </trkpt>
      <trkpt lat="45.2608" lon="6.02736">
        <ele>1856.4560546875</ele>
        <time>2017-11-10T08:06:23Z</time>
      </trkpt>
      <trkpt lat="45.26078" lon="6.02743">
        <ele>1857.4560546875</ele>
        <time>2017-11-10T08:06:31Z</time>
      </trkpt>
      <trkpt lat="45.26079" lon="6.0275">
        <ele>1857.4560546875</ele>
        <time>2017-11-10T08:06:39Z</time>
      </trkpt>
      <trkpt lat="45.26079" lon="6.02757">
        <ele>1859.4560546875</ele>
        <time>2017-11-10T08:06:43Z</time>
      </trkpt>
      <trkpt lat="45.26079" lon="6.02763">
        <ele>1859.4560546875</ele>
        <time>2017-11-10T08:06:49Z</time>
      </trkpt>
      <trkpt lat="45.2608" lon="6.0277">
        <ele>1860.4560546875</ele>
        <time>2017-11-10T08:06:55Z</time>
      </trkpt>
      <trkpt lat="45.2608" lon="6.02777">
        <ele>1860.4560546875</ele>
        <time>2017-11-10T08:07:01Z</time>
      </trkpt>
      <trkpt lat="45.26079" lon="6.02784">
        <ele>1861.4560546875</ele>
        <time>2017-11-10T08:07:12Z</time>
      </trkpt>
      <trkpt lat="45.26079" lon="6.0279">
        <ele>1861.4560546875</ele>
        <time>2017-11-10T08:07:18Z</time>
      </trkpt>
      <trkpt lat="45.2608" lon="6.02799">
        <ele>1864.4560546875</ele>
        <time>2017-11-10T08:07:22Z</time>
      </trkpt>
      <trkpt lat="45.2608" lon="6.02805">
        <ele>1865.4560546875</ele>
        <time>2017-11-10T08:07:28Z</time>
      </trkpt>
      <trkpt lat="45.26081" lon="6.02812">
        <ele>1867.4560546875</ele>
        <time>2017-11-10T08:07:36Z</time>
      </trkpt>
      <trkpt lat="45.2608" lon="6.02821">
        <ele>1867.4560546875</ele>
        <time>2017-11-10T08:07:42Z</time>
      </trkpt>
      <trkpt lat="45.2608" lon="6.02829">
        <ele>1871.4560546875</ele>
        <time>2017-11-10T08:07:47Z</time>
      </trkpt>
      <trkpt lat="45.2608" lon="6.02837">
        <ele>1873.4560546875</ele>
        <time>2017-11-10T08:07:56Z</time>
      </trkpt>
      <trkpt lat="45.2608" lon="6.02844">
        <ele>1877.4560546875</ele>
        <time>2017-11-10T08:08:05Z</time>
      </trkpt>
      <trkpt lat="45.26081" lon="6.02851">
        <ele>1880.4560546875</ele>
        <time>2017-11-10T08:08:14Z</time>
      </trkpt>
      <trkpt lat="45.26081" lon="6.02858">
        <ele>1882.4560546875</ele>
        <time>2017-11-10T08:08:24Z</time>
      </trkpt>
      <trkpt lat="45.26082" lon="6.02865">
        <ele>1884.4560546875</ele>
        <time>2017-11-10T08:08:35Z</time>
      </trkpt>
      <trkpt lat="45.2608" lon="6.02871">
        <ele>1886.4560546875</ele>
        <time>2017-11-10T08:08:40Z</time>
      </trkpt>
      <trkpt lat="45.26077" lon="6.02876">
        <ele>1889.4560546875</ele>
        <time>2017-11-10T08:08:47Z</time>
      </trkpt>
      <trkpt lat="45.26076" lon="6.02882">
        <ele>1889.4560546875</ele>
        <time>2017-11-10T08:08:55Z</time>
      </trkpt>
      <trkpt lat="45.26077" lon="6.02889">
        <ele>1890.4560546875</ele>
        <time>2017-11-10T08:09:01Z</time>
      </trkpt>
      <trkpt lat="45.26077" lon="6.02895">
        <ele>1895.4560546875</ele>
        <time>2017-11-10T08:09:11Z</time>
      </trkpt>
      <trkpt lat="45.26073" lon="6.029">
        <ele>1896.4560546875</ele>
        <time>2017-11-10T08:09:17Z</time>
      </trkpt>
      <trkpt lat="45.2607" lon="6.02905">
        <ele>1898.4560546875</ele>
        <time>2017-11-10T08:09:22Z</time>
      </trkpt>
      <trkpt lat="45.26066" lon="6.02909">
        <ele>1898.4560546875</ele>
        <time>2017-11-10T08:09:27Z</time>
      </trkpt>
      <trkpt lat="45.26064" lon="6.02914">
        <ele>1899.4560546875</ele>
        <time>2017-11-10T08:09:33Z</time>
      </trkpt>
      <trkpt lat="45.26062" lon="6.02921">
        <ele>1901.4560546875</ele>
        <time>2017-11-10T08:09:40Z</time>
      </trkpt>
      <trkpt lat="45.26061" lon="6.02929">
        <ele>1902.4560546875</ele>
        <time>2017-11-10T08:09:46Z</time>
      </trkpt>
      <trkpt lat="45.2606" lon="6.02935">
        <ele>1903.4560546875</ele>
        <time>2017-11-10T08:09:51Z</time>
      </trkpt>
      <trkpt lat="45.26058" lon="6.02942">
        <ele>1905.4560546875</ele>
        <time>2017-11-10T08:09:57Z</time>
      </trkpt>
      <trkpt lat="45.26057" lon="6.02948">
        <ele>1906.4560546875</ele>
        <time>2017-11-10T08:10:02Z</time>
      </trkpt>
      <trkpt lat="45.26055" lon="6.02955">
        <ele>1906.4560546875</ele>
        <time>2017-11-10T08:10:08Z</time>
      </trkpt>
      <trkpt lat="45.26054" lon="6.02962">
        <ele>1906.4560546875</ele>
        <time>2017-11-10T08:10:13Z</time>
      </trkpt>
      <trkpt lat="45.26052" lon="6.02969">
        <ele>1908.4560546875</ele>
        <time>2017-11-10T08:10:18Z</time>
      </trkpt>
      <trkpt lat="45.2605" lon="6.02977">
        <ele>1908.4560546875</ele>
        <time>2017-11-10T08:10:23Z</time>
      </trkpt>
      <trkpt lat="45.26048" lon="6.02984">
        <ele>1908.4560546875</ele>
        <time>2017-11-10T08:10:28Z</time>
      </trkpt>
      <trkpt lat="45.26047" lon="6.02991">
        <ele>1907.4560546875</ele>
        <time>2017-11-10T08:10:32Z</time>
      </trkpt>
      <trkpt lat="45.26046" lon="6.02998">
        <ele>1907.4560546875</ele>
        <time>2017-11-10T08:10:37Z</time>
      </trkpt>
      <trkpt lat="45.26045" lon="6.03006">
        <ele>1906.4560546875</ele>
        <time>2017-11-10T08:10:43Z</time>
      </trkpt>
      <trkpt lat="45.26043" lon="6.03013">
        <ele>1906.4560546875</ele>
        <time>2017-11-10T08:10:50Z</time>
      </trkpt>
      <trkpt lat="45.2604" lon="6.0302">
        <ele>1907.4560546875</ele>
        <time>2017-11-10T08:10:54Z</time>
      </trkpt>
      <trkpt lat="45.26039" lon="6.03026">
        <ele>1908.4560546875</ele>
        <time>2017-11-10T08:10:57Z</time>
      </trkpt>
      <trkpt lat="45.26037" lon="6.03034">
        <ele>1907.4560546875</ele>
        <time>2017-11-10T08:11:02Z</time>
      </trkpt>
      <trkpt lat="45.26035" lon="6.0304">
        <ele>1909.4560546875</ele>
        <time>2017-11-10T08:11:06Z</time>
      </trkpt>
      <trkpt lat="45.26033" lon="6.03047">
        <ele>1909.4560546875</ele>
        <time>2017-11-10T08:11:11Z</time>
      </trkpt>
      <trkpt lat="45.26032" lon="6.03055">
        <ele>1909.4560546875</ele>
        <time>2017-11-10T08:11:17Z</time>
      </trkpt>
      <trkpt lat="45.2603" lon="6.03062">
        <ele>1912.4560546875</ele>
        <time>2017-11-10T08:11:22Z</time>
      </trkpt>
      <trkpt lat="45.26029" lon="6.03069">
        <ele>1913.4560546875</ele>
        <time>2017-11-10T08:11:29Z</time>
      </trkpt>
      <trkpt lat="45.26026" lon="6.03074">
        <ele>1915.4560546875</ele>
        <time>2017-11-10T08:11:35Z</time>
      </trkpt>
      <trkpt lat="45.26023" lon="6.0308">
        <ele>1918.4560546875</ele>
        <time>2017-11-10T08:11:42Z</time>
      </trkpt>
      <trkpt lat="45.26019" lon="6.03084">
        <ele>1920.4560546875</ele>
        <time>2017-11-10T08:11:49Z</time>
      </trkpt>
      <trkpt lat="45.26016" lon="6.0309">
        <ele>1920.4560546875</ele>
        <time>2017-11-10T08:11:58Z</time>
      </trkpt>
      <trkpt lat="45.26012" lon="6.03094">
        <ele>1923.4560546875</ele>
        <time>2017-11-10T08:12:03Z</time>
      </trkpt>
      <trkpt lat="45.26013" lon="6.031">
        <ele>1930.4560546875</ele>
        <time>2017-11-10T08:12:22Z</time>
      </trkpt>
      <trkpt lat="45.26014" lon="6.03108">
        <ele>1930.4560546875</ele>
        <time>2017-11-10T08:12:33Z</time>
      </trkpt>
      <trkpt lat="45.26015" lon="6.03114">
        <ele>1929.4560546875</ele>
        <time>2017-11-10T08:12:42Z</time>
      </trkpt>
      <trkpt lat="45.26018" lon="6.03121">
        <ele>1931.4560546875</ele>
        <time>2017-11-10T08:12:50Z</time>
      </trkpt>
      <trkpt lat="45.2602" lon="6.03127">
        <ele>1933.4560546875</ele>
        <time>2017-11-10T08:12:57Z</time>
      </trkpt>
      <trkpt lat="45.26023" lon="6.03133">
        <ele>1937.4560546875</ele>
        <time>2017-11-10T08:13:04Z</time>
      </trkpt>
      <trkpt lat="45.26023" lon="6.03141">
        <ele>1938.4560546875</ele>
        <time>2017-11-10T08:13:14Z</time>
      </trkpt>
      <trkpt lat="45.26018" lon="6.03144">
        <ele>1940.4560546875</ele>
        <time>2017-11-10T08:13:21Z</time>
      </trkpt>
      <trkpt lat="45.26013" lon="6.03146">
        <ele>1942.4560546875</ele>
        <time>2017-11-10T08:13:29Z</time>
      </trkpt>
      <trkpt lat="45.26008" lon="6.03148">
        <ele>1942.4560546875</ele>
        <time>2017-11-10T08:13:37Z</time>
      </trkpt>
      <trkpt lat="45.26004" lon="6.0315">
        <ele>1945.4560546875</ele>
        <time>2017-11-10T08:13:45Z</time>
      </trkpt>
      <trkpt lat="45.26" lon="6.03153">
        <ele>1947.4560546875</ele>
        <time>2017-11-10T08:13:52Z</time>
      </trkpt>
      <trkpt lat="45.25997" lon="6.03159">
        <ele>1944.4560546875</ele>
        <time>2017-11-10T08:13:58Z</time>
      </trkpt>
      <trkpt lat="45.25993" lon="6.03164">
        <ele>1948.4560546875</ele>
        <time>2017-11-10T08:14:06Z</time>
      </trkpt>
      <trkpt lat="45.2599" lon="6.0317">
        <ele>1950.4560546875</ele>
        <time>2017-11-10T08:14:14Z</time>
      </trkpt>
      <trkpt lat="45.25987" lon="6.03175">
        <ele>1952.4560546875</ele>
        <time>2017-11-10T08:14:21Z</time>
      </trkpt>
      <trkpt lat="45.25983" lon="6.0318">
        <ele>1952.4560546875</ele>
        <time>2017-11-10T08:14:28Z</time>
      </trkpt>
      <trkpt lat="45.2598" lon="6.03186">
        <ele>1953.4560546875</ele>
        <time>2017-11-10T08:14:34Z</time>
      </trkpt>
      <trkpt lat="45.25976" lon="6.03189">
        <ele>1956.4560546875</ele>
        <time>2017-11-10T08:14:43Z</time>
      </trkpt>
      <trkpt lat="45.25972" lon="6.03194">
        <ele>1959.4560546875</ele>
        <time>2017-11-10T08:14:52Z</time>
      </trkpt>
      <trkpt lat="45.25968" lon="6.03198">
        <ele>1960.4560546875</ele>
        <time>2017-11-10T08:14:57Z</time>
      </trkpt>
      <trkpt lat="45.25963" lon="6.03199">
        <ele>1962.4560546875</ele>
        <time>2017-11-10T08:15:04Z</time>
      </trkpt>
      <trkpt lat="45.25957" lon="6.03196">
        <ele>1965.4560546875</ele>
        <time>2017-11-10T08:15:10Z</time>
      </trkpt>
      <trkpt lat="45.25953" lon="6.03193">
        <ele>1967.4560546875</ele>
        <time>2017-11-10T08:15:16Z</time>
      </trkpt>
      <trkpt lat="45.25949" lon="6.03189">
        <ele>1968.4560546875</ele>
        <time>2017-11-10T08:15:22Z</time>
      </trkpt>
      <trkpt lat="45.25944" lon="6.03187">
        <ele>1968.4560546875</ele>
        <time>2017-11-10T08:15:28Z</time>
      </trkpt>
      <trkpt lat="45.25939" lon="6.03186">
        <ele>1969.4560546875</ele>
        <time>2017-11-10T08:15:33Z</time>
      </trkpt>
      <trkpt lat="45.25935" lon="6.03182">
        <ele>1971.4560546875</ele>
        <time>2017-11-10T08:15:39Z</time>
      </trkpt>
      <trkpt lat="45.25931" lon="6.03177">
        <ele>1973.4560546875</ele>
        <time>2017-11-10T08:15:46Z</time>
      </trkpt>
      <trkpt lat="45.25927" lon="6.03173">
        <ele>1978.4560546875</ele>
        <time>2017-11-10T08:16:07Z</time>
      </trkpt>
      <trkpt lat="45.25923" lon="6.0317">
        <ele>1979.4560546875</ele>
        <time>2017-11-10T08:16:14Z</time>
      </trkpt>
      <trkpt lat="45.25918" lon="6.03167">
        <ele>1978.4560546875</ele>
        <time>2017-11-10T08:16:19Z</time>
      </trkpt>
      <trkpt lat="45.25914" lon="6.03164">
        <ele>1976.4560546875</ele>
        <time>2017-11-10T08:16:27Z</time>
      </trkpt>
      <trkpt lat="45.25909" lon="6.03161">
        <ele>1976.4560546875</ele>
        <time>2017-11-10T08:16:32Z</time>
      </trkpt>
      <trkpt lat="45.25906" lon="6.03155">
        <ele>1975.4560546875</ele>
        <time>2017-11-10T08:16:40Z</time>
      </trkpt>
      <trkpt lat="45.25902" lon="6.03152">
        <ele>1976.4560546875</ele>
        <time>2017-11-10T08:16:45Z</time>
      </trkpt>
      <trkpt lat="45.25899" lon="6.03147">
        <ele>1979.4560546875</ele>
        <time>2017-11-10T08:16:49Z</time>
      </trkpt>
      <trkpt lat="45.25895" lon="6.03144">
        <ele>1980.4560546875</ele>
        <time>2017-11-10T08:16:55Z</time>
      </trkpt>
      <trkpt lat="45.2588" lon="6.03137">
        <ele>1986.4560546875</ele>
        <time>2017-11-10T08:17:08Z</time>
      </trkpt>
      <trkpt lat="45.25876" lon="6.03132">
        <ele>1987.4560546875</ele>
        <time>2017-11-10T08:17:18Z</time>
      </trkpt>
      <trkpt lat="45.25873" lon="6.03128">
        <ele>1989.4560546875</ele>
        <time>2017-11-10T08:17:26Z</time>
      </trkpt>
      <trkpt lat="45.25871" lon="6.03123">
        <ele>1993.4560546875</ele>
        <time>2017-11-10T08:17:34Z</time>
      </trkpt>
      <trkpt lat="45.25868" lon="6.03117">
        <ele>1995.4560546875</ele>
        <time>2017-11-10T08:17:42Z</time>
      </trkpt>
      <trkpt lat="45.25865" lon="6.0311">
        <ele>1997.4560546875</ele>
        <time>2017-11-10T08:17:50Z</time>
      </trkpt>
      <trkpt lat="45.2586" lon="6.03107">
        <ele>1999.4560546875</ele>
        <time>2017-11-10T08:18:02Z</time>
      </trkpt>
      <trkpt lat="45.25856" lon="6.03104">
        <ele>2001.4560546875</ele>
        <time>2017-11-10T08:18:10Z</time>
      </trkpt>
      <trkpt lat="45.2585" lon="6.03106">
        <ele>2002.4560546875</ele>
        <time>2017-11-10T08:18:20Z</time>
      </trkpt>
      <trkpt lat="45.25848" lon="6.03111">
        <ele>2006.4560546875</ele>
        <time>2017-11-10T08:18:30Z</time>
      </trkpt>
      <trkpt lat="45.25845" lon="6.03118">
        <ele>2008.4560546875</ele>
        <time>2017-11-10T08:18:48Z</time>
      </trkpt>
      <trkpt lat="45.25841" lon="6.03121">
        <ele>2014.4560546875</ele>
        <time>2017-11-10T08:19:04Z</time>
      </trkpt>
      <trkpt lat="45.25836" lon="6.0312">
        <ele>2016.4560546875</ele>
        <time>2017-11-10T08:19:17Z</time>
      </trkpt>
      <trkpt lat="45.25832" lon="6.0312">
        <ele>2019.4560546875</ele>
        <time>2017-11-10T08:19:27Z</time>
      </trkpt>
      <trkpt lat="45.25827" lon="6.03119">
        <ele>2018.4560546875</ele>
        <time>2017-11-10T08:19:32Z</time>
      </trkpt>
      <trkpt lat="45.25823" lon="6.03123">
        <ele>2021.4560546875</ele>
        <time>2017-11-10T08:19:40Z</time>
      </trkpt>
      <trkpt lat="45.25821" lon="6.0313">
        <ele>2023.4560546875</ele>
        <time>2017-11-10T08:19:48Z</time>
      </trkpt>
      <trkpt lat="45.2582" lon="6.03137">
        <ele>2023.4560546875</ele>
        <time>2017-11-10T08:19:56Z</time>
      </trkpt>
      <trkpt lat="45.25819" lon="6.03143">
        <ele>2024.4560546875</ele>
        <time>2017-11-10T08:20:10Z</time>
      </trkpt>
      <trkpt lat="45.25818" lon="6.0315">
        <ele>2027.4560546875</ele>
        <time>2017-11-10T08:20:16Z</time>
      </trkpt>
      <trkpt lat="45.25817" lon="6.03157">
        <ele>2030.4560546875</ele>
        <time>2017-11-10T08:20:28Z</time>
      </trkpt>
      <trkpt lat="45.25815" lon="6.03163">
        <ele>2042.4560546875</ele>
        <time>2017-11-10T08:20:35Z</time>
      </trkpt>
      <trkpt lat="45.25813" lon="6.03169">
        <ele>2034.4560546875</ele>
        <time>2017-11-10T08:20:45Z</time>
      </trkpt>
      <trkpt lat="45.25811" lon="6.03175">
        <ele>2036.4560546875</ele>
        <time>2017-11-10T08:20:54Z</time>
      </trkpt>
      <trkpt lat="45.25809" lon="6.03182">
        <ele>2039.4560546875</ele>
        <time>2017-11-10T08:21:00Z</time>
      </trkpt>
      <trkpt lat="45.25806" lon="6.03188">
        <ele>2040.4560546875</ele>
        <time>2017-11-10T08:21:07Z</time>
      </trkpt>
      <trkpt lat="45.25803" lon="6.03192">
        <ele>2041.4560546875</ele>
        <time>2017-11-10T08:21:13Z</time>
      </trkpt>
      <trkpt lat="45.25799" lon="6.03196">
        <ele>2042.4560546875</ele>
        <time>2017-11-10T08:21:19Z</time>
      </trkpt>
      <trkpt lat="45.25795" lon="6.03201">
        <ele>2044.4560546875</ele>
        <time>2017-11-10T08:21:27Z</time>
      </trkpt>
      <trkpt lat="45.25791" lon="6.03204">
        <ele>2047.4560546875</ele>
        <time>2017-11-10T08:21:33Z</time>
      </trkpt>
      <trkpt lat="45.25786" lon="6.03205">
        <ele>2048.4560546875</ele>
        <time>2017-11-10T08:21:39Z</time>
      </trkpt>
      <trkpt lat="45.25781" lon="6.03206">
        <ele>2049.4560546875</ele>
        <time>2017-11-10T08:21:45Z</time>
      </trkpt>
      <trkpt lat="45.25777" lon="6.03209">
        <ele>2049.4560546875</ele>
        <time>2017-11-10T08:21:51Z</time>
      </trkpt>
      <trkpt lat="45.25772" lon="6.0321">
        <ele>2049.4560546875</ele>
        <time>2017-11-10T08:21:56Z</time>
      </trkpt>
      <trkpt lat="45.25767" lon="6.03211">
        <ele>2050.4560546875</ele>
        <time>2017-11-10T08:22:01Z</time>
      </trkpt>
      <trkpt lat="45.25763" lon="6.03209">
        <ele>2052.4560546875</ele>
        <time>2017-11-10T08:23:04Z</time>
      </trkpt>
      <trkpt lat="45.25758" lon="6.03207">
        <ele>2055.4560546875</ele>
        <time>2017-11-10T08:24:08Z</time>
      </trkpt>
      <trkpt lat="45.25753" lon="6.03203">
        <ele>2056.4560546875</ele>
        <time>2017-11-10T08:24:11Z</time>
      </trkpt>
      <trkpt lat="45.25747" lon="6.03199">
        <ele>2055.4560546875</ele>
        <time>2017-11-10T08:24:16Z</time>
      </trkpt>
      <trkpt lat="45.25743" lon="6.03199">
        <ele>2055.4560546875</ele>
        <time>2017-11-10T08:24:22Z</time>
      </trkpt>
      <trkpt lat="45.25737" lon="6.03197">
        <ele>2056.4560546875</ele>
        <time>2017-11-10T08:24:27Z</time>
      </trkpt>
      <trkpt lat="45.25733" lon="6.03194">
        <ele>2057.4560546875</ele>
        <time>2017-11-10T08:24:30Z</time>
      </trkpt>
      <trkpt lat="45.25727" lon="6.03193">
        <ele>2057.4560546875</ele>
        <time>2017-11-10T08:24:34Z</time>
      </trkpt>
      <trkpt lat="45.25722" lon="6.03193">
        <ele>2057.4560546875</ele>
        <time>2017-11-10T08:24:46Z</time>
      </trkpt>
      <trkpt lat="45.25718" lon="6.03191">
        <ele>2058.4560546875</ele>
        <time>2017-11-10T08:24:50Z</time>
      </trkpt>
      <trkpt lat="45.25713" lon="6.03192">
        <ele>2058.4560546875</ele>
        <time>2017-11-10T08:24:55Z</time>
      </trkpt>
      <trkpt lat="45.25708" lon="6.03188">
        <ele>2059.4560546875</ele>
        <time>2017-11-10T08:25:00Z</time>
      </trkpt>
      <trkpt lat="45.25705" lon="6.03184">
        <ele>2056.4560546875</ele>
        <time>2017-11-10T08:25:04Z</time>
      </trkpt>
      <trkpt lat="45.257" lon="6.03181">
        <ele>2056.4560546875</ele>
        <time>2017-11-10T08:25:07Z</time>
      </trkpt>
      <trkpt lat="45.25693" lon="6.0318">
        <ele>2056.4560546875</ele>
        <time>2017-11-10T08:25:11Z</time>
      </trkpt>
      <trkpt lat="45.25689" lon="6.03181">
        <ele>2058.4560546875</ele>
        <time>2017-11-10T08:25:17Z</time>
      </trkpt>
      <trkpt lat="45.25683" lon="6.03183">
        <ele>2061.4560546875</ele>
        <time>2017-11-10T08:25:26Z</time>
      </trkpt>
      <trkpt lat="45.25678" lon="6.03184">
        <ele>2058.4560546875</ele>
        <time>2017-11-10T08:25:35Z</time>
      </trkpt>
      <trkpt lat="45.25672" lon="6.03184">
        <ele>2061.4560546875</ele>
        <time>2017-11-10T08:25:41Z</time>
      </trkpt>
      <trkpt lat="45.25668" lon="6.03184">
        <ele>2065.4560546875</ele>
        <time>2017-11-10T08:25:45Z</time>
      </trkpt>
      <trkpt lat="45.25663" lon="6.03183">
        <ele>2068.4560546875</ele>
        <time>2017-11-10T08:25:54Z</time>
      </trkpt>
      <trkpt lat="45.25657" lon="6.03182">
        <ele>2071.4560546875</ele>
        <time>2017-11-10T08:26:02Z</time>
      </trkpt>
      <trkpt lat="45.25653" lon="6.0318">
        <ele>2074.4560546875</ele>
        <time>2017-11-10T08:26:11Z</time>
      </trkpt>
      <trkpt lat="45.25648" lon="6.03177">
        <ele>2074.4560546875</ele>
        <time>2017-11-10T08:26:15Z</time>
      </trkpt>
      <trkpt lat="45.25643" lon="6.03176">
        <ele>2065.4560546875</ele>
        <time>2017-11-10T08:26:20Z</time>
      </trkpt>
      <trkpt lat="45.25639" lon="6.03173">
        <ele>2077.4560546875</ele>
        <time>2017-11-10T08:26:29Z</time>
      </trkpt>
      <trkpt lat="45.25635" lon="6.03169">
        <ele>2082.4560546875</ele>
        <time>2017-11-10T08:26:33Z</time>
      </trkpt>
      <trkpt lat="45.2563" lon="6.03164">
        <ele>2084.4560546875</ele>
        <time>2017-11-10T08:26:41Z</time>
      </trkpt>
      <trkpt lat="45.25627" lon="6.0316">
        <ele>2085.4560546875</ele>
        <time>2017-11-10T08:26:46Z</time>
      </trkpt>
      <trkpt lat="45.25624" lon="6.03155">
        <ele>2085.4560546875</ele>
        <time>2017-11-10T08:26:56Z</time>
      </trkpt>
      <trkpt lat="45.25619" lon="6.0315">
        <ele>2087.4560546875</ele>
        <time>2017-11-10T08:27:02Z</time>
      </trkpt>
      <trkpt lat="45.25614" lon="6.03148">
        <ele>2090.4560546875</ele>
        <time>2017-11-10T08:27:08Z</time>
      </trkpt>
      <trkpt lat="45.2561" lon="6.03147">
        <ele>2091.4560546875</ele>
        <time>2017-11-10T08:27:11Z</time>
      </trkpt>
      <trkpt lat="45.25604" lon="6.0315">
        <ele>2092.4560546875</ele>
        <time>2017-11-10T08:27:15Z</time>
      </trkpt>
      <trkpt lat="45.25601" lon="6.03158">
        <ele>2093.4560546875</ele>
        <time>2017-11-10T08:27:21Z</time>
      </trkpt>
      <trkpt lat="45.25598" lon="6.03164">
        <ele>2092.4560546875</ele>
        <time>2017-11-10T08:27:24Z</time>
      </trkpt>
      <trkpt lat="45.25594" lon="6.03169">
        <ele>2090.4560546875</ele>
        <time>2017-11-10T08:27:28Z</time>
      </trkpt>
      <trkpt lat="45.25591" lon="6.03176">
        <ele>2091.4560546875</ele>
        <time>2017-11-10T08:27:32Z</time>
      </trkpt>
      <trkpt lat="45.25588" lon="6.03182">
        <ele>2094.4560546875</ele>
        <time>2017-11-10T08:27:36Z</time>
      </trkpt>
      <trkpt lat="45.25585" lon="6.03187">
        <ele>2093.4560546875</ele>
        <time>2017-11-10T08:27:40Z</time>
      </trkpt>
      <trkpt lat="45.25584" lon="6.03194">
        <ele>2094.4560546875</ele>
        <time>2017-11-10T08:27:44Z</time>
      </trkpt>
      <trkpt lat="45.2558" lon="6.03199">
        <ele>2094.4560546875</ele>
        <time>2017-11-10T08:27:49Z</time>
      </trkpt>
      <trkpt lat="45.25578" lon="6.03205">
        <ele>2094.4560546875</ele>
        <time>2017-11-10T08:27:54Z</time>
      </trkpt>
      <trkpt lat="45.25577" lon="6.03211">
        <ele>2094.4560546875</ele>
        <time>2017-11-10T08:27:58Z</time>
      </trkpt>
      <trkpt lat="45.25573" lon="6.03216">
        <ele>2094.4560546875</ele>
        <time>2017-11-10T08:28:02Z</time>
      </trkpt>
      <trkpt lat="45.2557" lon="6.03221">
        <ele>2097.4560546875</ele>
        <time>2017-11-10T08:28:06Z</time>
      </trkpt>
      <trkpt lat="45.25566" lon="6.03224">
        <ele>2096.4560546875</ele>
        <time>2017-11-10T08:28:10Z</time>
      </trkpt>
      <trkpt lat="45.25562" lon="6.0323">
        <ele>2099.4560546875</ele>
        <time>2017-11-10T08:28:14Z</time>
      </trkpt>
      <trkpt lat="45.2556" lon="6.03236">
        <ele>2102.4560546875</ele>
        <time>2017-11-10T08:28:18Z</time>
      </trkpt>
      <trkpt lat="45.25557" lon="6.03242">
        <ele>2101.4560546875</ele>
        <time>2017-11-10T08:28:23Z</time>
      </trkpt>
      <trkpt lat="45.25556" lon="6.03249">
        <ele>2102.4560546875</ele>
        <time>2017-11-10T08:28:28Z</time>
      </trkpt>
      <trkpt lat="45.25553" lon="6.03255">
        <ele>2104.4560546875</ele>
        <time>2017-11-10T08:28:34Z</time>
      </trkpt>
      <trkpt lat="45.2555" lon="6.03261">
        <ele>2105.4560546875</ele>
        <time>2017-11-10T08:28:38Z</time>
      </trkpt>
      <trkpt lat="45.25547" lon="6.03266">
        <ele>2107.4560546875</ele>
        <time>2017-11-10T08:28:43Z</time>
      </trkpt>
      <trkpt lat="45.25544" lon="6.03272">
        <ele>2108.4560546875</ele>
        <time>2017-11-10T08:28:48Z</time>
      </trkpt>
      <trkpt lat="45.25541" lon="6.03279">
        <ele>2111.4560546875</ele>
        <time>2017-11-10T08:28:55Z</time>
      </trkpt>
      <trkpt lat="45.25538" lon="6.03284">
        <ele>2111.4560546875</ele>
        <time>2017-11-10T08:28:59Z</time>
      </trkpt>
      <trkpt lat="45.25536" lon="6.0329">
        <ele>2113.4560546875</ele>
        <time>2017-11-10T08:29:03Z</time>
      </trkpt>
      <trkpt lat="45.25534" lon="6.03296">
        <ele>2112.4560546875</ele>
        <time>2017-11-10T08:29:08Z</time>
      </trkpt>
      <trkpt lat="45.25532" lon="6.03303">
        <ele>2114.4560546875</ele>
        <time>2017-11-10T08:29:12Z</time>
      </trkpt>
      <trkpt lat="45.25531" lon="6.03311">
        <ele>2117.4560546875</ele>
        <time>2017-11-10T08:29:19Z</time>
      </trkpt>
      <trkpt lat="45.25529" lon="6.03317">
        <ele>2119.4560546875</ele>
        <time>2017-11-10T08:29:23Z</time>
      </trkpt>
      <trkpt lat="45.25527" lon="6.03325">
        <ele>2119.4560546875</ele>
        <time>2017-11-10T08:29:28Z</time>
      </trkpt>
      <trkpt lat="45.25524" lon="6.03329">
        <ele>2119.4560546875</ele>
        <time>2017-11-10T08:29:36Z</time>
      </trkpt>
      <trkpt lat="45.25521" lon="6.03334">
        <ele>2120.4560546875</ele>
        <time>2017-11-10T08:29:40Z</time>
      </trkpt>
      <trkpt lat="45.2552" lon="6.03342">
        <ele>2121.4560546875</ele>
        <time>2017-11-10T08:29:44Z</time>
      </trkpt>
      <trkpt lat="45.25519" lon="6.0335">
        <ele>2122.4560546875</ele>
        <time>2017-11-10T08:29:48Z</time>
      </trkpt>
      <trkpt lat="45.25516" lon="6.03357">
        <ele>2122.4560546875</ele>
        <time>2017-11-10T08:29:53Z</time>
      </trkpt>
      <trkpt lat="45.25512" lon="6.03361">
        <ele>2124.4560546875</ele>
        <time>2017-11-10T08:29:58Z</time>
      </trkpt>
      <trkpt lat="45.25508" lon="6.03365">
        <ele>2126.4560546875</ele>
        <time>2017-11-10T08:30:03Z</time>
      </trkpt>
      <trkpt lat="45.25503" lon="6.03363">
        <ele>2125.4560546875</ele>
        <time>2017-11-10T08:30:09Z</time>
      </trkpt>
      <trkpt lat="45.25499" lon="6.0336">
        <ele>2125.4560546875</ele>
        <time>2017-11-10T08:30:15Z</time>
      </trkpt>
      <trkpt lat="45.25494" lon="6.03358">
        <ele>2123.4560546875</ele>
        <time>2017-11-10T08:30:20Z</time>
      </trkpt>
      <trkpt lat="45.25492" lon="6.03351">
        <ele>2126.4560546875</ele>
        <time>2017-11-10T08:30:28Z</time>
      </trkpt>
      <trkpt lat="45.25489" lon="6.03345">
        <ele>2125.4560546875</ele>
        <time>2017-11-10T08:30:38Z</time>
      </trkpt>
      <trkpt lat="45.25486" lon="6.0334">
        <ele>2127.4560546875</ele>
        <time>2017-11-10T08:30:44Z</time>
      </trkpt>
      <trkpt lat="45.25482" lon="6.03334">
        <ele>2126.4560546875</ele>
        <time>2017-11-10T08:30:50Z</time>
      </trkpt>
      <trkpt lat="45.25478" lon="6.03329">
        <ele>2131.4560546875</ele>
        <time>2017-11-10T08:30:58Z</time>
      </trkpt>
      <trkpt lat="45.25475" lon="6.03322">
        <ele>2130.4560546875</ele>
        <time>2017-11-10T08:31:04Z</time>
      </trkpt>
      <trkpt lat="45.25474" lon="6.03316">
        <ele>2131.455078125</ele>
        <time>2017-11-10T08:31:08Z</time>
      </trkpt>
      <trkpt lat="45.25473" lon="6.03308">
        <ele>2132.455078125</ele>
        <time>2017-11-10T08:31:14Z</time>
      </trkpt>
      <trkpt lat="45.25473" lon="6.033">
        <ele>2130.455078125</ele>
        <time>2017-11-10T08:31:18Z</time>
      </trkpt>
      <trkpt lat="45.25474" lon="6.03294">
        <ele>2133.455078125</ele>
        <time>2017-11-10T08:31:24Z</time>
      </trkpt>
      <trkpt lat="45.25472" lon="6.03287">
        <ele>2134.455078125</ele>
        <time>2017-11-10T08:31:30Z</time>
      </trkpt>
      <trkpt lat="45.25475" lon="6.03282">
        <ele>2139.455078125</ele>
        <time>2017-11-10T08:31:35Z</time>
      </trkpt>
      <trkpt lat="45.25477" lon="6.03275">
        <ele>2142.455078125</ele>
        <time>2017-11-10T08:31:39Z</time>
      </trkpt>
      <trkpt lat="45.25476" lon="6.03267">
        <ele>2146.455078125</ele>
        <time>2017-11-10T08:31:43Z</time>
      </trkpt>
      <trkpt lat="45.25477" lon="6.0326">
        <ele>2148.455078125</ele>
        <time>2017-11-10T08:31:49Z</time>
      </trkpt>
      <trkpt lat="45.2548" lon="6.03253">
        <ele>2150.455078125</ele>
        <time>2017-11-10T08:31:54Z</time>
      </trkpt>
      <trkpt lat="45.25482" lon="6.03246">
        <ele>2150.455078125</ele>
        <time>2017-11-10T08:32:00Z</time>
      </trkpt>
      <trkpt lat="45.25484" lon="6.03239">
        <ele>2152.455078125</ele>
        <time>2017-11-10T08:32:07Z</time>
      </trkpt>
      <trkpt lat="45.25487" lon="6.03234">
        <ele>2155.455078125</ele>
        <time>2017-11-10T08:32:13Z</time>
      </trkpt>
      <trkpt lat="45.2549" lon="6.03228">
        <ele>2157.455078125</ele>
        <time>2017-11-10T08:32:21Z</time>
      </trkpt>
      <trkpt lat="45.25493" lon="6.03221">
        <ele>2161.455078125</ele>
        <time>2017-11-10T08:32:28Z</time>
      </trkpt>
      <trkpt lat="45.25493" lon="6.03215">
        <ele>2163.455078125</ele>
        <time>2017-11-10T08:32:35Z</time>
      </trkpt>
      <trkpt lat="45.25492" lon="6.03208">
        <ele>2164.455078125</ele>
        <time>2017-11-10T08:32:44Z</time>
      </trkpt>
      <trkpt lat="45.25491" lon="6.03201">
        <ele>2146.455078125</ele>
        <time>2017-11-10T08:32:52Z</time>
      </trkpt>
      <trkpt lat="45.25487" lon="6.03199">
        <ele>2159.455078125</ele>
        <time>2017-11-10T08:33:01Z</time>
      </trkpt>
      <trkpt lat="45.25481" lon="6.03201">
        <ele>2164.455078125</ele>
        <time>2017-11-10T08:33:09Z</time>
      </trkpt>
      <trkpt lat="45.25477" lon="6.03204">
        <ele>2166.455078125</ele>
        <time>2017-11-10T08:33:16Z</time>
      </trkpt>
      <trkpt lat="45.25474" lon="6.03209">
        <ele>2168.455078125</ele>
        <time>2017-11-10T08:33:22Z</time>
      </trkpt>
      <trkpt lat="45.25469" lon="6.03206">
        <ele>2171.455078125</ele>
        <time>2017-11-10T08:33:35Z</time>
      </trkpt>
      <trkpt lat="45.25466" lon="6.032">
        <ele>2175.455078125</ele>
        <time>2017-11-10T08:33:44Z</time>
      </trkpt>
      <trkpt lat="45.25463" lon="6.03194">
        <ele>2177.455078125</ele>
        <time>2017-11-10T08:33:50Z</time>
      </trkpt>
      <trkpt lat="45.2546" lon="6.0319">
        <ele>2179.455078125</ele>
        <time>2017-11-10T08:33:56Z</time>
      </trkpt>
      <trkpt lat="45.25456" lon="6.03195">
        <ele>2180.455078125</ele>
        <time>2017-11-10T08:34:02Z</time>
      </trkpt>
      <trkpt lat="45.25453" lon="6.03202">
        <ele>2181.455078125</ele>
        <time>2017-11-10T08:34:11Z</time>
      </trkpt>
      <trkpt lat="45.2545" lon="6.03208">
        <ele>2183.455078125</ele>
        <time>2017-11-10T08:34:18Z</time>
      </trkpt>
      <trkpt lat="45.25448" lon="6.03214">
        <ele>2185.455078125</ele>
        <time>2017-11-10T08:34:25Z</time>
      </trkpt>
      <trkpt lat="45.25443" lon="6.03215">
        <ele>2188.455078125</ele>
        <time>2017-11-10T08:34:36Z</time>
      </trkpt>
      <trkpt lat="45.25438" lon="6.03214">
        <ele>2193.455078125</ele>
        <time>2017-11-10T08:34:46Z</time>
      </trkpt>
      <trkpt lat="45.25433" lon="6.03215">
        <ele>2195.455078125</ele>
        <time>2017-11-10T08:34:56Z</time>
      </trkpt>
      <trkpt lat="45.25432" lon="6.03223">
        <ele>2196.455078125</ele>
        <time>2017-11-10T08:35:02Z</time>
      </trkpt>
      <trkpt lat="45.25432" lon="6.0323">
        <ele>2197.455078125</ele>
        <time>2017-11-10T08:35:10Z</time>
      </trkpt>
      <trkpt lat="45.25431" lon="6.03236">
        <ele>2198.455078125</ele>
        <time>2017-11-10T08:35:16Z</time>
      </trkpt>
      <trkpt lat="45.25426" lon="6.03236">
        <ele>2200.455078125</ele>
        <time>2017-11-10T08:35:31Z</time>
      </trkpt>
      <trkpt lat="45.25422" lon="6.03236">
        <ele>2202.455078125</ele>
        <time>2017-11-10T08:35:39Z</time>
      </trkpt>
      <trkpt lat="45.25417" lon="6.03238">
        <ele>2204.455078125</ele>
        <time>2017-11-10T08:35:47Z</time>
      </trkpt>
      <trkpt lat="45.25414" lon="6.03242">
        <ele>2205.455078125</ele>
        <time>2017-11-10T08:35:55Z</time>
      </trkpt>
      <trkpt lat="45.25411" lon="6.03249">
        <ele>2209.455078125</ele>
        <time>2017-11-10T08:36:04Z</time>
      </trkpt>
      <trkpt lat="45.25406" lon="6.03249">
        <ele>2211.455078125</ele>
        <time>2017-11-10T08:36:20Z</time>
      </trkpt>
      <trkpt lat="45.25402" lon="6.03253">
        <ele>2213.455078125</ele>
        <time>2017-11-10T08:36:29Z</time>
      </trkpt>
      <trkpt lat="45.25399" lon="6.03259">
        <ele>2215.455078125</ele>
        <time>2017-11-10T08:36:38Z</time>
      </trkpt>
      <trkpt lat="45.25397" lon="6.03265">
        <ele>2215.455078125</ele>
        <time>2017-11-10T08:36:45Z</time>
      </trkpt>
      <trkpt lat="45.25393" lon="6.0327">
        <ele>2217.455078125</ele>
        <time>2017-11-10T08:36:52Z</time>
      </trkpt>
      <trkpt lat="45.25389" lon="6.03273">
        <ele>2219.455078125</ele>
        <time>2017-11-10T08:37:02Z</time>
      </trkpt>
      <trkpt lat="45.25386" lon="6.03278">
        <ele>2221.455078125</ele>
        <time>2017-11-10T08:37:08Z</time>
      </trkpt>
      <trkpt lat="45.25382" lon="6.03284">
        <ele>2222.455078125</ele>
        <time>2017-11-10T08:37:15Z</time>
      </trkpt>
      <trkpt lat="45.25381" lon="6.0329">
        <ele>2223.455078125</ele>
        <time>2017-11-10T08:37:22Z</time>
      </trkpt>
      <trkpt lat="45.25376" lon="6.0329">
        <ele>2225.455078125</ele>
        <time>2017-11-10T08:37:29Z</time>
      </trkpt>
      <trkpt lat="45.25372" lon="6.03289">
        <ele>2225.455078125</ele>
        <time>2017-11-10T08:37:37Z</time>
      </trkpt>
      <trkpt lat="45.25367" lon="6.03286">
        <ele>2228.455078125</ele>
        <time>2017-11-10T08:37:44Z</time>
      </trkpt>
      <trkpt lat="45.25362" lon="6.03284">
        <ele>2230.455078125</ele>
        <time>2017-11-10T08:37:51Z</time>
      </trkpt>
      <trkpt lat="45.25358" lon="6.03281">
        <ele>2231.455078125</ele>
        <time>2017-11-10T08:37:58Z</time>
      </trkpt>
      <trkpt lat="45.25354" lon="6.03277">
        <ele>2232.455078125</ele>
        <time>2017-11-10T08:38:07Z</time>
      </trkpt>
      <trkpt lat="45.25351" lon="6.03271">
        <ele>2233.455078125</ele>
        <time>2017-11-10T08:38:13Z</time>
      </trkpt>
      <trkpt lat="45.25347" lon="6.03267">
        <ele>2234.455078125</ele>
        <time>2017-11-10T08:38:19Z</time>
      </trkpt>
      <trkpt lat="45.25345" lon="6.03261">
        <ele>2234.455078125</ele>
        <time>2017-11-10T08:38:30Z</time>
      </trkpt>
      <trkpt lat="45.25345" lon="6.03254">
        <ele>2235.455078125</ele>
        <time>2017-11-10T08:38:38Z</time>
      </trkpt>
      <trkpt lat="45.25349" lon="6.03251">
        <ele>2234.455078125</ele>
        <time>2017-11-10T08:42:10Z</time>
      </trkpt>
      <trkpt lat="45.25354" lon="6.03248">
        <ele>2236.455078125</ele>
        <time>2017-11-10T08:42:19Z</time>
      </trkpt>
      <trkpt lat="45.2535" lon="6.03253">
        <ele>2237.455078125</ele>
        <time>2017-11-10T08:43:19Z</time>
      </trkpt>
      <trkpt lat="45.25348" lon="6.03259">
        <ele>2246.455078125</ele>
        <time>2017-11-10T08:45:53Z</time>
      </trkpt>
      <trkpt lat="45.2535" lon="6.03265">
        <ele>2242.455078125</ele>
        <time>2017-11-10T08:46:14Z</time>
      </trkpt>
      <trkpt lat="45.25353" lon="6.03269">
        <ele>2238.455078125</ele>
        <time>2017-11-10T08:46:31Z</time>
      </trkpt>
      <trkpt lat="45.25358" lon="6.03272">
        <ele>2240.455078125</ele>
        <time>2017-11-10T08:47:49Z</time>
      </trkpt>
      <trkpt lat="45.25365" lon="6.03277">
        <ele>2239.455078125</ele>
        <time>2017-11-10T08:47:51Z</time>
      </trkpt>
      <trkpt lat="45.25373" lon="6.03275">
        <ele>2237.455078125</ele>
        <time>2017-11-10T08:47:53Z</time>
      </trkpt>
      <trkpt lat="45.25386" lon="6.03266">
        <ele>2231.455078125</ele>
        <time>2017-11-10T08:47:56Z</time>
      </trkpt>
      <trkpt lat="45.25393" lon="6.03255">
        <ele>2226.455078125</ele>
        <time>2017-11-10T08:47:58Z</time>
      </trkpt>
      <trkpt lat="45.25398" lon="6.03243">
        <ele>2222.455078125</ele>
        <time>2017-11-10T08:48:00Z</time>
      </trkpt>
      <trkpt lat="45.25405" lon="6.03237">
        <ele>2215.455078125</ele>
        <time>2017-11-10T08:48:02Z</time>
      </trkpt>
      <trkpt lat="45.25414" lon="6.03237">
        <ele>2224.455078125</ele>
        <time>2017-11-10T08:48:04Z</time>
      </trkpt>
      <trkpt lat="45.25423" lon="6.03232">
        <ele>2214.455078125</ele>
        <time>2017-11-10T08:48:06Z</time>
      </trkpt>
      <trkpt lat="45.25432" lon="6.03222">
        <ele>2207.455078125</ele>
        <time>2017-11-10T08:48:08Z</time>
      </trkpt>
      <trkpt lat="45.25439" lon="6.03211">
        <ele>2200.455078125</ele>
        <time>2017-11-10T08:48:10Z</time>
      </trkpt>
      <trkpt lat="45.25446" lon="6.03202">
        <ele>2197.455078125</ele>
        <time>2017-11-10T08:48:12Z</time>
      </trkpt>
      <trkpt lat="45.25454" lon="6.03197">
        <ele>2194.455078125</ele>
        <time>2017-11-10T08:48:14Z</time>
      </trkpt>
      <trkpt lat="45.25465" lon="6.03195">
        <ele>2191.455078125</ele>
        <time>2017-11-10T08:48:16Z</time>
      </trkpt>
      <trkpt lat="45.25475" lon="6.03193">
        <ele>2185.455078125</ele>
        <time>2017-11-10T08:48:18Z</time>
      </trkpt>
      <trkpt lat="45.25487" lon="6.03189">
        <ele>2180.455078125</ele>
        <time>2017-11-10T08:48:21Z</time>
      </trkpt>
      <trkpt lat="45.25495" lon="6.03193">
        <ele>2178.455078125</ele>
        <time>2017-11-10T08:48:23Z</time>
      </trkpt>
      <trkpt lat="45.255" lon="6.03204">
        <ele>2175.455078125</ele>
        <time>2017-11-10T08:48:25Z</time>
      </trkpt>
      <trkpt lat="45.25498" lon="6.03217">
        <ele>2173.455078125</ele>
        <time>2017-11-10T08:48:27Z</time>
      </trkpt>
      <trkpt lat="45.25496" lon="6.03234">
        <ele>2170.455078125</ele>
        <time>2017-11-10T08:48:29Z</time>
      </trkpt>
      <trkpt lat="45.25494" lon="6.03246">
        <ele>2169.455078125</ele>
        <time>2017-11-10T08:48:31Z</time>
      </trkpt>
      <trkpt lat="45.25486" lon="6.03257">
        <ele>2167.455078125</ele>
        <time>2017-11-10T08:48:33Z</time>
      </trkpt>
      <trkpt lat="45.25483" lon="6.03274">
        <ele>2167.455078125</ele>
        <time>2017-11-10T08:48:35Z</time>
      </trkpt>
      <trkpt lat="45.25484" lon="6.03281">
        <ele>2165.455078125</ele>
        <time>2017-11-10T08:48:36Z</time>
      </trkpt>
      <trkpt lat="45.25483" lon="6.03302">
        <ele>2163.455078125</ele>
        <time>2017-11-10T08:48:38Z</time>
      </trkpt>
      <trkpt lat="45.25491" lon="6.03319">
        <ele>2156.4560546875</ele>
        <time>2017-11-10T08:48:41Z</time>
      </trkpt>
      <trkpt lat="45.25501" lon="6.03329">
        <ele>2152.4560546875</ele>
        <time>2017-11-10T08:48:43Z</time>
      </trkpt>
      <trkpt lat="45.25515" lon="6.0333">
        <ele>2144.4560546875</ele>
        <time>2017-11-10T08:48:46Z</time>
      </trkpt>
      <trkpt lat="45.25526" lon="6.03321">
        <ele>2142.4560546875</ele>
        <time>2017-11-10T08:48:48Z</time>
      </trkpt>
      <trkpt lat="45.25537" lon="6.03311">
        <ele>2136.4560546875</ele>
        <time>2017-11-10T08:48:50Z</time>
      </trkpt>
      <trkpt lat="45.25544" lon="6.03292">
        <ele>2133.4560546875</ele>
        <time>2017-11-10T08:48:52Z</time>
      </trkpt>
      <trkpt lat="45.25552" lon="6.03272">
        <ele>2128.4560546875</ele>
        <time>2017-11-10T08:48:54Z</time>
      </trkpt>
      <trkpt lat="45.25558" lon="6.03251">
        <ele>2125.4560546875</ele>
        <time>2017-11-10T08:48:56Z</time>
      </trkpt>
      <trkpt lat="45.25568" lon="6.03231">
        <ele>2122.4560546875</ele>
        <time>2017-11-10T08:48:58Z</time>
      </trkpt>
      <trkpt lat="45.25582" lon="6.03215">
        <ele>2116.4560546875</ele>
        <time>2017-11-10T08:49:00Z</time>
      </trkpt>
      <trkpt lat="45.25586" lon="6.03204">
        <ele>2115.4560546875</ele>
        <time>2017-11-10T08:49:01Z</time>
      </trkpt>
      <trkpt lat="45.25596" lon="6.03188">
        <ele>2113.4560546875</ele>
        <time>2017-11-10T08:49:03Z</time>
      </trkpt>
      <trkpt lat="45.25608" lon="6.03176">
        <ele>2110.4560546875</ele>
        <time>2017-11-10T08:49:05Z</time>
      </trkpt>
      <trkpt lat="45.25614" lon="6.03157">
        <ele>2107.4560546875</ele>
        <time>2017-11-10T08:49:07Z</time>
      </trkpt>
      <trkpt lat="45.25624" lon="6.03154">
        <ele>2105.4560546875</ele>
        <time>2017-11-10T08:49:09Z</time>
      </trkpt>
      <trkpt lat="45.25634" lon="6.03163">
        <ele>2100.4560546875</ele>
        <time>2017-11-10T08:49:11Z</time>
      </trkpt>
      <trkpt lat="45.25646" lon="6.03172">
        <ele>2094.4560546875</ele>
        <time>2017-11-10T08:49:13Z</time>
      </trkpt>
      <trkpt lat="45.25661" lon="6.03182">
        <ele>2092.4560546875</ele>
        <time>2017-11-10T08:49:15Z</time>
      </trkpt>
      <trkpt lat="45.25682" lon="6.03188">
        <ele>2086.4560546875</ele>
        <time>2017-11-10T08:49:17Z</time>
      </trkpt>
      <trkpt lat="45.25692" lon="6.03185">
        <ele>2083.4560546875</ele>
        <time>2017-11-10T08:49:18Z</time>
      </trkpt>
      <trkpt lat="45.25713" lon="6.03192">
        <ele>2081.4560546875</ele>
        <time>2017-11-10T08:49:20Z</time>
      </trkpt>
      <trkpt lat="45.25721" lon="6.0319">
        <ele>2081.4560546875</ele>
        <time>2017-11-10T08:49:21Z</time>
      </trkpt>
      <trkpt lat="45.2573" lon="6.03193">
        <ele>2077.4560546875</ele>
        <time>2017-11-10T08:49:22Z</time>
      </trkpt>
      <trkpt lat="45.25747" lon="6.03192">
        <ele>2074.4560546875</ele>
        <time>2017-11-10T08:49:24Z</time>
      </trkpt>
      <trkpt lat="45.25765" lon="6.032">
        <ele>2069.4560546875</ele>
        <time>2017-11-10T08:49:26Z</time>
      </trkpt>
      <trkpt lat="45.25771" lon="6.03215">
        <ele>2065.4560546875</ele>
        <time>2017-11-10T08:49:28Z</time>
      </trkpt>
      <trkpt lat="45.25766" lon="6.03229">
        <ele>2060.4560546875</ele>
        <time>2017-11-10T08:49:30Z</time>
      </trkpt>
      <trkpt lat="45.25766" lon="6.03246">
        <ele>2059.4560546875</ele>
        <time>2017-11-10T08:49:32Z</time>
      </trkpt>
      <trkpt lat="45.25764" lon="6.03269">
        <ele>2054.4560546875</ele>
        <time>2017-11-10T08:49:34Z</time>
      </trkpt>
      <trkpt lat="45.25751" lon="6.03286">
        <ele>2047.4560546875</ele>
        <time>2017-11-10T08:49:36Z</time>
      </trkpt>
      <trkpt lat="45.25742" lon="6.03305">
        <ele>2044.4560546875</ele>
        <time>2017-11-10T08:49:38Z</time>
      </trkpt>
      <trkpt lat="45.25741" lon="6.03328">
        <ele>2041.4560546875</ele>
        <time>2017-11-10T08:49:40Z</time>
      </trkpt>
      <trkpt lat="45.25745" lon="6.03348">
        <ele>2039.4560546875</ele>
        <time>2017-11-10T08:49:42Z</time>
      </trkpt>
      <trkpt lat="45.25747" lon="6.03368">
        <ele>2037.4560546875</ele>
        <time>2017-11-10T08:49:44Z</time>
      </trkpt>
      <trkpt lat="45.25745" lon="6.03386">
        <ele>2035.4560546875</ele>
        <time>2017-11-10T08:49:46Z</time>
      </trkpt>
      <trkpt lat="45.25741" lon="6.03405">
        <ele>2032.4560546875</ele>
        <time>2017-11-10T08:49:48Z</time>
      </trkpt>
      <trkpt lat="45.25744" lon="6.03415">
        <ele>2030.4560546875</ele>
        <time>2017-11-10T08:49:49Z</time>
      </trkpt>
      <trkpt lat="45.25749" lon="6.03434">
        <ele>2029.4560546875</ele>
        <time>2017-11-10T08:49:51Z</time>
      </trkpt>
      <trkpt lat="45.25748" lon="6.03456">
        <ele>2024.4560546875</ele>
        <time>2017-11-10T08:49:53Z</time>
      </trkpt>
      <trkpt lat="45.25747" lon="6.03468">
        <ele>2023.4560546875</ele>
        <time>2017-11-10T08:49:54Z</time>
      </trkpt>
      <trkpt lat="45.25743" lon="6.03487">
        <ele>2017.4560546875</ele>
        <time>2017-11-10T08:49:56Z</time>
      </trkpt>
      <trkpt lat="45.25743" lon="6.03505">
        <ele>2014.4560546875</ele>
        <time>2017-11-10T08:49:58Z</time>
      </trkpt>
      <trkpt lat="45.25743" lon="6.03514">
        <ele>2010.4560546875</ele>
        <time>2017-11-10T08:49:59Z</time>
      </trkpt>
      <trkpt lat="45.25738" lon="6.03531">
        <ele>2002.4560546875</ele>
        <time>2017-11-10T08:50:01Z</time>
      </trkpt>
      <trkpt lat="45.2573" lon="6.03547">
        <ele>1997.4560546875</ele>
        <time>2017-11-10T08:50:03Z</time>
      </trkpt>
      <trkpt lat="45.25732" lon="6.03561">
        <ele>1995.4560546875</ele>
        <time>2017-11-10T08:50:04Z</time>
      </trkpt>
      <trkpt lat="45.25738" lon="6.036">
        <ele>1989.4560546875</ele>
        <time>2017-11-10T08:50:07Z</time>
      </trkpt>
      <trkpt lat="45.25745" lon="6.0362">
        <ele>1988.4560546875</ele>
        <time>2017-11-10T08:50:09Z</time>
      </trkpt>
      <trkpt lat="45.25755" lon="6.03636">
        <ele>1985.4560546875</ele>
        <time>2017-11-10T08:50:11Z</time>
      </trkpt>
      <trkpt lat="45.25759" lon="6.03648">
        <ele>1984.45703125</ele>
        <time>2017-11-10T08:50:12Z</time>
      </trkpt>
      <trkpt lat="45.2577" lon="6.03656">
        <ele>1983.45703125</ele>
        <time>2017-11-10T08:50:14Z</time>
      </trkpt>
      <trkpt lat="45.25775" lon="6.03671">
        <ele>1982.45703125</ele>
        <time>2017-11-10T08:50:16Z</time>
      </trkpt>
      <trkpt lat="45.25775" lon="6.03694">
        <ele>1981.45703125</ele>
        <time>2017-11-10T08:50:18Z</time>
      </trkpt>
      <trkpt lat="45.25782" lon="6.03709">
        <ele>1981.45703125</ele>
        <time>2017-11-10T08:50:20Z</time>
      </trkpt>
      <trkpt lat="45.25796" lon="6.03718">
        <ele>1976.45703125</ele>
        <time>2017-11-10T08:50:23Z</time>
      </trkpt>
      <trkpt lat="45.258" lon="6.03738">
        <ele>1974.45703125</ele>
        <time>2017-11-10T08:50:25Z</time>
      </trkpt>
      <trkpt lat="45.25799" lon="6.0375">
        <ele>1967.45703125</ele>
        <time>2017-11-10T08:50:26Z</time>
      </trkpt>
      <trkpt lat="45.25798" lon="6.03761">
        <ele>1965.45703125</ele>
        <time>2017-11-10T08:50:27Z</time>
      </trkpt>
      <trkpt lat="45.258" lon="6.03783">
        <ele>1962.45703125</ele>
        <time>2017-11-10T08:50:29Z</time>
      </trkpt>
      <trkpt lat="45.25801" lon="6.03805">
        <ele>1959.45703125</ele>
        <time>2017-11-10T08:50:31Z</time>
      </trkpt>
      <trkpt lat="45.25809" lon="6.03822">
        <ele>1958.45703125</ele>
        <time>2017-11-10T08:50:33Z</time>
      </trkpt>
      <trkpt lat="45.25821" lon="6.03836">
        <ele>1944.45703125</ele>
        <time>2017-11-10T08:50:35Z</time>
      </trkpt>
      <trkpt lat="45.25829" lon="6.03859">
        <ele>1938.45703125</ele>
        <time>2017-11-10T08:50:37Z</time>
      </trkpt>
      <trkpt lat="45.25835" lon="6.03876">
        <ele>1927.45703125</ele>
        <time>2017-11-10T08:50:39Z</time>
      </trkpt>
      <trkpt lat="45.25843" lon="6.03892">
        <ele>1923.45703125</ele>
        <time>2017-11-10T08:50:41Z</time>
      </trkpt>
      <trkpt lat="45.25849" lon="6.03907">
        <ele>1921.45703125</ele>
        <time>2017-11-10T08:50:43Z</time>
      </trkpt>
      <trkpt lat="45.2586" lon="6.03921">
        <ele>1915.45703125</ele>
        <time>2017-11-10T08:50:45Z</time>
      </trkpt>
      <trkpt lat="45.2587" lon="6.03933">
        <ele>1909.45703125</ele>
        <time>2017-11-10T08:50:47Z</time>
      </trkpt>
      <trkpt lat="45.25879" lon="6.03955">
        <ele>1907.45703125</ele>
        <time>2017-11-10T08:50:49Z</time>
      </trkpt>
      <trkpt lat="45.25886" lon="6.03977">
        <ele>1907.45703125</ele>
        <time>2017-11-10T08:50:51Z</time>
      </trkpt>
      <trkpt lat="45.25894" lon="6.03979">
        <ele>1897.45703125</ele>
        <time>2017-11-10T08:50:52Z</time>
      </trkpt>
      <trkpt lat="45.25909" lon="6.03998">
        <ele>1896.45703125</ele>
        <time>2017-11-10T08:50:54Z</time>
      </trkpt>
      <trkpt lat="45.25921" lon="6.04023">
        <ele>1888.45703125</ele>
        <time>2017-11-10T08:50:56Z</time>
      </trkpt>
      <trkpt lat="45.25937" lon="6.04047">
        <ele>1887.45703125</ele>
        <time>2017-11-10T08:50:58Z</time>
      </trkpt>
      <trkpt lat="45.25947" lon="6.04068">
        <ele>1880.45703125</ele>
        <time>2017-11-10T08:51:00Z</time>
      </trkpt>
      <trkpt lat="45.25954" lon="6.04086">
        <ele>1880.4580078125</ele>
        <time>2017-11-10T08:51:02Z</time>
      </trkpt>
      <trkpt lat="45.25958" lon="6.041">
        <ele>1880.4580078125</ele>
        <time>2017-11-10T08:51:04Z</time>
      </trkpt>
      <trkpt lat="45.25962" lon="6.0411">
        <ele>1881.4580078125</ele>
        <time>2017-11-10T08:51:06Z</time>
      </trkpt>
      <trkpt lat="45.25964" lon="6.04118">
        <ele>1881.4580078125</ele>
        <time>2017-11-10T08:51:08Z</time>
      </trkpt>
      <trkpt lat="45.25966" lon="6.04125">
        <ele>1880.4580078125</ele>
        <time>2017-11-10T08:51:10Z</time>
      </trkpt>
      <trkpt lat="45.25969" lon="6.04131">
        <ele>1876.4580078125</ele>
        <time>2017-11-10T08:51:14Z</time>
      </trkpt>
      <trkpt lat="45.25974" lon="6.04136">
        <ele>1869.4580078125</ele>
        <time>2017-11-10T08:51:18Z</time>
      </trkpt>
      <trkpt lat="45.25978" lon="6.0414">
        <ele>1867.4580078125</ele>
        <time>2017-11-10T08:51:20Z</time>
      </trkpt>
      <trkpt lat="45.25984" lon="6.0415">
        <ele>1865.4580078125</ele>
        <time>2017-11-10T08:51:22Z</time>
      </trkpt>
      <trkpt lat="45.25985" lon="6.04158">
        <ele>1864.4580078125</ele>
        <time>2017-11-10T08:51:23Z</time>
      </trkpt>
      <trkpt lat="45.25989" lon="6.04175">
        <ele>1862.4580078125</ele>
        <time>2017-11-10T08:51:25Z</time>
      </trkpt>
      <trkpt lat="45.25996" lon="6.04189">
        <ele>1855.4580078125</ele>
        <time>2017-11-10T08:51:27Z</time>
      </trkpt>
      <trkpt lat="45.25997" lon="6.04205">
        <ele>1854.4580078125</ele>
        <time>2017-11-10T08:51:29Z</time>
      </trkpt>
      <trkpt lat="45.26001" lon="6.04222">
        <ele>1849.4580078125</ele>
        <time>2017-11-10T08:51:31Z</time>
      </trkpt>
      <trkpt lat="45.26006" lon="6.04238">
        <ele>1846.4580078125</ele>
        <time>2017-11-10T08:51:33Z</time>
      </trkpt>
      <trkpt lat="45.26012" lon="6.04256">
        <ele>1843.4580078125</ele>
        <time>2017-11-10T08:51:35Z</time>
      </trkpt>
      <trkpt lat="45.26014" lon="6.04274">
        <ele>1835.4580078125</ele>
        <time>2017-11-10T08:51:37Z</time>
      </trkpt>
      <trkpt lat="45.26013" lon="6.04289">
        <ele>1830.4580078125</ele>
        <time>2017-11-10T08:51:39Z</time>
      </trkpt>
      <trkpt lat="45.26022" lon="6.04304">
        <ele>1827.4580078125</ele>
        <time>2017-11-10T08:51:41Z</time>
      </trkpt>
      <trkpt lat="45.26021" lon="6.04326">
        <ele>1825.4580078125</ele>
        <time>2017-11-10T08:51:43Z</time>
      </trkpt>
      <trkpt lat="45.26022" lon="6.04346">
        <ele>1821.4580078125</ele>
        <time>2017-11-10T08:51:45Z</time>
      </trkpt>
      <trkpt lat="45.26013" lon="6.04363">
        <ele>1817.4580078125</ele>
        <time>2017-11-10T08:51:47Z</time>
      </trkpt>
      <trkpt lat="45.26019" lon="6.04373">
        <ele>1812.4580078125</ele>
        <time>2017-11-10T08:51:51Z</time>
      </trkpt>
      <trkpt lat="45.2602" lon="6.0438">
        <ele>1812.4580078125</ele>
        <time>2017-11-10T08:51:53Z</time>
      </trkpt>
      <trkpt lat="45.26016" lon="6.04391">
        <ele>1809.4580078125</ele>
        <time>2017-11-10T08:51:55Z</time>
      </trkpt>
      <trkpt lat="45.26008" lon="6.04403">
        <ele>1806.4580078125</ele>
        <time>2017-11-10T08:51:57Z</time>
      </trkpt>
      <trkpt lat="45.26006" lon="6.0442">
        <ele>1804.4580078125</ele>
        <time>2017-11-10T08:51:59Z</time>
      </trkpt>
      <trkpt lat="45.26012" lon="6.0443">
        <ele>1801.4580078125</ele>
        <time>2017-11-10T08:52:01Z</time>
      </trkpt>
      <trkpt lat="45.26018" lon="6.04431">
        <ele>1799.4580078125</ele>
        <time>2017-11-10T08:52:02Z</time>
      </trkpt>
      <trkpt lat="45.26028" lon="6.04439">
        <ele>1795.4580078125</ele>
        <time>2017-11-10T08:52:04Z</time>
      </trkpt>
      <trkpt lat="45.26035" lon="6.04455">
        <ele>1792.4580078125</ele>
        <time>2017-11-10T08:52:07Z</time>
      </trkpt>
      <trkpt lat="45.26036" lon="6.0447">
        <ele>1790.4580078125</ele>
        <time>2017-11-10T08:52:09Z</time>
      </trkpt>
      <trkpt lat="45.2604" lon="6.04484">
        <ele>1789.4580078125</ele>
        <time>2017-11-10T08:52:11Z</time>
      </trkpt>
      <trkpt lat="45.26046" lon="6.04492">
        <ele>1787.4580078125</ele>
        <time>2017-11-10T08:52:13Z</time>
      </trkpt>
      <trkpt lat="45.26051" lon="6.04501">
        <ele>1783.4580078125</ele>
        <time>2017-11-10T08:52:15Z</time>
      </trkpt>
      <trkpt lat="45.26058" lon="6.04512">
        <ele>1780.4580078125</ele>
        <time>2017-11-10T08:52:17Z</time>
      </trkpt>
      <trkpt lat="45.26063" lon="6.04513">
        <ele>1778.4580078125</ele>
        <time>2017-11-10T08:52:19Z</time>
      </trkpt>
      <trkpt lat="45.26063" lon="6.04506">
        <ele>1772.4580078125</ele>
        <time>2017-11-10T08:52:30Z</time>
      </trkpt>
      <trkpt lat="45.26058" lon="6.04507">
        <ele>1762.4580078125</ele>
        <time>2017-11-10T08:55:36Z</time>
      </trkpt>
      <trkpt lat="45.26057" lon="6.045">
        <ele>1763.4580078125</ele>
        <time>2017-11-10T08:55:42Z</time>
      </trkpt>
      <trkpt lat="45.26059" lon="6.04493">
        <ele>1763.4580078125</ele>
        <time>2017-11-10T08:55:48Z</time>
      </trkpt>
      <trkpt lat="45.26055" lon="6.04488">
        <ele>1763.4580078125</ele>
        <time>2017-11-10T08:55:56Z</time>
      </trkpt>
      <trkpt lat="45.26051" lon="6.0449">
        <ele>1763.4580078125</ele>
        <time>2017-11-10T08:56:02Z</time>
      </trkpt>
      <trkpt lat="45.26045" lon="6.0449">
        <ele>1764.4580078125</ele>
        <time>2017-11-10T08:56:09Z</time>
      </trkpt>
      <trkpt lat="45.26045" lon="6.04483">
        <ele>1766.4580078125</ele>
        <time>2017-11-10T08:56:19Z</time>
      </trkpt>
      <trkpt lat="45.26045" lon="6.04475">
        <ele>1768.4580078125</ele>
        <time>2017-11-10T08:56:25Z</time>
      </trkpt>
      <trkpt lat="45.26045" lon="6.04469">
        <ele>1771.4580078125</ele>
        <time>2017-11-10T08:56:32Z</time>
      </trkpt>
      <trkpt lat="45.26045" lon="6.04462">
        <ele>1774.4580078125</ele>
        <time>2017-11-10T08:56:39Z</time>
      </trkpt>
      <trkpt lat="45.2604" lon="6.04461">
        <ele>1777.4580078125</ele>
        <time>2017-11-10T08:56:48Z</time>
      </trkpt>
      <trkpt lat="45.26036" lon="6.04459">
        <ele>1775.4580078125</ele>
        <time>2017-11-10T08:56:53Z</time>
      </trkpt>
      <trkpt lat="45.26031" lon="6.04457">
        <ele>1778.4580078125</ele>
        <time>2017-11-10T08:57:01Z</time>
      </trkpt>
      <trkpt lat="45.26031" lon="6.04451">
        <ele>1775.4580078125</ele>
        <time>2017-11-10T08:57:08Z</time>
      </trkpt>
      <trkpt lat="45.26034" lon="6.04444">
        <ele>1776.4580078125</ele>
        <time>2017-11-10T08:57:14Z</time>
      </trkpt>
      <trkpt lat="45.26036" lon="6.04438">
        <ele>1780.4580078125</ele>
        <time>2017-11-10T08:57:21Z</time>
      </trkpt>
      <trkpt lat="45.26035" lon="6.04431">
        <ele>1778.4580078125</ele>
        <time>2017-11-10T08:57:27Z</time>
      </trkpt>
      <trkpt lat="45.26032" lon="6.04426">
        <ele>1778.4580078125</ele>
        <time>2017-11-10T08:57:32Z</time>
      </trkpt>
      <trkpt lat="45.26029" lon="6.04421">
        <ele>1777.4580078125</ele>
        <time>2017-11-10T08:57:44Z</time>
      </trkpt>
      <trkpt lat="45.26027" lon="6.04414">
        <ele>1774.4580078125</ele>
        <time>2017-11-10T08:57:53Z</time>
      </trkpt>
      <trkpt lat="45.26023" lon="6.0441">
        <ele>1774.4580078125</ele>
        <time>2017-11-10T08:58:00Z</time>
      </trkpt>
      <trkpt lat="45.26021" lon="6.04404">
        <ele>1776.4580078125</ele>
        <time>2017-11-10T08:58:08Z</time>
      </trkpt>
      <trkpt lat="45.26019" lon="6.04397">
        <ele>1778.4580078125</ele>
        <time>2017-11-10T08:58:15Z</time>
      </trkpt>
      <trkpt lat="45.2602" lon="6.0439">
        <ele>1780.4580078125</ele>
        <time>2017-11-10T08:58:21Z</time>
      </trkpt>
      <trkpt lat="45.26023" lon="6.04386">
        <ele>1781.4580078125</ele>
        <time>2017-11-10T08:58:30Z</time>
      </trkpt>
      <trkpt lat="45.26023" lon="6.04379">
        <ele>1780.4580078125</ele>
        <time>2017-11-10T08:58:38Z</time>
      </trkpt>
      <trkpt lat="45.26027" lon="6.04374">
        <ele>1781.4580078125</ele>
        <time>2017-11-10T08:58:50Z</time>
      </trkpt>
      <trkpt lat="45.26028" lon="6.04367">
        <ele>1783.4580078125</ele>
        <time>2017-11-10T08:58:55Z</time>
      </trkpt>
      <trkpt lat="45.26025" lon="6.04362">
        <ele>1788.4580078125</ele>
        <time>2017-11-10T08:59:01Z</time>
      </trkpt>
      <trkpt lat="45.26026" lon="6.04356">
        <ele>1790.4580078125</ele>
        <time>2017-11-10T08:59:08Z</time>
      </trkpt>
      <trkpt lat="45.26025" lon="6.04349">
        <ele>1791.4580078125</ele>
        <time>2017-11-10T08:59:14Z</time>
      </trkpt>
      <trkpt lat="45.26021" lon="6.04345">
        <ele>1792.4580078125</ele>
        <time>2017-11-10T08:59:19Z</time>
      </trkpt>
      <trkpt lat="45.26019" lon="6.04339">
        <ele>1789.4580078125</ele>
        <time>2017-11-10T08:59:28Z</time>
      </trkpt>
      <trkpt lat="45.26019" lon="6.04332">
        <ele>1795.4580078125</ele>
        <time>2017-11-10T08:59:35Z</time>
      </trkpt>
      <trkpt lat="45.26019" lon="6.04325">
        <ele>1800.4580078125</ele>
        <time>2017-11-10T08:59:41Z</time>
      </trkpt>
      <trkpt lat="45.26015" lon="6.04321">
        <ele>1801.4580078125</ele>
        <time>2017-11-10T08:59:49Z</time>
      </trkpt>
      <trkpt lat="45.26017" lon="6.04314">
        <ele>1802.4580078125</ele>
        <time>2017-11-10T08:59:55Z</time>
      </trkpt>
      <trkpt lat="45.2602" lon="6.04309">
        <ele>1803.4580078125</ele>
        <time>2017-11-10T09:00:02Z</time>
      </trkpt>
      <trkpt lat="45.26022" lon="6.04303">
        <ele>1808.4580078125</ele>
        <time>2017-11-10T09:01:06Z</time>
      </trkpt>
      <trkpt lat="45.26025" lon="6.04298">
        <ele>1807.4580078125</ele>
        <time>2017-11-10T09:01:11Z</time>
      </trkpt>
      <trkpt lat="45.26026" lon="6.04291">
        <ele>1808.4580078125</ele>
        <time>2017-11-10T09:01:17Z</time>
      </trkpt>
      <trkpt lat="45.26022" lon="6.04286">
        <ele>1809.4580078125</ele>
        <time>2017-11-10T09:01:23Z</time>
      </trkpt>
      <trkpt lat="45.26019" lon="6.04281">
        <ele>1807.4580078125</ele>
        <time>2017-11-10T09:01:30Z</time>
      </trkpt>
      <trkpt lat="45.26022" lon="6.04274">
        <ele>1813.4580078125</ele>
        <time>2017-11-10T09:01:40Z</time>
      </trkpt>
      <trkpt lat="45.26018" lon="6.0427">
        <ele>1815.4580078125</ele>
        <time>2017-11-10T09:01:51Z</time>
      </trkpt>
      <trkpt lat="45.26016" lon="6.04263">
        <ele>1818.4580078125</ele>
        <time>2017-11-10T09:02:00Z</time>
      </trkpt>
      <trkpt lat="45.26017" lon="6.04257">
        <ele>1821.4580078125</ele>
        <time>2017-11-10T09:02:06Z</time>
      </trkpt>
      <trkpt lat="45.26018" lon="6.0425">
        <ele>1822.4580078125</ele>
        <time>2017-11-10T09:02:12Z</time>
      </trkpt>
      <trkpt lat="45.26013" lon="6.04248">
        <ele>1824.4580078125</ele>
        <time>2017-11-10T09:02:19Z</time>
      </trkpt>
      <trkpt lat="45.26013" lon="6.04242">
        <ele>1824.4580078125</ele>
        <time>2017-11-10T09:02:25Z</time>
      </trkpt>
      <trkpt lat="45.26008" lon="6.04238">
        <ele>1826.4580078125</ele>
        <time>2017-11-10T09:02:32Z</time>
      </trkpt>
      <trkpt lat="45.26006" lon="6.04233">
        <ele>1828.4580078125</ele>
        <time>2017-11-10T09:02:39Z</time>
      </trkpt>
      <trkpt lat="45.2601" lon="6.04227">
        <ele>1825.4580078125</ele>
        <time>2017-11-10T09:02:45Z</time>
      </trkpt>
      <trkpt lat="45.26009" lon="6.0422">
        <ele>1826.4580078125</ele>
        <time>2017-11-10T09:02:52Z</time>
      </trkpt>
      <trkpt lat="45.26009" lon="6.04214">
        <ele>1832.4580078125</ele>
        <time>2017-11-10T09:03:01Z</time>
      </trkpt>
      <trkpt lat="45.26008" lon="6.04207">
        <ele>1835.4580078125</ele>
        <time>2017-11-10T09:03:07Z</time>
      </trkpt>
      <trkpt lat="45.26008" lon="6.04199">
        <ele>1836.4580078125</ele>
        <time>2017-11-10T09:03:14Z</time>
      </trkpt>
      <trkpt lat="45.26008" lon="6.04192">
        <ele>1839.4580078125</ele>
        <time>2017-11-10T09:03:21Z</time>
      </trkpt>
      <trkpt lat="45.26006" lon="6.04185">
        <ele>1841.4580078125</ele>
        <time>2017-11-10T09:03:28Z</time>
      </trkpt>
      <trkpt lat="45.26002" lon="6.04182">
        <ele>1838.4580078125</ele>
        <time>2017-11-10T09:03:36Z</time>
      </trkpt>
      <trkpt lat="45.26" lon="6.04176">
        <ele>1839.4580078125</ele>
        <time>2017-11-10T09:03:45Z</time>
      </trkpt>
      <trkpt lat="45.25998" lon="6.0417">
        <ele>1842.4580078125</ele>
        <time>2017-11-10T09:03:49Z</time>
      </trkpt>
      <trkpt lat="45.25998" lon="6.04163">
        <ele>1844.4580078125</ele>
        <time>2017-11-10T09:03:55Z</time>
      </trkpt>
      <trkpt lat="45.25996" lon="6.04157">
        <ele>1846.4580078125</ele>
        <time>2017-11-10T09:04:01Z</time>
      </trkpt>
      <trkpt lat="45.25992" lon="6.04152">
        <ele>1849.4580078125</ele>
        <time>2017-11-10T09:04:08Z</time>
      </trkpt>
      <trkpt lat="45.25989" lon="6.04147">
        <ele>1850.4580078125</ele>
        <time>2017-11-10T09:04:15Z</time>
      </trkpt>
      <trkpt lat="45.25985" lon="6.04143">
        <ele>1852.4580078125</ele>
        <time>2017-11-10T09:04:20Z</time>
      </trkpt>
      <trkpt lat="45.2598" lon="6.0414">
        <ele>1853.4580078125</ele>
        <time>2017-11-10T09:04:29Z</time>
      </trkpt>
      <trkpt lat="45.25977" lon="6.04135">
        <ele>1854.4580078125</ele>
        <time>2017-11-10T09:04:35Z</time>
      </trkpt>
      <trkpt lat="45.25972" lon="6.0413">
        <ele>1855.4580078125</ele>
        <time>2017-11-10T09:04:40Z</time>
      </trkpt>
      <trkpt lat="45.25969" lon="6.04124">
        <ele>1855.4580078125</ele>
        <time>2017-11-10T09:04:43Z</time>
      </trkpt>
      <trkpt lat="45.25965" lon="6.04119">
        <ele>1855.4580078125</ele>
        <time>2017-11-10T09:04:46Z</time>
      </trkpt>
      <trkpt lat="45.25963" lon="6.04113">
        <ele>1853.4580078125</ele>
        <time>2017-11-10T09:04:51Z</time>
      </trkpt>
      <trkpt lat="45.2596" lon="6.04105">
        <ele>1852.4580078125</ele>
        <time>2017-11-10T09:04:54Z</time>
      </trkpt>
      <trkpt lat="45.25957" lon="6.04098">
        <ele>1852.4580078125</ele>
        <time>2017-11-10T09:04:57Z</time>
      </trkpt>
      <trkpt lat="45.25956" lon="6.04092">
        <ele>1850.4580078125</ele>
        <time>2017-11-10T09:05:01Z</time>
      </trkpt>
      <trkpt lat="45.25954" lon="6.04085">
        <ele>1850.4580078125</ele>
        <time>2017-11-10T09:05:05Z</time>
      </trkpt>
      <trkpt lat="45.2595" lon="6.04079">
        <ele>1851.45703125</ele>
        <time>2017-11-10T09:05:09Z</time>
      </trkpt>
      <trkpt lat="45.25948" lon="6.04071">
        <ele>1852.45703125</ele>
        <time>2017-11-10T09:05:13Z</time>
      </trkpt>
      <trkpt lat="45.25946" lon="6.04064">
        <ele>1852.45703125</ele>
        <time>2017-11-10T09:05:18Z</time>
      </trkpt>
      <trkpt lat="45.25943" lon="6.04058">
        <ele>1853.45703125</ele>
        <time>2017-11-10T09:05:21Z</time>
      </trkpt>
      <trkpt lat="45.25941" lon="6.04052">
        <ele>1852.45703125</ele>
        <time>2017-11-10T09:05:25Z</time>
      </trkpt>
      <trkpt lat="45.25937" lon="6.04046">
        <ele>1851.45703125</ele>
        <time>2017-11-10T09:05:32Z</time>
      </trkpt>
      <trkpt lat="45.25933" lon="6.04041">
        <ele>1849.45703125</ele>
        <time>2017-11-10T09:05:36Z</time>
      </trkpt>
      <trkpt lat="45.2593" lon="6.04035">
        <ele>1848.45703125</ele>
        <time>2017-11-10T09:05:40Z</time>
      </trkpt>
      <trkpt lat="45.25927" lon="6.0403">
        <ele>1848.45703125</ele>
        <time>2017-11-10T09:05:43Z</time>
      </trkpt>
      <trkpt lat="45.25922" lon="6.04024">
        <ele>1851.45703125</ele>
        <time>2017-11-10T09:05:48Z</time>
      </trkpt>
      <trkpt lat="45.25917" lon="6.0402">
        <ele>1852.45703125</ele>
        <time>2017-11-10T09:05:52Z</time>
      </trkpt>
      <trkpt lat="45.25912" lon="6.04017">
        <ele>1853.45703125</ele>
        <time>2017-11-10T09:05:59Z</time>
      </trkpt>
      <trkpt lat="45.25912" lon="6.04009">
        <ele>1854.45703125</ele>
        <time>2017-11-10T09:06:07Z</time>
      </trkpt>
      <trkpt lat="45.25908" lon="6.04003">
        <ele>1855.45703125</ele>
        <time>2017-11-10T09:06:12Z</time>
      </trkpt>
      <trkpt lat="45.25904" lon="6.04007">
        <ele>1858.45703125</ele>
        <time>2017-11-10T09:06:18Z</time>
      </trkpt>
      <trkpt lat="45.259" lon="6.04003">
        <ele>1861.45703125</ele>
        <time>2017-11-10T09:06:26Z</time>
      </trkpt>
      <trkpt lat="45.25898" lon="6.03996">
        <ele>1862.45703125</ele>
        <time>2017-11-10T09:06:32Z</time>
      </trkpt>
      <trkpt lat="45.25897" lon="6.03989">
        <ele>1862.45703125</ele>
        <time>2017-11-10T09:06:38Z</time>
      </trkpt>
      <trkpt lat="45.25897" lon="6.03981">
        <ele>1867.45703125</ele>
        <time>2017-11-10T09:06:45Z</time>
      </trkpt>
      <trkpt lat="45.25893" lon="6.03982">
        <ele>1867.45703125</ele>
        <time>2017-11-10T09:06:53Z</time>
      </trkpt>
      <trkpt lat="45.25888" lon="6.03982">
        <ele>1868.45703125</ele>
        <time>2017-11-10T09:06:59Z</time>
      </trkpt>
      <trkpt lat="45.25887" lon="6.03975">
        <ele>1872.45703125</ele>
        <time>2017-11-10T09:07:06Z</time>
      </trkpt>
      <trkpt lat="45.25884" lon="6.03969">
        <ele>1873.45703125</ele>
        <time>2017-11-10T09:07:14Z</time>
      </trkpt>
      <trkpt lat="45.25881" lon="6.03965">
        <ele>1875.45703125</ele>
        <time>2017-11-10T09:07:23Z</time>
      </trkpt>
      <trkpt lat="45.25878" lon="6.03958">
        <ele>1875.45703125</ele>
        <time>2017-11-10T09:07:29Z</time>
      </trkpt>
      <trkpt lat="45.25875" lon="6.03954">
        <ele>1877.45703125</ele>
        <time>2017-11-10T09:07:35Z</time>
      </trkpt>
      <trkpt lat="45.25871" lon="6.03949">
        <ele>1878.45703125</ele>
        <time>2017-11-10T09:07:41Z</time>
      </trkpt>
      <trkpt lat="45.25868" lon="6.03944">
        <ele>1879.45703125</ele>
        <time>2017-11-10T09:07:46Z</time>
      </trkpt>
      <trkpt lat="45.25865" lon="6.03939">
        <ele>1882.45703125</ele>
        <time>2017-11-10T09:07:56Z</time>
      </trkpt>
      <trkpt lat="45.25862" lon="6.03934">
        <ele>1881.45703125</ele>
        <time>2017-11-10T09:08:03Z</time>
      </trkpt>
      <trkpt lat="45.25858" lon="6.0393">
        <ele>1884.45703125</ele>
        <time>2017-11-10T09:08:10Z</time>
      </trkpt>
      <trkpt lat="45.25853" lon="6.03927">
        <ele>1887.45703125</ele>
        <time>2017-11-10T09:08:16Z</time>
      </trkpt>
      <trkpt lat="45.25849" lon="6.03923">
        <ele>1888.45703125</ele>
        <time>2017-11-10T09:08:22Z</time>
      </trkpt>
      <trkpt lat="45.25844" lon="6.03921">
        <ele>1890.45703125</ele>
        <time>2017-11-10T09:08:29Z</time>
      </trkpt>
      <trkpt lat="45.2584" lon="6.03917">
        <ele>1891.45703125</ele>
        <time>2017-11-10T09:08:35Z</time>
      </trkpt>
      <trkpt lat="45.25836" lon="6.03914">
        <ele>1891.45703125</ele>
        <time>2017-11-10T09:08:41Z</time>
      </trkpt>
      <trkpt lat="45.25833" lon="6.03908">
        <ele>1893.45703125</ele>
        <time>2017-11-10T09:08:48Z</time>
      </trkpt>
      <trkpt lat="45.25832" lon="6.039">
        <ele>1893.45703125</ele>
        <time>2017-11-10T09:08:54Z</time>
      </trkpt>
      <trkpt lat="45.25831" lon="6.03892">
        <ele>1894.45703125</ele>
        <time>2017-11-10T09:09:01Z</time>
      </trkpt>
      <trkpt lat="45.2583" lon="6.03885">
        <ele>1897.45703125</ele>
        <time>2017-11-10T09:09:08Z</time>
      </trkpt>
      <trkpt lat="45.25829" lon="6.03879">
        <ele>1900.45703125</ele>
        <time>2017-11-10T09:09:15Z</time>
      </trkpt>
      <trkpt lat="45.25827" lon="6.03872">
        <ele>1898.45703125</ele>
        <time>2017-11-10T09:09:20Z</time>
      </trkpt>
      <trkpt lat="45.25825" lon="6.03866">
        <ele>1899.45703125</ele>
        <time>2017-11-10T09:09:26Z</time>
      </trkpt>
      <trkpt lat="45.25822" lon="6.0386">
        <ele>1901.45703125</ele>
        <time>2017-11-10T09:09:31Z</time>
      </trkpt>
      <trkpt lat="45.2582" lon="6.03853">
        <ele>1902.45703125</ele>
        <time>2017-11-10T09:09:37Z</time>
      </trkpt>
      <trkpt lat="45.25819" lon="6.03847">
        <ele>1903.45703125</ele>
        <time>2017-11-10T09:09:43Z</time>
      </trkpt>
      <trkpt lat="45.25818" lon="6.0384">
        <ele>1908.45703125</ele>
        <time>2017-11-10T09:09:49Z</time>
      </trkpt>
      <trkpt lat="45.25815" lon="6.03833">
        <ele>1907.45703125</ele>
        <time>2017-11-10T09:09:56Z</time>
      </trkpt>
      <trkpt lat="45.25815" lon="6.03826">
        <ele>1908.45703125</ele>
        <time>2017-11-10T09:10:02Z</time>
      </trkpt>
      <trkpt lat="45.25812" lon="6.0382">
        <ele>1908.45703125</ele>
        <time>2017-11-10T09:10:09Z</time>
      </trkpt>
      <trkpt lat="45.25808" lon="6.03815">
        <ele>1909.45703125</ele>
        <time>2017-11-10T09:10:17Z</time>
      </trkpt>
      <trkpt lat="45.25804" lon="6.03812">
        <ele>1913.45703125</ele>
        <time>2017-11-10T09:10:29Z</time>
      </trkpt>
      <trkpt lat="45.25801" lon="6.03806">
        <ele>1914.45703125</ele>
        <time>2017-11-10T09:10:36Z</time>
      </trkpt>
      <trkpt lat="45.25802" lon="6.03799">
        <ele>1917.45703125</ele>
        <time>2017-11-10T09:10:42Z</time>
      </trkpt>
      <trkpt lat="45.25801" lon="6.03792">
        <ele>1918.45703125</ele>
        <time>2017-11-10T09:10:48Z</time>
      </trkpt>
      <trkpt lat="45.25801" lon="6.03785">
        <ele>1918.45703125</ele>
        <time>2017-11-10T09:10:56Z</time>
      </trkpt>
      <trkpt lat="45.258" lon="6.03779">
        <ele>1921.45703125</ele>
        <time>2017-11-10T09:11:04Z</time>
      </trkpt>
      <trkpt lat="45.25802" lon="6.03772">
        <ele>1926.45703125</ele>
        <time>2017-11-10T09:13:12Z</time>
      </trkpt>
      <trkpt lat="45.25801" lon="6.03765">
        <ele>1927.45703125</ele>
        <time>2017-11-10T09:13:17Z</time>
      </trkpt>
      <trkpt lat="45.258" lon="6.03759">
        <ele>1929.45703125</ele>
        <time>2017-11-10T09:13:21Z</time>
      </trkpt>
      <trkpt lat="45.25799" lon="6.03752">
        <ele>1932.45703125</ele>
        <time>2017-11-10T09:13:26Z</time>
      </trkpt>
      <trkpt lat="45.25799" lon="6.03745">
        <ele>1932.45703125</ele>
        <time>2017-11-10T09:13:32Z</time>
      </trkpt>
      <trkpt lat="45.25796" lon="6.03739">
        <ele>1934.45703125</ele>
        <time>2017-11-10T09:13:38Z</time>
      </trkpt>
      <trkpt lat="45.25791" lon="6.03735">
        <ele>1934.45703125</ele>
        <time>2017-11-10T09:13:48Z</time>
      </trkpt>
      <trkpt lat="45.25787" lon="6.03732">
        <ele>1936.45703125</ele>
        <time>2017-11-10T09:13:54Z</time>
      </trkpt>
      <trkpt lat="45.25785" lon="6.03725">
        <ele>1938.45703125</ele>
        <time>2017-11-10T09:14:02Z</time>
      </trkpt>
      <trkpt lat="45.25785" lon="6.03718">
        <ele>1941.45703125</ele>
        <time>2017-11-10T09:14:09Z</time>
      </trkpt>
      <trkpt lat="45.25785" lon="6.03711">
        <ele>1942.45703125</ele>
        <time>2017-11-10T09:14:17Z</time>
      </trkpt>
      <trkpt lat="45.25785" lon="6.03705">
        <ele>1944.45703125</ele>
        <time>2017-11-10T09:14:24Z</time>
      </trkpt>
      <trkpt lat="45.25783" lon="6.03698">
        <ele>1946.45703125</ele>
        <time>2017-11-10T09:14:31Z</time>
      </trkpt>
      <trkpt lat="45.25783" lon="6.03691">
        <ele>1948.45703125</ele>
        <time>2017-11-10T09:14:40Z</time>
      </trkpt>
      <trkpt lat="45.25782" lon="6.03684">
        <ele>1949.45703125</ele>
        <time>2017-11-10T09:14:47Z</time>
      </trkpt>
      <trkpt lat="45.25777" lon="6.03681">
        <ele>1949.45703125</ele>
        <time>2017-11-10T09:14:56Z</time>
      </trkpt>
      <trkpt lat="45.25773" lon="6.03679">
        <ele>1950.45703125</ele>
        <time>2017-11-10T09:15:03Z</time>
      </trkpt>
      <trkpt lat="45.25769" lon="6.03675">
        <ele>1954.45703125</ele>
        <time>2017-11-10T09:15:09Z</time>
      </trkpt>
      <trkpt lat="45.25766" lon="6.03669">
        <ele>1956.45703125</ele>
        <time>2017-11-10T09:15:15Z</time>
      </trkpt>
      <trkpt lat="45.25767" lon="6.03661">
        <ele>1956.45703125</ele>
        <time>2017-11-10T09:15:24Z</time>
      </trkpt>
      <trkpt lat="45.25768" lon="6.03654">
        <ele>1958.45703125</ele>
        <time>2017-11-10T09:15:29Z</time>
      </trkpt>
      <trkpt lat="45.25765" lon="6.03649">
        <ele>1959.45703125</ele>
        <time>2017-11-10T09:15:35Z</time>
      </trkpt>
      <trkpt lat="45.2576" lon="6.03646">
        <ele>1958.45703125</ele>
        <time>2017-11-10T09:15:45Z</time>
      </trkpt>
      <trkpt lat="45.25758" lon="6.03639">
        <ele>1960.45703125</ele>
        <time>2017-11-10T09:15:51Z</time>
      </trkpt>
      <trkpt lat="45.25755" lon="6.03634">
        <ele>1961.4560546875</ele>
        <time>2017-11-10T09:15:56Z</time>
      </trkpt>
      <trkpt lat="45.25751" lon="6.0363">
        <ele>1963.4560546875</ele>
        <time>2017-11-10T09:16:02Z</time>
      </trkpt>
      <trkpt lat="45.25749" lon="6.03624">
        <ele>1965.4560546875</ele>
        <time>2017-11-10T09:16:07Z</time>
      </trkpt>
      <trkpt lat="45.25747" lon="6.03618">
        <ele>1967.4560546875</ele>
        <time>2017-11-10T09:16:12Z</time>
      </trkpt>
      <trkpt lat="45.25744" lon="6.0361">
        <ele>1968.4560546875</ele>
        <time>2017-11-10T09:16:20Z</time>
      </trkpt>
      <trkpt lat="45.25741" lon="6.03605">
        <ele>1970.4560546875</ele>
        <time>2017-11-10T09:16:25Z</time>
      </trkpt>
      <trkpt lat="45.25738" lon="6.036">
        <ele>1970.4560546875</ele>
        <time>2017-11-10T09:16:31Z</time>
      </trkpt>
      <trkpt lat="45.25736" lon="6.03593">
        <ele>1970.4560546875</ele>
        <time>2017-11-10T09:16:37Z</time>
      </trkpt>
      <trkpt lat="45.25735" lon="6.03586">
        <ele>1972.4560546875</ele>
        <time>2017-11-10T09:16:43Z</time>
      </trkpt>
      <trkpt lat="45.25734" lon="6.0358">
        <ele>1975.4560546875</ele>
        <time>2017-11-10T09:16:53Z</time>
      </trkpt>
      <trkpt lat="45.25736" lon="6.03572">
        <ele>1977.4560546875</ele>
        <time>2017-11-10T09:16:59Z</time>
      </trkpt>
      <trkpt lat="45.25734" lon="6.03566">
        <ele>1980.4560546875</ele>
        <time>2017-11-10T09:17:08Z</time>
      </trkpt>
      <trkpt lat="45.25731" lon="6.0356">
        <ele>1982.4560546875</ele>
        <time>2017-11-10T09:17:15Z</time>
      </trkpt>
      <trkpt lat="45.25728" lon="6.03554">
        <ele>1982.4560546875</ele>
        <time>2017-11-10T09:17:22Z</time>
      </trkpt>
      <trkpt lat="45.25727" lon="6.03548">
        <ele>1983.4560546875</ele>
        <time>2017-11-10T09:17:29Z</time>
      </trkpt>
      <trkpt lat="45.25731" lon="6.03545">
        <ele>1986.4560546875</ele>
        <time>2017-11-10T09:17:34Z</time>
      </trkpt>
      <trkpt lat="45.25735" lon="6.03543">
        <ele>1986.4560546875</ele>
        <time>2017-11-10T09:17:41Z</time>
      </trkpt>
      <trkpt lat="45.25735" lon="6.03536">
        <ele>1988.4560546875</ele>
        <time>2017-11-10T09:17:51Z</time>
      </trkpt>
      <trkpt lat="45.25732" lon="6.0353">
        <ele>1990.4560546875</ele>
        <time>2017-11-10T09:17:58Z</time>
      </trkpt>
      <trkpt lat="45.25734" lon="6.03524">
        <ele>1991.4560546875</ele>
        <time>2017-11-10T09:18:06Z</time>
      </trkpt>
      <trkpt lat="45.25736" lon="6.03518">
        <ele>1993.4560546875</ele>
        <time>2017-11-10T09:18:12Z</time>
      </trkpt>
      <trkpt lat="45.25733" lon="6.03512">
        <ele>1994.4560546875</ele>
        <time>2017-11-10T09:18:19Z</time>
      </trkpt>
      <trkpt lat="45.2573" lon="6.03506">
        <ele>1994.4560546875</ele>
        <time>2017-11-10T09:18:24Z</time>
      </trkpt>
      <trkpt lat="45.25729" lon="6.03499">
        <ele>1996.4560546875</ele>
        <time>2017-11-10T09:18:30Z</time>
      </trkpt>
      <trkpt lat="45.25731" lon="6.03492">
        <ele>1997.4560546875</ele>
        <time>2017-11-10T09:18:37Z</time>
      </trkpt>
      <trkpt lat="45.25731" lon="6.03485">
        <ele>1999.4560546875</ele>
        <time>2017-11-10T09:18:43Z</time>
      </trkpt>
      <trkpt lat="45.25733" lon="6.03477">
        <ele>2000.4560546875</ele>
        <time>2017-11-10T09:18:49Z</time>
      </trkpt>
      <trkpt lat="45.25736" lon="6.0347">
        <ele>2002.4560546875</ele>
        <time>2017-11-10T09:18:54Z</time>
      </trkpt>
      <trkpt lat="45.25737" lon="6.03462">
        <ele>2001.4560546875</ele>
        <time>2017-11-10T09:19:01Z</time>
      </trkpt>
      <trkpt lat="45.25738" lon="6.03455">
        <ele>2002.4560546875</ele>
        <time>2017-11-10T09:19:07Z</time>
      </trkpt>
      <trkpt lat="45.25739" lon="6.03448">
        <ele>2004.4560546875</ele>
        <time>2017-11-10T09:19:12Z</time>
      </trkpt>
      <trkpt lat="45.25739" lon="6.0344">
        <ele>2005.4560546875</ele>
        <time>2017-11-10T09:19:17Z</time>
      </trkpt>
      <trkpt lat="45.25739" lon="6.03433">
        <ele>2007.4560546875</ele>
        <time>2017-11-10T09:19:23Z</time>
      </trkpt>
      <trkpt lat="45.2574" lon="6.03425">
        <ele>2009.4560546875</ele>
        <time>2017-11-10T09:19:29Z</time>
      </trkpt>
      <trkpt lat="45.2574" lon="6.03418">
        <ele>2008.4560546875</ele>
        <time>2017-11-10T09:19:34Z</time>
      </trkpt>
      <trkpt lat="45.25737" lon="6.03412">
        <ele>2008.4560546875</ele>
        <time>2017-11-10T09:19:41Z</time>
      </trkpt>
      <trkpt lat="45.25735" lon="6.03405">
        <ele>2008.4560546875</ele>
        <time>2017-11-10T09:19:48Z</time>
      </trkpt>
      <trkpt lat="45.25737" lon="6.03398">
        <ele>2013.4560546875</ele>
        <time>2017-11-10T09:19:57Z</time>
      </trkpt>
      <trkpt lat="45.25739" lon="6.03392">
        <ele>2015.4560546875</ele>
        <time>2017-11-10T09:20:03Z</time>
      </trkpt>
      <trkpt lat="45.25737" lon="6.03385">
        <ele>2017.4560546875</ele>
        <time>2017-11-10T09:20:11Z</time>
      </trkpt>
      <trkpt lat="45.2574" lon="6.03379">
        <ele>2017.4560546875</ele>
        <time>2017-11-10T09:20:20Z</time>
      </trkpt>
      <trkpt lat="45.25742" lon="6.03373">
        <ele>2018.4560546875</ele>
        <time>2017-11-10T09:20:27Z</time>
      </trkpt>
      <trkpt lat="45.25745" lon="6.03366">
        <ele>2020.4560546875</ele>
        <time>2017-11-10T09:20:34Z</time>
      </trkpt>
      <trkpt lat="45.25747" lon="6.0336">
        <ele>2022.4560546875</ele>
        <time>2017-11-10T09:20:38Z</time>
      </trkpt>
      <trkpt lat="45.2575" lon="6.03355">
        <ele>2022.4560546875</ele>
        <time>2017-11-10T09:20:42Z</time>
      </trkpt>
      <trkpt lat="45.25751" lon="6.03348">
        <ele>2022.4560546875</ele>
        <time>2017-11-10T09:20:48Z</time>
      </trkpt>
      <trkpt lat="45.2575" lon="6.03341">
        <ele>2023.4560546875</ele>
        <time>2017-11-10T09:20:53Z</time>
      </trkpt>
      <trkpt lat="45.25748" lon="6.03335">
        <ele>2023.4560546875</ele>
        <time>2017-11-10T09:20:59Z</time>
      </trkpt>
      <trkpt lat="45.25747" lon="6.03328">
        <ele>2026.4560546875</ele>
        <time>2017-11-10T09:21:04Z</time>
      </trkpt>
      <trkpt lat="45.25748" lon="6.03322">
        <ele>2027.4560546875</ele>
        <time>2017-11-10T09:21:10Z</time>
      </trkpt>
      <trkpt lat="45.2575" lon="6.03316">
        <ele>2029.4560546875</ele>
        <time>2017-11-10T09:21:15Z</time>
      </trkpt>
      <trkpt lat="45.25753" lon="6.0331">
        <ele>2029.4560546875</ele>
        <time>2017-11-10T09:21:21Z</time>
      </trkpt>
      <trkpt lat="45.25755" lon="6.03302">
        <ele>2030.4560546875</ele>
        <time>2017-11-10T09:21:26Z</time>
      </trkpt>
      <trkpt lat="45.25757" lon="6.03295">
        <ele>2032.4560546875</ele>
        <time>2017-11-10T09:21:31Z</time>
      </trkpt>
      <trkpt lat="45.25759" lon="6.03288">
        <ele>2033.4560546875</ele>
        <time>2017-11-10T09:21:37Z</time>
      </trkpt>
      <trkpt lat="45.2576" lon="6.03281">
        <ele>2035.4560546875</ele>
        <time>2017-11-10T09:21:42Z</time>
      </trkpt>
      <trkpt lat="45.25763" lon="6.03276">
        <ele>2036.4560546875</ele>
        <time>2017-11-10T09:21:48Z</time>
      </trkpt>
      <trkpt lat="45.25762" lon="6.03269">
        <ele>2038.4560546875</ele>
        <time>2017-11-10T09:21:54Z</time>
      </trkpt>
      <trkpt lat="45.25762" lon="6.03263">
        <ele>2040.4560546875</ele>
        <time>2017-11-10T09:22:00Z</time>
      </trkpt>
      <trkpt lat="45.25765" lon="6.03257">
        <ele>2040.4560546875</ele>
        <time>2017-11-10T09:22:07Z</time>
      </trkpt>
      <trkpt lat="45.25769" lon="6.03253">
        <ele>2043.4560546875</ele>
        <time>2017-11-10T09:22:14Z</time>
      </trkpt>
      <trkpt lat="45.25767" lon="6.03246">
        <ele>2044.4560546875</ele>
        <time>2017-11-10T09:22:21Z</time>
      </trkpt>
      <trkpt lat="45.25769" lon="6.03239">
        <ele>2046.4560546875</ele>
        <time>2017-11-10T09:22:30Z</time>
      </trkpt>
      <trkpt lat="45.25773" lon="6.03235">
        <ele>2048.4560546875</ele>
        <time>2017-11-10T09:22:38Z</time>
      </trkpt>
      <trkpt lat="45.25776" lon="6.0323">
        <ele>2049.4560546875</ele>
        <time>2017-11-10T09:22:45Z</time>
      </trkpt>
      <trkpt lat="45.25777" lon="6.03223">
        <ele>2051.4560546875</ele>
        <time>2017-11-10T09:22:51Z</time>
      </trkpt>
      <trkpt lat="45.25775" lon="6.03217">
        <ele>2052.4560546875</ele>
        <time>2017-11-10T09:22:56Z</time>
      </trkpt>
      <trkpt lat="45.25771" lon="6.03213">
        <ele>2053.4560546875</ele>
        <time>2017-11-10T09:23:00Z</time>
      </trkpt>
      <trkpt lat="45.25766" lon="6.0321">
        <ele>2053.4560546875</ele>
        <time>2017-11-10T09:23:06Z</time>
      </trkpt>
      <trkpt lat="45.25761" lon="6.03208">
        <ele>2053.4560546875</ele>
        <time>2017-11-10T09:23:11Z</time>
      </trkpt>
      <trkpt lat="45.25756" lon="6.03207">
        <ele>2054.4560546875</ele>
        <time>2017-11-10T09:23:16Z</time>
      </trkpt>
      <trkpt lat="45.25751" lon="6.03205">
        <ele>2053.4560546875</ele>
        <time>2017-11-10T09:23:21Z</time>
      </trkpt>
      <trkpt lat="45.25746" lon="6.03204">
        <ele>2053.4560546875</ele>
        <time>2017-11-10T09:23:26Z</time>
      </trkpt>
      <trkpt lat="45.25741" lon="6.03202">
        <ele>2055.4560546875</ele>
        <time>2017-11-10T09:23:32Z</time>
      </trkpt>
      <trkpt lat="45.25735" lon="6.03201">
        <ele>2056.4560546875</ele>
        <time>2017-11-10T09:23:38Z</time>
      </trkpt>
      <trkpt lat="45.2573" lon="6.03198">
        <ele>2057.4560546875</ele>
        <time>2017-11-10T09:23:43Z</time>
      </trkpt>
      <trkpt lat="45.25725" lon="6.03197">
        <ele>2057.4560546875</ele>
        <time>2017-11-10T09:23:48Z</time>
      </trkpt>
      <trkpt lat="45.2572" lon="6.03195">
        <ele>2058.4560546875</ele>
        <time>2017-11-10T09:23:53Z</time>
      </trkpt>
      <trkpt lat="45.25716" lon="6.03194">
        <ele>2060.4560546875</ele>
        <time>2017-11-10T09:23:58Z</time>
      </trkpt>
      <trkpt lat="45.25711" lon="6.03193">
        <ele>2061.4560546875</ele>
        <time>2017-11-10T09:24:02Z</time>
      </trkpt>
      <trkpt lat="45.25706" lon="6.03193">
        <ele>2063.4560546875</ele>
        <time>2017-11-10T09:24:07Z</time>
      </trkpt>
      <trkpt lat="45.25702" lon="6.03191">
        <ele>2063.4560546875</ele>
        <time>2017-11-10T09:24:11Z</time>
      </trkpt>
      <trkpt lat="45.25697" lon="6.0319">
        <ele>2064.4560546875</ele>
        <time>2017-11-10T09:24:16Z</time>
      </trkpt>
      <trkpt lat="45.25692" lon="6.03189">
        <ele>2066.4560546875</ele>
        <time>2017-11-10T09:24:21Z</time>
      </trkpt>
      <trkpt lat="45.25687" lon="6.03189">
        <ele>2070.4560546875</ele>
        <time>2017-11-10T09:24:26Z</time>
      </trkpt>
      <trkpt lat="45.25682" lon="6.03189">
        <ele>2068.4560546875</ele>
        <time>2017-11-10T09:24:32Z</time>
      </trkpt>
      <trkpt lat="45.25678" lon="6.03187">
        <ele>2069.4560546875</ele>
        <time>2017-11-10T09:24:37Z</time>
      </trkpt>
      <trkpt lat="45.25673" lon="6.03185">
        <ele>2069.4560546875</ele>
        <time>2017-11-10T09:24:42Z</time>
      </trkpt>
      <trkpt lat="45.25669" lon="6.03182">
        <ele>2072.4560546875</ele>
        <time>2017-11-10T09:24:48Z</time>
      </trkpt>
      <trkpt lat="45.25664" lon="6.0318">
        <ele>2073.4560546875</ele>
        <time>2017-11-10T09:24:54Z</time>
      </trkpt>
      <trkpt lat="45.25659" lon="6.03179">
        <ele>2076.4560546875</ele>
        <time>2017-11-10T09:25:00Z</time>
      </trkpt>
      <trkpt lat="45.25654" lon="6.03176">
        <ele>2077.4560546875</ele>
        <time>2017-11-10T09:25:06Z</time>
      </trkpt>
      <trkpt lat="45.2565" lon="6.03174">
        <ele>2079.4560546875</ele>
        <time>2017-11-10T09:25:12Z</time>
      </trkpt>
      <trkpt lat="45.25645" lon="6.03173">
        <ele>2081.4560546875</ele>
        <time>2017-11-10T09:25:17Z</time>
      </trkpt>
      <trkpt lat="45.25641" lon="6.03173">
        <ele>2082.4560546875</ele>
        <time>2017-11-10T09:25:22Z</time>
      </trkpt>
      <trkpt lat="45.25636" lon="6.03171">
        <ele>2082.4560546875</ele>
        <time>2017-11-10T09:25:28Z</time>
      </trkpt>
      <trkpt lat="45.25631" lon="6.03168">
        <ele>2084.4560546875</ele>
        <time>2017-11-10T09:25:34Z</time>
      </trkpt>
      <trkpt lat="45.25629" lon="6.03162">
        <ele>2086.4560546875</ele>
        <time>2017-11-10T09:25:40Z</time>
      </trkpt>
      <trkpt lat="45.25628" lon="6.03155">
        <ele>2087.4560546875</ele>
        <time>2017-11-10T09:25:45Z</time>
      </trkpt>
      <trkpt lat="45.25629" lon="6.03148">
        <ele>2089.4560546875</ele>
        <time>2017-11-10T09:25:55Z</time>
      </trkpt>
      <trkpt lat="45.25628" lon="6.03141">
        <ele>2091.4560546875</ele>
        <time>2017-11-10T09:26:02Z</time>
      </trkpt>
      <trkpt lat="45.25628" lon="6.03133">
        <ele>2092.4560546875</ele>
        <time>2017-11-10T09:26:08Z</time>
      </trkpt>
      <trkpt lat="45.25632" lon="6.0313">
        <ele>2096.4560546875</ele>
        <time>2017-11-10T09:26:18Z</time>
      </trkpt>
      <trkpt lat="45.25626" lon="6.03132">
        <ele>2103.4560546875</ele>
        <time>2017-11-10T09:29:44Z</time>
      </trkpt>
      <trkpt lat="45.25619" lon="6.03137">
        <ele>2103.4560546875</ele>
        <time>2017-11-10T09:29:46Z</time>
      </trkpt>
      <trkpt lat="45.25619" lon="6.03145">
        <ele>2104.4560546875</ele>
        <time>2017-11-10T09:29:48Z</time>
      </trkpt>
      <trkpt lat="45.25621" lon="6.03156">
        <ele>2104.4560546875</ele>
        <time>2017-11-10T09:29:50Z</time>
      </trkpt>
      <trkpt lat="45.25623" lon="6.03167">
        <ele>2102.4560546875</ele>
        <time>2017-11-10T09:29:52Z</time>
      </trkpt>
      <trkpt lat="45.25627" lon="6.03176">
        <ele>2100.4560546875</ele>
        <time>2017-11-10T09:29:54Z</time>
      </trkpt>
      <trkpt lat="45.2563" lon="6.03184">
        <ele>2094.4560546875</ele>
        <time>2017-11-10T09:29:57Z</time>
      </trkpt>
      <trkpt lat="45.2563" lon="6.03195">
        <ele>2088.4560546875</ele>
        <time>2017-11-10T09:29:59Z</time>
      </trkpt>
      <trkpt lat="45.25635" lon="6.03199">
        <ele>2087.4560546875</ele>
        <time>2017-11-10T09:30:01Z</time>
      </trkpt>
      <trkpt lat="45.25636" lon="6.03206">
        <ele>2086.4560546875</ele>
        <time>2017-11-10T09:30:06Z</time>
      </trkpt>
      <trkpt lat="45.25628" lon="6.03216">
        <ele>2083.4560546875</ele>
        <time>2017-11-10T09:30:09Z</time>
      </trkpt>
      <trkpt lat="45.25625" lon="6.03226">
        <ele>2078.4560546875</ele>
        <time>2017-11-10T09:30:12Z</time>
      </trkpt>
      <trkpt lat="45.25627" lon="6.03237">
        <ele>2077.4560546875</ele>
        <time>2017-11-10T09:30:14Z</time>
      </trkpt>
      <trkpt lat="45.2563" lon="6.03242">
        <ele>2076.4560546875</ele>
        <time>2017-11-10T09:30:15Z</time>
      </trkpt>
      <trkpt lat="45.25636" lon="6.03258">
        <ele>2069.4560546875</ele>
        <time>2017-11-10T09:30:18Z</time>
      </trkpt>
      <trkpt lat="45.25644" lon="6.0326">
        <ele>2065.4560546875</ele>
        <time>2017-11-10T09:30:20Z</time>
      </trkpt>
      <trkpt lat="45.25651" lon="6.03263">
        <ele>2061.4560546875</ele>
        <time>2017-11-10T09:30:22Z</time>
      </trkpt>
      <trkpt lat="45.2566" lon="6.03276">
        <ele>2058.4560546875</ele>
        <time>2017-11-10T09:30:24Z</time>
      </trkpt>
      <trkpt lat="45.25669" lon="6.0329">
        <ele>2055.4560546875</ele>
        <time>2017-11-10T09:30:26Z</time>
      </trkpt>
      <trkpt lat="45.25679" lon="6.03297">
        <ele>2052.4560546875</ele>
        <time>2017-11-10T09:30:28Z</time>
      </trkpt>
      <trkpt lat="45.25684" lon="6.03302">
        <ele>2047.4560546875</ele>
        <time>2017-11-10T09:30:29Z</time>
      </trkpt>
      <trkpt lat="45.25694" lon="6.03316">
        <ele>2042.4560546875</ele>
        <time>2017-11-10T09:30:31Z</time>
      </trkpt>
      <trkpt lat="45.25701" lon="6.03325">
        <ele>2038.4560546875</ele>
        <time>2017-11-10T09:30:32Z</time>
      </trkpt>
      <trkpt lat="45.25711" lon="6.03342">
        <ele>2035.4560546875</ele>
        <time>2017-11-10T09:30:34Z</time>
      </trkpt>
      <trkpt lat="45.25719" lon="6.03357">
        <ele>2033.4560546875</ele>
        <time>2017-11-10T09:30:36Z</time>
      </trkpt>
      <trkpt lat="45.25727" lon="6.03372">
        <ele>2032.4560546875</ele>
        <time>2017-11-10T09:30:38Z</time>
      </trkpt>
      <trkpt lat="45.2573" lon="6.03387">
        <ele>2030.4560546875</ele>
        <time>2017-11-10T09:30:40Z</time>
      </trkpt>
      <trkpt lat="45.25729" lon="6.03396">
        <ele>2031.4560546875</ele>
        <time>2017-11-10T09:30:41Z</time>
      </trkpt>
      <trkpt lat="45.25733" lon="6.03413">
        <ele>2029.4560546875</ele>
        <time>2017-11-10T09:30:43Z</time>
      </trkpt>
      <trkpt lat="45.25738" lon="6.03431">
        <ele>2027.4560546875</ele>
        <time>2017-11-10T09:30:45Z</time>
      </trkpt>
      <trkpt lat="45.25739" lon="6.03441">
        <ele>2026.4560546875</ele>
        <time>2017-11-10T09:30:46Z</time>
      </trkpt>
      <trkpt lat="45.25738" lon="6.03463">
        <ele>2024.4560546875</ele>
        <time>2017-11-10T09:30:48Z</time>
      </trkpt>
      <trkpt lat="45.25733" lon="6.03484">
        <ele>2021.4560546875</ele>
        <time>2017-11-10T09:30:50Z</time>
      </trkpt>
      <trkpt lat="45.25732" lon="6.03492">
        <ele>2018.4560546875</ele>
        <time>2017-11-10T09:30:51Z</time>
      </trkpt>
      <trkpt lat="45.25731" lon="6.03514">
        <ele>2013.4560546875</ele>
        <time>2017-11-10T09:30:53Z</time>
      </trkpt>
      <trkpt lat="45.25732" lon="6.03534">
        <ele>2012.4560546875</ele>
        <time>2017-11-10T09:30:55Z</time>
      </trkpt>
      <trkpt lat="45.25735" lon="6.03554">
        <ele>2010.4560546875</ele>
        <time>2017-11-10T09:30:57Z</time>
      </trkpt>
      <trkpt lat="45.25738" lon="6.03577">
        <ele>2006.4560546875</ele>
        <time>2017-11-10T09:30:59Z</time>
      </trkpt>
      <trkpt lat="45.2574" lon="6.03597">
        <ele>1998.4560546875</ele>
        <time>2017-11-10T09:31:01Z</time>
      </trkpt>
      <trkpt lat="45.25743" lon="6.03622">
        <ele>1991.4560546875</ele>
        <time>2017-11-10T09:31:03Z</time>
      </trkpt>
      <trkpt lat="45.25749" lon="6.03642">
        <ele>1988.4560546875</ele>
        <time>2017-11-10T09:31:05Z</time>
      </trkpt>
      <trkpt lat="45.25754" lon="6.03662">
        <ele>1983.45703125</ele>
        <time>2017-11-10T09:31:07Z</time>
      </trkpt>
      <trkpt lat="45.25764" lon="6.03676">
        <ele>1978.45703125</ele>
        <time>2017-11-10T09:31:09Z</time>
      </trkpt>
      <trkpt lat="45.2577" lon="6.03693">
        <ele>1974.45703125</ele>
        <time>2017-11-10T09:31:11Z</time>
      </trkpt>
      <trkpt lat="45.25773" lon="6.03707">
        <ele>1973.45703125</ele>
        <time>2017-11-10T09:31:13Z</time>
      </trkpt>
      <trkpt lat="45.25779" lon="6.03721">
        <ele>1970.45703125</ele>
        <time>2017-11-10T09:31:15Z</time>
      </trkpt>
      <trkpt lat="45.25786" lon="6.03735">
        <ele>1967.45703125</ele>
        <time>2017-11-10T09:31:17Z</time>
      </trkpt>
      <trkpt lat="45.25796" lon="6.0375">
        <ele>1961.45703125</ele>
        <time>2017-11-10T09:31:19Z</time>
      </trkpt>
      <trkpt lat="45.258" lon="6.0376">
        <ele>1958.45703125</ele>
        <time>2017-11-10T09:31:20Z</time>
      </trkpt>
      <trkpt lat="45.25808" lon="6.03778">
        <ele>1958.45703125</ele>
        <time>2017-11-10T09:31:22Z</time>
      </trkpt>
      <trkpt lat="45.25804" lon="6.0379">
        <ele>1954.45703125</ele>
        <time>2017-11-10T09:31:23Z</time>
      </trkpt>
      <trkpt lat="45.25812" lon="6.03812">
        <ele>1948.45703125</ele>
        <time>2017-11-10T09:31:25Z</time>
      </trkpt>
      <trkpt lat="45.25819" lon="6.03842">
        <ele>1945.45703125</ele>
        <time>2017-11-10T09:31:27Z</time>
      </trkpt>
      <trkpt lat="45.25821" lon="6.03855">
        <ele>1940.45703125</ele>
        <time>2017-11-10T09:31:28Z</time>
      </trkpt>
      <trkpt lat="45.25827" lon="6.03875">
        <ele>1935.45703125</ele>
        <time>2017-11-10T09:31:30Z</time>
      </trkpt>
      <trkpt lat="45.2583" lon="6.03895">
        <ele>1930.45703125</ele>
        <time>2017-11-10T09:31:32Z</time>
      </trkpt>
      <trkpt lat="45.25839" lon="6.03914">
        <ele>1926.45703125</ele>
        <time>2017-11-10T09:31:34Z</time>
      </trkpt>
      <trkpt lat="45.25849" lon="6.03932">
        <ele>1924.45703125</ele>
        <time>2017-11-10T09:31:36Z</time>
      </trkpt>
      <trkpt lat="45.25858" lon="6.03938">
        <ele>1914.45703125</ele>
        <time>2017-11-10T09:31:37Z</time>
      </trkpt>
      <trkpt lat="45.25869" lon="6.03958">
        <ele>1904.45703125</ele>
        <time>2017-11-10T09:31:39Z</time>
      </trkpt>
      <trkpt lat="45.25874" lon="6.03967">
        <ele>1900.45703125</ele>
        <time>2017-11-10T09:31:40Z</time>
      </trkpt>
      <trkpt lat="45.25889" lon="6.03978">
        <ele>1889.45703125</ele>
        <time>2017-11-10T09:31:42Z</time>
      </trkpt>
      <trkpt lat="45.25904" lon="6.03995">
        <ele>1879.45703125</ele>
        <time>2017-11-10T09:31:44Z</time>
      </trkpt>
      <trkpt lat="45.25922" lon="6.0402">
        <ele>1869.45703125</ele>
        <time>2017-11-10T09:31:46Z</time>
      </trkpt>
      <trkpt lat="45.25936" lon="6.04044">
        <ele>1864.45703125</ele>
        <time>2017-11-10T09:31:48Z</time>
      </trkpt>
      <trkpt lat="45.25941" lon="6.04055">
        <ele>1862.45703125</ele>
        <time>2017-11-10T09:31:49Z</time>
      </trkpt>
      <trkpt lat="45.2595" lon="6.04078">
        <ele>1862.45703125</ele>
        <time>2017-11-10T09:31:51Z</time>
      </trkpt>
      <trkpt lat="45.25956" lon="6.04095">
        <ele>1864.4580078125</ele>
        <time>2017-11-10T09:31:53Z</time>
      </trkpt>
      <trkpt lat="45.2596" lon="6.0411">
        <ele>1865.4580078125</ele>
        <time>2017-11-10T09:31:55Z</time>
      </trkpt>
      <trkpt lat="45.25962" lon="6.04116">
        <ele>1864.4580078125</ele>
        <time>2017-11-10T09:31:56Z</time>
      </trkpt>
      <trkpt lat="45.25965" lon="6.04124">
        <ele>1863.4580078125</ele>
        <time>2017-11-10T09:31:58Z</time>
      </trkpt>
      <trkpt lat="45.25969" lon="6.04129">
        <ele>1863.4580078125</ele>
        <time>2017-11-10T09:32:00Z</time>
      </trkpt>
      <trkpt lat="45.25974" lon="6.04134">
        <ele>1861.4580078125</ele>
        <time>2017-11-10T09:32:03Z</time>
      </trkpt>
      <trkpt lat="45.25978" lon="6.04142">
        <ele>1861.4580078125</ele>
        <time>2017-11-10T09:32:05Z</time>
      </trkpt>
      <trkpt lat="45.25983" lon="6.04162">
        <ele>1856.4580078125</ele>
        <time>2017-11-10T09:32:08Z</time>
      </trkpt>
      <trkpt lat="45.25988" lon="6.0418">
        <ele>1850.4580078125</ele>
        <time>2017-11-10T09:32:10Z</time>
      </trkpt>
      <trkpt lat="45.25997" lon="6.04198">
        <ele>1849.4580078125</ele>
        <time>2017-11-10T09:32:12Z</time>
      </trkpt>
      <trkpt lat="45.26" lon="6.04219">
        <ele>1840.4580078125</ele>
        <time>2017-11-10T09:32:14Z</time>
      </trkpt>
      <trkpt lat="45.26008" lon="6.04241">
        <ele>1836.4580078125</ele>
        <time>2017-11-10T09:32:16Z</time>
      </trkpt>
      <trkpt lat="45.26014" lon="6.04265">
        <ele>1833.4580078125</ele>
        <time>2017-11-10T09:32:18Z</time>
      </trkpt>
      <trkpt lat="45.26018" lon="6.04295">
        <ele>1823.4580078125</ele>
        <time>2017-11-10T09:32:21Z</time>
      </trkpt>
      <trkpt lat="45.26012" lon="6.04322">
        <ele>1819.4580078125</ele>
        <time>2017-11-10T09:32:23Z</time>
      </trkpt>
      <trkpt lat="45.26021" lon="6.04346">
        <ele>1814.4580078125</ele>
        <time>2017-11-10T09:32:25Z</time>
      </trkpt>
      <trkpt lat="45.2602" lon="6.0437">
        <ele>1807.4580078125</ele>
        <time>2017-11-10T09:32:27Z</time>
      </trkpt>
      <trkpt lat="45.26022" lon="6.04393">
        <ele>1800.4580078125</ele>
        <time>2017-11-10T09:32:29Z</time>
      </trkpt>
      <trkpt lat="45.26019" lon="6.04404">
        <ele>1799.4580078125</ele>
        <time>2017-11-10T09:32:30Z</time>
      </trkpt>
      <trkpt lat="45.26017" lon="6.04423">
        <ele>1798.4580078125</ele>
        <time>2017-11-10T09:32:32Z</time>
      </trkpt>
      <trkpt lat="45.26026" lon="6.04443">
        <ele>1795.4580078125</ele>
        <time>2017-11-10T09:32:34Z</time>
      </trkpt>
      <trkpt lat="45.26033" lon="6.04459">
        <ele>1791.4580078125</ele>
        <time>2017-11-10T09:32:36Z</time>
      </trkpt>
      <trkpt lat="45.26045" lon="6.04473">
        <ele>1787.4580078125</ele>
        <time>2017-11-10T09:32:38Z</time>
      </trkpt>
      <trkpt lat="45.26054" lon="6.04486">
        <ele>1783.4580078125</ele>
        <time>2017-11-10T09:32:40Z</time>
      </trkpt>
      <trkpt lat="45.26061" lon="6.045">
        <ele>1781.4580078125</ele>
        <time>2017-11-10T09:32:42Z</time>
      </trkpt>
      <trkpt lat="45.2607" lon="6.04518">
        <ele>1776.4580078125</ele>
        <time>2017-11-10T09:32:44Z</time>
      </trkpt>
      <trkpt lat="45.26078" lon="6.04536">
        <ele>1773.4580078125</ele>
        <time>2017-11-10T09:32:46Z</time>
      </trkpt>
      <trkpt lat="45.26078" lon="6.04544">
        <ele>1770.4580078125</ele>
        <time>2017-11-10T09:32:47Z</time>
      </trkpt>
      <trkpt lat="45.26078" lon="6.04553">
        <ele>1768.4580078125</ele>
        <time>2017-11-10T09:32:48Z</time>
      </trkpt>
      <trkpt lat="45.26085" lon="6.04562">
        <ele>1761.4580078125</ele>
        <time>2017-11-10T09:32:50Z</time>
      </trkpt>
      <trkpt lat="45.26087" lon="6.04576">
        <ele>1760.4580078125</ele>
        <time>2017-11-10T09:32:52Z</time>
      </trkpt>
      <trkpt lat="45.26092" lon="6.04583">
        <ele>1753.4580078125</ele>
        <time>2017-11-10T09:32:54Z</time>
      </trkpt>
      <trkpt lat="45.26099" lon="6.04592">
        <ele>1751.4580078125</ele>
        <time>2017-11-10T09:32:56Z</time>
      </trkpt>
      <trkpt lat="45.26101" lon="6.04607">
        <ele>1747.458984375</ele>
        <time>2017-11-10T09:32:58Z</time>
      </trkpt>
      <trkpt lat="45.26104" lon="6.0462">
        <ele>1742.458984375</ele>
        <time>2017-11-10T09:33:00Z</time>
      </trkpt>
      <trkpt lat="45.26117" lon="6.0463">
        <ele>1735.458984375</ele>
        <time>2017-11-10T09:33:03Z</time>
      </trkpt>
      <trkpt lat="45.26122" lon="6.04645">
        <ele>1733.458984375</ele>
        <time>2017-11-10T09:33:07Z</time>
      </trkpt>
      <trkpt lat="45.26124" lon="6.04639">
        <ele>1730.458984375</ele>
        <time>2017-11-10T09:33:09Z</time>
      </trkpt>
      <trkpt lat="45.26125" lon="6.04632">
        <ele>1722.458984375</ele>
        <time>2017-11-10T09:33:23Z</time>
      </trkpt>
      <trkpt lat="45.26124" lon="6.04625">
        <ele>1711.458984375</ele>
        <time>2017-11-10T09:36:35Z</time>
      </trkpt>
      <trkpt lat="45.2612" lon="6.0462">
        <ele>1713.458984375</ele>
        <time>2017-11-10T09:36:41Z</time>
      </trkpt>
      <trkpt lat="45.26116" lon="6.04615">
        <ele>1716.458984375</ele>
        <time>2017-11-10T09:36:46Z</time>
      </trkpt>
      <trkpt lat="45.26113" lon="6.04611">
        <ele>1715.458984375</ele>
        <time>2017-11-10T09:36:54Z</time>
      </trkpt>
      <trkpt lat="45.26109" lon="6.04607">
        <ele>1714.458984375</ele>
        <time>2017-11-10T09:37:01Z</time>
      </trkpt>
      <trkpt lat="45.26104" lon="6.04607">
        <ele>1717.458984375</ele>
        <time>2017-11-10T09:37:09Z</time>
      </trkpt>
      <trkpt lat="45.26103" lon="6.04601">
        <ele>1717.458984375</ele>
        <time>2017-11-10T09:37:19Z</time>
      </trkpt>
      <trkpt lat="45.26099" lon="6.04594">
        <ele>1720.4580078125</ele>
        <time>2017-11-10T09:37:23Z</time>
      </trkpt>
      <trkpt lat="45.26097" lon="6.04587">
        <ele>1720.4580078125</ele>
        <time>2017-11-10T09:37:31Z</time>
      </trkpt>
      <trkpt lat="45.26093" lon="6.04582">
        <ele>1721.4580078125</ele>
        <time>2017-11-10T09:37:37Z</time>
      </trkpt>
      <trkpt lat="45.2609" lon="6.04578">
        <ele>1720.4580078125</ele>
        <time>2017-11-10T09:37:44Z</time>
      </trkpt>
      <trkpt lat="45.2609" lon="6.0457">
        <ele>1724.4580078125</ele>
        <time>2017-11-10T09:37:54Z</time>
      </trkpt>
      <trkpt lat="45.2609" lon="6.04563">
        <ele>1725.4580078125</ele>
        <time>2017-11-10T09:38:00Z</time>
      </trkpt>
      <trkpt lat="45.26089" lon="6.04557">
        <ele>1726.4580078125</ele>
        <time>2017-11-10T09:38:07Z</time>
      </trkpt>
      <trkpt lat="45.26086" lon="6.04551">
        <ele>1730.4580078125</ele>
        <time>2017-11-10T09:38:13Z</time>
      </trkpt>
      <trkpt lat="45.26083" lon="6.04546">
        <ele>1733.4580078125</ele>
        <time>2017-11-10T09:38:24Z</time>
      </trkpt>
      <trkpt lat="45.26083" lon="6.04539">
        <ele>1735.4580078125</ele>
        <time>2017-11-10T09:38:33Z</time>
      </trkpt>
      <trkpt lat="45.26079" lon="6.04535">
        <ele>1735.4580078125</ele>
        <time>2017-11-10T09:38:43Z</time>
      </trkpt>
      <trkpt lat="45.26075" lon="6.04535">
        <ele>1735.4580078125</ele>
        <time>2017-11-10T09:38:52Z</time>
      </trkpt>
      <trkpt lat="45.26075" lon="6.04528">
        <ele>1743.4580078125</ele>
        <time>2017-11-10T09:38:58Z</time>
      </trkpt>
      <trkpt lat="45.26076" lon="6.04522">
        <ele>1747.4580078125</ele>
        <time>2017-11-10T09:39:05Z</time>
      </trkpt>
      <trkpt lat="45.26072" lon="6.04519">
        <ele>1749.4580078125</ele>
        <time>2017-11-10T09:39:14Z</time>
      </trkpt>
      <trkpt lat="45.26067" lon="6.04521">
        <ele>1751.4580078125</ele>
        <time>2017-11-10T09:39:20Z</time>
      </trkpt>
      <trkpt lat="45.26064" lon="6.04516">
        <ele>1754.4580078125</ele>
        <time>2017-11-10T09:39:30Z</time>
      </trkpt>
      <trkpt lat="45.26065" lon="6.04509">
        <ele>1753.4580078125</ele>
        <time>2017-11-10T09:39:34Z</time>
      </trkpt>
      <trkpt lat="45.26069" lon="6.04505">
        <ele>1753.4580078125</ele>
        <time>2017-11-10T09:39:39Z</time>
      </trkpt>
      <trkpt lat="45.26064" lon="6.04502">
        <ele>1752.4580078125</ele>
        <time>2017-11-10T09:39:45Z</time>
      </trkpt>
      <trkpt lat="45.2606" lon="6.045">
        <ele>1751.4580078125</ele>
        <time>2017-11-10T09:39:48Z</time>
      </trkpt>
      <trkpt lat="45.26055" lon="6.04502">
        <ele>1751.4580078125</ele>
        <time>2017-11-10T09:39:54Z</time>
      </trkpt>
      <trkpt lat="45.26057" lon="6.04495">
        <ele>1759.4580078125</ele>
        <time>2017-11-10T09:40:02Z</time>
      </trkpt>
      <trkpt lat="45.2606" lon="6.04489">
        <ele>1759.4580078125</ele>
        <time>2017-11-10T09:40:07Z</time>
      </trkpt>
      <trkpt lat="45.26056" lon="6.04487">
        <ele>1761.4580078125</ele>
        <time>2017-11-10T09:40:16Z</time>
      </trkpt>
      <trkpt lat="45.26051" lon="6.04484">
        <ele>1761.4580078125</ele>
        <time>2017-11-10T09:40:21Z</time>
      </trkpt>
      <trkpt lat="45.26047" lon="6.04488">
        <ele>1760.4580078125</ele>
        <time>2017-11-10T09:40:26Z</time>
      </trkpt>
      <trkpt lat="45.26048" lon="6.0448">
        <ele>1756.4580078125</ele>
        <time>2017-11-10T09:40:37Z</time>
      </trkpt>
      <trkpt lat="45.2605" lon="6.04474">
        <ele>1758.4580078125</ele>
        <time>2017-11-10T09:40:42Z</time>
      </trkpt>
      <trkpt lat="45.26052" lon="6.04468">
        <ele>1762.4580078125</ele>
        <time>2017-11-10T09:40:51Z</time>
      </trkpt>
      <trkpt lat="45.2605" lon="6.04462">
        <ele>1762.4580078125</ele>
        <time>2017-11-10T09:40:56Z</time>
      </trkpt>
      <trkpt lat="45.26045" lon="6.04459">
        <ele>1762.4580078125</ele>
        <time>2017-11-10T09:41:03Z</time>
      </trkpt>
      <trkpt lat="45.2604" lon="6.04458">
        <ele>1761.4580078125</ele>
        <time>2017-11-10T09:41:08Z</time>
      </trkpt>
      <trkpt lat="45.26035" lon="6.04457">
        <ele>1762.4580078125</ele>
        <time>2017-11-10T09:41:13Z</time>
      </trkpt>
      <trkpt lat="45.26032" lon="6.04451">
        <ele>1768.4580078125</ele>
        <time>2017-11-10T09:41:24Z</time>
      </trkpt>
      <trkpt lat="45.26033" lon="6.04445">
        <ele>1769.4580078125</ele>
        <time>2017-11-10T09:41:30Z</time>
      </trkpt>
      <trkpt lat="45.26035" lon="6.04438">
        <ele>1770.4580078125</ele>
        <time>2017-11-10T09:41:34Z</time>
      </trkpt>
      <trkpt lat="45.26032" lon="6.04431">
        <ele>1771.4580078125</ele>
        <time>2017-11-10T09:41:40Z</time>
      </trkpt>
      <trkpt lat="45.26029" lon="6.04426">
        <ele>1777.4580078125</ele>
        <time>2017-11-10T09:41:48Z</time>
      </trkpt>
      <trkpt lat="45.26027" lon="6.0442">
        <ele>1780.4580078125</ele>
        <time>2017-11-10T09:41:55Z</time>
      </trkpt>
      <trkpt lat="45.26024" lon="6.04414">
        <ele>1780.4580078125</ele>
        <time>2017-11-10T09:42:03Z</time>
      </trkpt>
      <trkpt lat="45.2602" lon="6.04408">
        <ele>1782.4580078125</ele>
        <time>2017-11-10T09:42:13Z</time>
      </trkpt>
      <trkpt lat="45.26018" lon="6.04401">
        <ele>1785.4580078125</ele>
        <time>2017-11-10T09:42:18Z</time>
      </trkpt>
      <trkpt lat="45.26019" lon="6.04395">
        <ele>1787.4580078125</ele>
        <time>2017-11-10T09:42:24Z</time>
      </trkpt>
      <trkpt lat="45.26022" lon="6.04389">
        <ele>1787.4580078125</ele>
        <time>2017-11-10T09:42:29Z</time>
      </trkpt>
      <trkpt lat="45.26024" lon="6.04382">
        <ele>1788.4580078125</ele>
        <time>2017-11-10T09:42:37Z</time>
      </trkpt>
      <trkpt lat="45.26023" lon="6.04374">
        <ele>1791.4580078125</ele>
        <time>2017-11-10T09:42:46Z</time>
      </trkpt>
      <trkpt lat="45.26026" lon="6.04368">
        <ele>1794.4580078125</ele>
        <time>2017-11-10T09:42:54Z</time>
      </trkpt>
      <trkpt lat="45.26022" lon="6.04363">
        <ele>1795.4580078125</ele>
        <time>2017-11-10T09:43:04Z</time>
      </trkpt>
      <trkpt lat="45.26024" lon="6.04356">
        <ele>1797.4580078125</ele>
        <time>2017-11-10T09:43:12Z</time>
      </trkpt>
      <trkpt lat="45.26025" lon="6.04349">
        <ele>1796.4580078125</ele>
        <time>2017-11-10T09:43:20Z</time>
      </trkpt>
      <trkpt lat="45.26023" lon="6.04343">
        <ele>1795.4580078125</ele>
        <time>2017-11-10T09:43:24Z</time>
      </trkpt>
      <trkpt lat="45.26019" lon="6.0434">
        <ele>1796.4580078125</ele>
        <time>2017-11-10T09:43:29Z</time>
      </trkpt>
      <trkpt lat="45.26019" lon="6.04333">
        <ele>1796.4580078125</ele>
        <time>2017-11-10T09:43:38Z</time>
      </trkpt>
      <trkpt lat="45.26018" lon="6.04326">
        <ele>1796.4580078125</ele>
        <time>2017-11-10T09:43:46Z</time>
      </trkpt>
      <trkpt lat="45.26017" lon="6.0432">
        <ele>1800.4580078125</ele>
        <time>2017-11-10T09:43:56Z</time>
      </trkpt>
      <trkpt lat="45.26016" lon="6.04313">
        <ele>1803.4580078125</ele>
        <time>2017-11-10T09:44:03Z</time>
      </trkpt>
      <trkpt lat="45.26018" lon="6.04306">
        <ele>1804.4580078125</ele>
        <time>2017-11-10T09:44:09Z</time>
      </trkpt>
      <trkpt lat="45.26021" lon="6.043">
        <ele>1806.4580078125</ele>
        <time>2017-11-10T09:44:16Z</time>
      </trkpt>
      <trkpt lat="45.26021" lon="6.04294">
        <ele>1809.4580078125</ele>
        <time>2017-11-10T09:44:27Z</time>
      </trkpt>
      <trkpt lat="45.26018" lon="6.04288">
        <ele>1810.4580078125</ele>
        <time>2017-11-10T09:44:33Z</time>
      </trkpt>
      <trkpt lat="45.26018" lon="6.04281">
        <ele>1808.4580078125</ele>
        <time>2017-11-10T09:44:42Z</time>
      </trkpt>
      <trkpt lat="45.2602" lon="6.04274">
        <ele>1813.4580078125</ele>
        <time>2017-11-10T09:44:49Z</time>
      </trkpt>
      <trkpt lat="45.26016" lon="6.04271">
        <ele>1814.4580078125</ele>
        <time>2017-11-10T09:44:55Z</time>
      </trkpt>
      <trkpt lat="45.26014" lon="6.04266">
        <ele>1817.4580078125</ele>
        <time>2017-11-10T09:45:00Z</time>
      </trkpt>
      <trkpt lat="45.26012" lon="6.04258">
        <ele>1821.4580078125</ele>
        <time>2017-11-10T09:45:12Z</time>
      </trkpt>
      <trkpt lat="45.26012" lon="6.04251">
        <ele>1823.4580078125</ele>
        <time>2017-11-10T09:45:22Z</time>
      </trkpt>
      <trkpt lat="45.26012" lon="6.04244">
        <ele>1823.4580078125</ele>
        <time>2017-11-10T09:45:36Z</time>
      </trkpt>
      <trkpt lat="45.26008" lon="6.0424">
        <ele>1827.4580078125</ele>
        <time>2017-11-10T09:45:46Z</time>
      </trkpt>
      <trkpt lat="45.26009" lon="6.04234">
        <ele>1831.4580078125</ele>
        <time>2017-11-10T09:45:55Z</time>
      </trkpt>
      <trkpt lat="45.26009" lon="6.04225">
        <ele>1831.4580078125</ele>
        <time>2017-11-10T09:46:02Z</time>
      </trkpt>
      <trkpt lat="45.26007" lon="6.04219">
        <ele>1832.4580078125</ele>
        <time>2017-11-10T09:46:09Z</time>
      </trkpt>
      <trkpt lat="45.26008" lon="6.04213">
        <ele>1831.4580078125</ele>
        <time>2017-11-10T09:46:19Z</time>
      </trkpt>
      <trkpt lat="45.26007" lon="6.04205">
        <ele>1834.4580078125</ele>
        <time>2017-11-10T09:46:25Z</time>
      </trkpt>
      <trkpt lat="45.26009" lon="6.04198">
        <ele>1837.4580078125</ele>
        <time>2017-11-10T09:46:32Z</time>
      </trkpt>
      <trkpt lat="45.26007" lon="6.04192">
        <ele>1836.4580078125</ele>
        <time>2017-11-10T09:46:38Z</time>
      </trkpt>
      <trkpt lat="45.26007" lon="6.04184">
        <ele>1839.4580078125</ele>
        <time>2017-11-10T09:46:46Z</time>
      </trkpt>
      <trkpt lat="45.26003" lon="6.0418">
        <ele>1837.4580078125</ele>
        <time>2017-11-10T09:46:55Z</time>
      </trkpt>
      <trkpt lat="45.25998" lon="6.04173">
        <ele>1841.4580078125</ele>
        <time>2017-11-10T09:47:01Z</time>
      </trkpt>
      <trkpt lat="45.25997" lon="6.04167">
        <ele>1844.4580078125</ele>
        <time>2017-11-10T09:47:07Z</time>
      </trkpt>
      <trkpt lat="45.25996" lon="6.0416">
        <ele>1846.4580078125</ele>
        <time>2017-11-10T09:47:13Z</time>
      </trkpt>
      <trkpt lat="45.25994" lon="6.04154">
        <ele>1850.4580078125</ele>
        <time>2017-11-10T09:47:23Z</time>
      </trkpt>
      <trkpt lat="45.25991" lon="6.0415">
        <ele>1851.4580078125</ele>
        <time>2017-11-10T09:47:31Z</time>
      </trkpt>
      <trkpt lat="45.25987" lon="6.04144">
        <ele>1854.4580078125</ele>
        <time>2017-11-10T09:47:40Z</time>
      </trkpt>
      <trkpt lat="45.25983" lon="6.04141">
        <ele>1854.4580078125</ele>
        <time>2017-11-10T09:47:45Z</time>
      </trkpt>
      <trkpt lat="45.25979" lon="6.04138">
        <ele>1854.4580078125</ele>
        <time>2017-11-10T09:47:50Z</time>
      </trkpt>
      <trkpt lat="45.25975" lon="6.04134">
        <ele>1854.4580078125</ele>
        <time>2017-11-10T09:47:54Z</time>
      </trkpt>
      <trkpt lat="45.25971" lon="6.0413">
        <ele>1857.4580078125</ele>
        <time>2017-11-10T09:47:58Z</time>
      </trkpt>
      <trkpt lat="45.25967" lon="6.04125">
        <ele>1858.4580078125</ele>
        <time>2017-11-10T09:48:02Z</time>
      </trkpt>
      <trkpt lat="45.25965" lon="6.04118">
        <ele>1858.4580078125</ele>
        <time>2017-11-10T09:48:06Z</time>
      </trkpt>
      <trkpt lat="45.25963" lon="6.04111">
        <ele>1857.4580078125</ele>
        <time>2017-11-10T09:48:10Z</time>
      </trkpt>
      <trkpt lat="45.25961" lon="6.04104">
        <ele>1858.4580078125</ele>
        <time>2017-11-10T09:48:14Z</time>
      </trkpt>
      <trkpt lat="45.25958" lon="6.04097">
        <ele>1859.4580078125</ele>
        <time>2017-11-10T09:48:18Z</time>
      </trkpt>
      <trkpt lat="45.25956" lon="6.04091">
        <ele>1858.4580078125</ele>
        <time>2017-11-10T09:48:21Z</time>
      </trkpt>
      <trkpt lat="45.25953" lon="6.04084">
        <ele>1859.4580078125</ele>
        <time>2017-11-10T09:48:25Z</time>
      </trkpt>
      <trkpt lat="45.2595" lon="6.04076">
        <ele>1859.45703125</ele>
        <time>2017-11-10T09:48:29Z</time>
      </trkpt>
      <trkpt lat="45.25948" lon="6.0407">
        <ele>1858.45703125</ele>
        <time>2017-11-10T09:48:33Z</time>
      </trkpt>
      <trkpt lat="45.25945" lon="6.04064">
        <ele>1859.45703125</ele>
        <time>2017-11-10T09:48:37Z</time>
      </trkpt>
      <trkpt lat="45.25944" lon="6.04057">
        <ele>1860.45703125</ele>
        <time>2017-11-10T09:48:41Z</time>
      </trkpt>
      <trkpt lat="45.25941" lon="6.04052">
        <ele>1860.45703125</ele>
        <time>2017-11-10T09:48:45Z</time>
      </trkpt>
      <trkpt lat="45.25937" lon="6.04045">
        <ele>1860.45703125</ele>
        <time>2017-11-10T09:48:49Z</time>
      </trkpt>
      <trkpt lat="45.25935" lon="6.04039">
        <ele>1859.45703125</ele>
        <time>2017-11-10T09:48:53Z</time>
      </trkpt>
      <trkpt lat="45.25931" lon="6.04034">
        <ele>1858.45703125</ele>
        <time>2017-11-10T09:48:56Z</time>
      </trkpt>
      <trkpt lat="45.25928" lon="6.0403">
        <ele>1860.45703125</ele>
        <time>2017-11-10T09:49:00Z</time>
      </trkpt>
      <trkpt lat="45.25924" lon="6.04025">
        <ele>1861.45703125</ele>
        <time>2017-11-10T09:49:04Z</time>
      </trkpt>
      <trkpt lat="45.25921" lon="6.0402">
        <ele>1860.45703125</ele>
        <time>2017-11-10T09:49:09Z</time>
      </trkpt>
      <trkpt lat="45.25916" lon="6.04017">
        <ele>1861.45703125</ele>
        <time>2017-11-10T09:49:14Z</time>
      </trkpt>
      <trkpt lat="45.25911" lon="6.04014">
        <ele>1863.45703125</ele>
        <time>2017-11-10T09:49:19Z</time>
      </trkpt>
      <trkpt lat="45.2591" lon="6.04008">
        <ele>1865.45703125</ele>
        <time>2017-11-10T09:49:26Z</time>
      </trkpt>
      <trkpt lat="45.25906" lon="6.04003">
        <ele>1864.45703125</ele>
        <time>2017-11-10T09:49:33Z</time>
      </trkpt>
      <trkpt lat="45.25901" lon="6.04004">
        <ele>1863.45703125</ele>
        <time>2017-11-10T09:49:41Z</time>
      </trkpt>
      <trkpt lat="45.25898" lon="6.03998">
        <ele>1866.45703125</ele>
        <time>2017-11-10T09:49:49Z</time>
      </trkpt>
      <trkpt lat="45.25897" lon="6.03991">
        <ele>1870.45703125</ele>
        <time>2017-11-10T09:49:57Z</time>
      </trkpt>
      <trkpt lat="45.25897" lon="6.03985">
        <ele>1871.45703125</ele>
        <time>2017-11-10T09:50:03Z</time>
      </trkpt>
      <trkpt lat="45.25896" lon="6.03978">
        <ele>1872.45703125</ele>
        <time>2017-11-10T09:50:09Z</time>
      </trkpt>
      <trkpt lat="45.25891" lon="6.0398">
        <ele>1872.45703125</ele>
        <time>2017-11-10T09:50:17Z</time>
      </trkpt>
      <trkpt lat="45.25887" lon="6.03976">
        <ele>1875.45703125</ele>
        <time>2017-11-10T09:50:28Z</time>
      </trkpt>
      <trkpt lat="45.25884" lon="6.03969">
        <ele>1877.45703125</ele>
        <time>2017-11-10T09:50:37Z</time>
      </trkpt>
      <trkpt lat="45.2588" lon="6.03964">
        <ele>1879.45703125</ele>
        <time>2017-11-10T09:50:48Z</time>
      </trkpt>
      <trkpt lat="45.25877" lon="6.03958">
        <ele>1880.45703125</ele>
        <time>2017-11-10T09:50:55Z</time>
      </trkpt>
      <trkpt lat="45.25874" lon="6.03953">
        <ele>1879.45703125</ele>
        <time>2017-11-10T09:51:01Z</time>
      </trkpt>
      <trkpt lat="45.25871" lon="6.03947">
        <ele>1880.45703125</ele>
        <time>2017-11-10T09:51:07Z</time>
      </trkpt>
      <trkpt lat="45.25867" lon="6.03943">
        <ele>1883.45703125</ele>
        <time>2017-11-10T09:51:14Z</time>
      </trkpt>
      <trkpt lat="45.25865" lon="6.03938">
        <ele>1884.45703125</ele>
        <time>2017-11-10T09:51:20Z</time>
      </trkpt>
      <trkpt lat="45.25862" lon="6.03933">
        <ele>1887.45703125</ele>
        <time>2017-11-10T09:51:26Z</time>
      </trkpt>
      <trkpt lat="45.25858" lon="6.03928">
        <ele>1888.45703125</ele>
        <time>2017-11-10T09:51:33Z</time>
      </trkpt>
      <trkpt lat="45.25853" lon="6.03925">
        <ele>1886.45703125</ele>
        <time>2017-11-10T09:51:43Z</time>
      </trkpt>
      <trkpt lat="45.25849" lon="6.03921">
        <ele>1888.45703125</ele>
        <time>2017-11-10T09:51:49Z</time>
      </trkpt>
      <trkpt lat="45.25845" lon="6.03918">
        <ele>1889.45703125</ele>
        <time>2017-11-10T09:51:55Z</time>
      </trkpt>
      <trkpt lat="45.2584" lon="6.03915">
        <ele>1894.45703125</ele>
        <time>2017-11-10T09:52:03Z</time>
      </trkpt>
      <trkpt lat="45.25836" lon="6.03913">
        <ele>1891.45703125</ele>
        <time>2017-11-10T09:52:10Z</time>
      </trkpt>
      <trkpt lat="45.25834" lon="6.03906">
        <ele>1895.45703125</ele>
        <time>2017-11-10T09:52:17Z</time>
      </trkpt>
      <trkpt lat="45.25832" lon="6.03899">
        <ele>1898.45703125</ele>
        <time>2017-11-10T09:52:23Z</time>
      </trkpt>
      <trkpt lat="45.25831" lon="6.03892">
        <ele>1903.45703125</ele>
        <time>2017-11-10T09:52:30Z</time>
      </trkpt>
      <trkpt lat="45.25829" lon="6.03885">
        <ele>1904.45703125</ele>
        <time>2017-11-10T09:52:38Z</time>
      </trkpt>
      <trkpt lat="45.25828" lon="6.03877">
        <ele>1907.45703125</ele>
        <time>2017-11-10T09:52:44Z</time>
      </trkpt>
      <trkpt lat="45.25826" lon="6.03871">
        <ele>1906.45703125</ele>
        <time>2017-11-10T09:52:49Z</time>
      </trkpt>
      <trkpt lat="45.25824" lon="6.03864">
        <ele>1906.45703125</ele>
        <time>2017-11-10T09:52:55Z</time>
      </trkpt>
      <trkpt lat="45.25822" lon="6.03858">
        <ele>1907.45703125</ele>
        <time>2017-11-10T09:53:00Z</time>
      </trkpt>
      <trkpt lat="45.25821" lon="6.03851">
        <ele>1909.45703125</ele>
        <time>2017-11-10T09:53:07Z</time>
      </trkpt>
      <trkpt lat="45.2582" lon="6.03845">
        <ele>1911.45703125</ele>
        <time>2017-11-10T09:53:12Z</time>
      </trkpt>
      <trkpt lat="45.25818" lon="6.03839">
        <ele>1911.45703125</ele>
        <time>2017-11-10T09:53:18Z</time>
      </trkpt>
      <trkpt lat="45.25817" lon="6.03832">
        <ele>1910.45703125</ele>
        <time>2017-11-10T09:53:25Z</time>
      </trkpt>
      <trkpt lat="45.25816" lon="6.03825">
        <ele>1909.45703125</ele>
        <time>2017-11-10T09:53:30Z</time>
      </trkpt>
      <trkpt lat="45.25814" lon="6.03819">
        <ele>1913.45703125</ele>
        <time>2017-11-10T09:53:38Z</time>
      </trkpt>
      <trkpt lat="45.2581" lon="6.03815">
        <ele>1914.45703125</ele>
        <time>2017-11-10T09:53:44Z</time>
      </trkpt>
      <trkpt lat="45.25805" lon="6.03813">
        <ele>1917.45703125</ele>
        <time>2017-11-10T09:53:51Z</time>
      </trkpt>
      <trkpt lat="45.25801" lon="6.0381">
        <ele>1921.45703125</ele>
        <time>2017-11-10T09:54:00Z</time>
      </trkpt>
      <trkpt lat="45.25802" lon="6.03802">
        <ele>1923.45703125</ele>
        <time>2017-11-10T09:54:08Z</time>
      </trkpt>
      <trkpt lat="45.25802" lon="6.03795">
        <ele>1924.45703125</ele>
        <time>2017-11-10T09:54:14Z</time>
      </trkpt>
      <trkpt lat="45.25802" lon="6.03788">
        <ele>1924.45703125</ele>
        <time>2017-11-10T09:54:21Z</time>
      </trkpt>
      <trkpt lat="45.25801" lon="6.03781">
        <ele>1925.45703125</ele>
        <time>2017-11-10T09:54:28Z</time>
      </trkpt>
      <trkpt lat="45.25801" lon="6.03774">
        <ele>1924.45703125</ele>
        <time>2017-11-10T09:54:34Z</time>
      </trkpt>
      <trkpt lat="45.258" lon="6.03766">
        <ele>1927.45703125</ele>
        <time>2017-11-10T09:54:43Z</time>
      </trkpt>
      <trkpt lat="45.25799" lon="6.03759">
        <ele>1927.45703125</ele>
        <time>2017-11-10T09:54:52Z</time>
      </trkpt>
      <trkpt lat="45.25799" lon="6.03751">
        <ele>1927.45703125</ele>
        <time>2017-11-10T09:55:00Z</time>
      </trkpt>
      <trkpt lat="45.25797" lon="6.03744">
        <ele>1929.45703125</ele>
        <time>2017-11-10T09:55:07Z</time>
      </trkpt>
      <trkpt lat="45.25796" lon="6.03738">
        <ele>1930.45703125</ele>
        <time>2017-11-10T09:55:18Z</time>
      </trkpt>
      <trkpt lat="45.25792" lon="6.03735">
        <ele>1930.45703125</ele>
        <time>2017-11-10T09:55:25Z</time>
      </trkpt>
      <trkpt lat="45.25787" lon="6.03732">
        <ele>1932.45703125</ele>
        <time>2017-11-10T09:55:32Z</time>
      </trkpt>
      <trkpt lat="45.25787" lon="6.03725">
        <ele>1934.45703125</ele>
        <time>2017-11-10T09:55:39Z</time>
      </trkpt>
      <trkpt lat="45.25787" lon="6.03718">
        <ele>1936.45703125</ele>
        <time>2017-11-10T09:55:46Z</time>
      </trkpt>
      <trkpt lat="45.25786" lon="6.03712">
        <ele>1941.45703125</ele>
        <time>2017-11-10T09:55:53Z</time>
      </trkpt>
      <trkpt lat="45.25786" lon="6.03705">
        <ele>1942.45703125</ele>
        <time>2017-11-10T09:56:00Z</time>
      </trkpt>
      <trkpt lat="45.25783" lon="6.03699">
        <ele>1945.45703125</ele>
        <time>2017-11-10T09:56:07Z</time>
      </trkpt>
      <trkpt lat="45.25783" lon="6.03692">
        <ele>1947.45703125</ele>
        <time>2017-11-10T09:56:14Z</time>
      </trkpt>
      <trkpt lat="45.25784" lon="6.03686">
        <ele>1948.45703125</ele>
        <time>2017-11-10T09:56:21Z</time>
      </trkpt>
      <trkpt lat="45.2578" lon="6.03682">
        <ele>1950.45703125</ele>
        <time>2017-11-10T09:56:30Z</time>
      </trkpt>
      <trkpt lat="45.25776" lon="6.03679">
        <ele>1953.45703125</ele>
        <time>2017-11-10T09:56:37Z</time>
      </trkpt>
      <trkpt lat="45.25771" lon="6.03679">
        <ele>1956.45703125</ele>
        <time>2017-11-10T09:56:45Z</time>
      </trkpt>
      <trkpt lat="45.25768" lon="6.03674">
        <ele>1957.45703125</ele>
        <time>2017-11-10T09:57:01Z</time>
      </trkpt>
      <trkpt lat="45.25766" lon="6.03667">
        <ele>1955.45703125</ele>
        <time>2017-11-10T09:57:08Z</time>
      </trkpt>
      <trkpt lat="45.25768" lon="6.03661">
        <ele>1958.45703125</ele>
        <time>2017-11-10T09:57:15Z</time>
      </trkpt>
      <trkpt lat="45.25765" lon="6.03655">
        <ele>1958.45703125</ele>
        <time>2017-11-10T09:57:24Z</time>
      </trkpt>
      <trkpt lat="45.25762" lon="6.0365">
        <ele>1958.45703125</ele>
        <time>2017-11-10T09:57:30Z</time>
      </trkpt>
      <trkpt lat="45.25759" lon="6.03644">
        <ele>1960.45703125</ele>
        <time>2017-11-10T09:57:39Z</time>
      </trkpt>
      <trkpt lat="45.25756" lon="6.03639">
        <ele>1965.45703125</ele>
        <time>2017-11-10T09:57:47Z</time>
      </trkpt>
      <trkpt lat="45.25753" lon="6.03634">
        <ele>1965.4560546875</ele>
        <time>2017-11-10T09:57:52Z</time>
      </trkpt>
      <trkpt lat="45.25751" lon="6.03628">
        <ele>1965.4560546875</ele>
        <time>2017-11-10T09:57:58Z</time>
      </trkpt>
      <trkpt lat="45.25749" lon="6.03622">
        <ele>1968.4560546875</ele>
        <time>2017-11-10T09:58:04Z</time>
      </trkpt>
      <trkpt lat="45.25747" lon="6.03616">
        <ele>1968.4560546875</ele>
        <time>2017-11-10T09:58:09Z</time>
      </trkpt>
      <trkpt lat="45.25744" lon="6.03609">
        <ele>1970.4560546875</ele>
        <time>2017-11-10T09:58:15Z</time>
      </trkpt>
      <trkpt lat="45.25741" lon="6.03605">
        <ele>1972.4560546875</ele>
        <time>2017-11-10T09:58:20Z</time>
      </trkpt>
      <trkpt lat="45.25739" lon="6.03598">
        <ele>1969.4560546875</ele>
        <time>2017-11-10T09:58:27Z</time>
      </trkpt>
      <trkpt lat="45.25737" lon="6.03591">
        <ele>1970.4560546875</ele>
        <time>2017-11-10T09:58:32Z</time>
      </trkpt>
      <trkpt lat="45.25735" lon="6.03584">
        <ele>1973.4560546875</ele>
        <time>2017-11-10T09:58:41Z</time>
      </trkpt>
      <trkpt lat="45.25736" lon="6.03578">
        <ele>1977.4560546875</ele>
        <time>2017-11-10T09:58:50Z</time>
      </trkpt>
      <trkpt lat="45.25736" lon="6.0357">
        <ele>1978.4560546875</ele>
        <time>2017-11-10T09:58:59Z</time>
      </trkpt>
      <trkpt lat="45.25735" lon="6.03564">
        <ele>1980.4560546875</ele>
        <time>2017-11-10T09:59:07Z</time>
      </trkpt>
      <trkpt lat="45.25731" lon="6.03559">
        <ele>1981.4560546875</ele>
        <time>2017-11-10T09:59:13Z</time>
      </trkpt>
      <trkpt lat="45.25728" lon="6.03553">
        <ele>1985.4560546875</ele>
        <time>2017-11-10T09:59:21Z</time>
      </trkpt>
      <trkpt lat="45.25732" lon="6.03548">
        <ele>1988.4560546875</ele>
        <time>2017-11-10T09:59:29Z</time>
      </trkpt>
      <trkpt lat="45.25735" lon="6.03544">
        <ele>1989.4560546875</ele>
        <time>2017-11-10T09:59:36Z</time>
      </trkpt>
      <trkpt lat="45.25734" lon="6.03536">
        <ele>1992.4560546875</ele>
        <time>2017-11-10T09:59:47Z</time>
      </trkpt>
      <trkpt lat="45.25733" lon="6.0353">
        <ele>1988.4560546875</ele>
        <time>2017-11-10T09:59:54Z</time>
      </trkpt>
      <trkpt lat="45.25735" lon="6.03522">
        <ele>1992.4560546875</ele>
        <time>2017-11-10T10:00:04Z</time>
      </trkpt>
      <trkpt lat="45.25737" lon="6.03516">
        <ele>1994.4560546875</ele>
        <time>2017-11-10T10:00:14Z</time>
      </trkpt>
      <trkpt lat="45.25734" lon="6.0351">
        <ele>1993.4560546875</ele>
        <time>2017-11-10T10:00:22Z</time>
      </trkpt>
      <trkpt lat="45.25732" lon="6.03503">
        <ele>1997.4560546875</ele>
        <time>2017-11-10T10:00:29Z</time>
      </trkpt>
      <trkpt lat="45.25733" lon="6.03497">
        <ele>1999.4560546875</ele>
        <time>2017-11-10T10:00:34Z</time>
      </trkpt>
      <trkpt lat="45.25732" lon="6.0349">
        <ele>2000.4560546875</ele>
        <time>2017-11-10T10:00:40Z</time>
      </trkpt>
      <trkpt lat="45.25734" lon="6.03483">
        <ele>2002.4560546875</ele>
        <time>2017-11-10T10:00:46Z</time>
      </trkpt>
      <trkpt lat="45.25736" lon="6.03477">
        <ele>2003.4560546875</ele>
        <time>2017-11-10T10:00:51Z</time>
      </trkpt>
      <trkpt lat="45.25737" lon="6.0347">
        <ele>2004.4560546875</ele>
        <time>2017-11-10T10:00:57Z</time>
      </trkpt>
      <trkpt lat="45.25737" lon="6.03463">
        <ele>2005.4560546875</ele>
        <time>2017-11-10T10:01:02Z</time>
      </trkpt>
      <trkpt lat="45.25737" lon="6.03457">
        <ele>2005.4560546875</ele>
        <time>2017-11-10T10:01:07Z</time>
      </trkpt>
      <trkpt lat="45.25739" lon="6.0345">
        <ele>2006.4560546875</ele>
        <time>2017-11-10T10:01:13Z</time>
      </trkpt>
      <trkpt lat="45.2574" lon="6.03443">
        <ele>2006.4560546875</ele>
        <time>2017-11-10T10:01:19Z</time>
      </trkpt>
      <trkpt lat="45.25741" lon="6.03436">
        <ele>2007.4560546875</ele>
        <time>2017-11-10T10:01:25Z</time>
      </trkpt>
      <trkpt lat="45.25742" lon="6.03429">
        <ele>2009.4560546875</ele>
        <time>2017-11-10T10:01:31Z</time>
      </trkpt>
      <trkpt lat="45.2574" lon="6.03422">
        <ele>2009.4560546875</ele>
        <time>2017-11-10T10:01:37Z</time>
      </trkpt>
      <trkpt lat="45.25739" lon="6.03415">
        <ele>2010.4560546875</ele>
        <time>2017-11-10T10:01:44Z</time>
      </trkpt>
      <trkpt lat="45.25735" lon="6.0341">
        <ele>2009.4560546875</ele>
        <time>2017-11-10T10:01:53Z</time>
      </trkpt>
      <trkpt lat="45.25735" lon="6.03403">
        <ele>2012.4560546875</ele>
        <time>2017-11-10T10:02:04Z</time>
      </trkpt>
      <trkpt lat="45.25739" lon="6.03398">
        <ele>2015.4560546875</ele>
        <time>2017-11-10T10:02:09Z</time>
      </trkpt>
      <trkpt lat="45.25741" lon="6.03392">
        <ele>2018.4560546875</ele>
        <time>2017-11-10T10:02:16Z</time>
      </trkpt>
      <trkpt lat="45.25739" lon="6.03386">
        <ele>2018.4560546875</ele>
        <time>2017-11-10T10:02:32Z</time>
      </trkpt>
      <trkpt lat="45.25736" lon="6.0338">
        <ele>2015.4560546875</ele>
        <time>2017-11-10T10:04:21Z</time>
      </trkpt>
      <trkpt lat="45.25739" lon="6.03375">
        <ele>2017.4560546875</ele>
        <time>2017-11-10T10:04:27Z</time>
      </trkpt>
      <trkpt lat="45.25743" lon="6.03371">
        <ele>2018.4560546875</ele>
        <time>2017-11-10T10:04:33Z</time>
      </trkpt>
      <trkpt lat="45.25745" lon="6.03364">
        <ele>2019.4560546875</ele>
        <time>2017-11-10T10:04:39Z</time>
      </trkpt>
      <trkpt lat="45.25748" lon="6.03359">
        <ele>2020.4560546875</ele>
        <time>2017-11-10T10:04:45Z</time>
      </trkpt>
      <trkpt lat="45.25751" lon="6.03353">
        <ele>2021.4560546875</ele>
        <time>2017-11-10T10:04:52Z</time>
      </trkpt>
      <trkpt lat="45.25752" lon="6.03346">
        <ele>2024.4560546875</ele>
        <time>2017-11-10T10:05:02Z</time>
      </trkpt>
      <trkpt lat="45.2575" lon="6.03339">
        <ele>2027.4560546875</ele>
        <time>2017-11-10T10:05:09Z</time>
      </trkpt>
      <trkpt lat="45.25749" lon="6.03331">
        <ele>2029.4560546875</ele>
        <time>2017-11-10T10:05:15Z</time>
      </trkpt>
      <trkpt lat="45.2575" lon="6.03324">
        <ele>2030.4560546875</ele>
        <time>2017-11-10T10:05:21Z</time>
      </trkpt>
      <trkpt lat="45.25751" lon="6.03317">
        <ele>2031.4560546875</ele>
        <time>2017-11-10T10:05:27Z</time>
      </trkpt>
      <trkpt lat="45.25754" lon="6.03312">
        <ele>2032.4560546875</ele>
        <time>2017-11-10T10:05:32Z</time>
      </trkpt>
      <trkpt lat="45.25756" lon="6.03306">
        <ele>2032.4560546875</ele>
        <time>2017-11-10T10:05:37Z</time>
      </trkpt>
      <trkpt lat="45.25757" lon="6.03298">
        <ele>2032.4560546875</ele>
        <time>2017-11-10T10:05:43Z</time>
      </trkpt>
      <trkpt lat="45.2576" lon="6.03292">
        <ele>2033.4560546875</ele>
        <time>2017-11-10T10:05:48Z</time>
      </trkpt>
      <trkpt lat="45.25761" lon="6.03286">
        <ele>2034.4560546875</ele>
        <time>2017-11-10T10:05:53Z</time>
      </trkpt>
      <trkpt lat="45.25762" lon="6.0328">
        <ele>2034.4560546875</ele>
        <time>2017-11-10T10:05:59Z</time>
      </trkpt>
      <trkpt lat="45.25763" lon="6.03273">
        <ele>2035.4560546875</ele>
        <time>2017-11-10T10:06:06Z</time>
      </trkpt>
      <trkpt lat="45.25763" lon="6.03265">
        <ele>2038.4560546875</ele>
        <time>2017-11-10T10:06:14Z</time>
      </trkpt>
      <trkpt lat="45.25765" lon="6.03258">
        <ele>2042.4560546875</ele>
        <time>2017-11-10T10:06:23Z</time>
      </trkpt>
      <trkpt lat="45.25769" lon="6.03254">
        <ele>2044.4560546875</ele>
        <time>2017-11-10T10:06:30Z</time>
      </trkpt>
      <trkpt lat="45.25768" lon="6.03248">
        <ele>2045.4560546875</ele>
        <time>2017-11-10T10:06:37Z</time>
      </trkpt>
      <trkpt lat="45.25769" lon="6.03241">
        <ele>2046.4560546875</ele>
        <time>2017-11-10T10:06:48Z</time>
      </trkpt>
      <trkpt lat="45.25773" lon="6.03237">
        <ele>2049.4560546875</ele>
        <time>2017-11-10T10:06:55Z</time>
      </trkpt>
      <trkpt lat="45.25776" lon="6.03232">
        <ele>2051.4560546875</ele>
        <time>2017-11-10T10:07:02Z</time>
      </trkpt>
      <trkpt lat="45.25778" lon="6.03225">
        <ele>2051.4560546875</ele>
        <time>2017-11-10T10:07:12Z</time>
      </trkpt>
      <trkpt lat="45.25775" lon="6.03219">
        <ele>2051.4560546875</ele>
        <time>2017-11-10T10:07:17Z</time>
      </trkpt>
      <trkpt lat="45.2577" lon="6.03214">
        <ele>2053.4560546875</ele>
        <time>2017-11-10T10:07:22Z</time>
      </trkpt>
      <trkpt lat="45.25766" lon="6.03209">
        <ele>2054.4560546875</ele>
        <time>2017-11-10T10:07:27Z</time>
      </trkpt>
      <trkpt lat="45.25761" lon="6.03207">
        <ele>2056.4560546875</ele>
        <time>2017-11-10T10:07:33Z</time>
      </trkpt>
      <trkpt lat="45.25757" lon="6.03205">
        <ele>2056.4560546875</ele>
        <time>2017-11-10T10:07:38Z</time>
      </trkpt>
      <trkpt lat="45.25752" lon="6.03203">
        <ele>2055.4560546875</ele>
        <time>2017-11-10T10:07:43Z</time>
      </trkpt>
      <trkpt lat="45.25747" lon="6.03202">
        <ele>2055.4560546875</ele>
        <time>2017-11-10T10:07:48Z</time>
      </trkpt>
      <trkpt lat="45.25743" lon="6.03199">
        <ele>2054.4560546875</ele>
        <time>2017-11-10T10:07:53Z</time>
      </trkpt>
      <trkpt lat="45.25738" lon="6.03198">
        <ele>2056.4560546875</ele>
        <time>2017-11-10T10:07:58Z</time>
      </trkpt>
      <trkpt lat="45.25733" lon="6.03197">
        <ele>2058.4560546875</ele>
        <time>2017-11-10T10:08:04Z</time>
      </trkpt>
      <trkpt lat="45.25728" lon="6.03194">
        <ele>2059.4560546875</ele>
        <time>2017-11-10T10:08:09Z</time>
      </trkpt>
      <trkpt lat="45.25723" lon="6.03194">
        <ele>2060.4560546875</ele>
        <time>2017-11-10T10:08:14Z</time>
      </trkpt>
      <trkpt lat="45.25719" lon="6.03193">
        <ele>2060.4560546875</ele>
        <time>2017-11-10T10:08:19Z</time>
      </trkpt>
      <trkpt lat="45.25714" lon="6.03192">
        <ele>2060.4560546875</ele>
        <time>2017-11-10T10:08:25Z</time>
      </trkpt>
      <trkpt lat="45.25709" lon="6.0319">
        <ele>2061.4560546875</ele>
        <time>2017-11-10T10:08:31Z</time>
      </trkpt>
      <trkpt lat="45.25704" lon="6.03191">
        <ele>2064.4560546875</ele>
        <time>2017-11-10T10:08:37Z</time>
      </trkpt>
      <trkpt lat="45.25699" lon="6.0319">
        <ele>2062.4560546875</ele>
        <time>2017-11-10T10:08:43Z</time>
      </trkpt>
      <trkpt lat="45.25693" lon="6.03189">
        <ele>2064.4560546875</ele>
        <time>2017-11-10T10:08:49Z</time>
      </trkpt>
      <trkpt lat="45.25689" lon="6.03188">
        <ele>2065.4560546875</ele>
        <time>2017-11-10T10:08:54Z</time>
      </trkpt>
      <trkpt lat="45.25684" lon="6.03186">
        <ele>2069.4560546875</ele>
        <time>2017-11-10T10:08:59Z</time>
      </trkpt>
      <trkpt lat="45.25679" lon="6.03185">
        <ele>2073.4560546875</ele>
        <time>2017-11-10T10:09:04Z</time>
      </trkpt>
      <trkpt lat="45.25675" lon="6.03185">
        <ele>2076.4560546875</ele>
        <time>2017-11-10T10:09:11Z</time>
      </trkpt>
      <trkpt lat="45.25669" lon="6.03184">
        <ele>2077.4560546875</ele>
        <time>2017-11-10T10:09:18Z</time>
      </trkpt>
      <trkpt lat="45.25665" lon="6.03184">
        <ele>2080.4560546875</ele>
        <time>2017-11-10T10:09:24Z</time>
      </trkpt>
      <trkpt lat="45.2566" lon="6.03183">
        <ele>2079.4560546875</ele>
        <time>2017-11-10T10:09:32Z</time>
      </trkpt>
      <trkpt lat="45.25656" lon="6.0318">
        <ele>2082.4560546875</ele>
        <time>2017-11-10T10:09:38Z</time>
      </trkpt>
      <trkpt lat="45.25653" lon="6.03175">
        <ele>2080.4560546875</ele>
        <time>2017-11-10T10:09:43Z</time>
      </trkpt>
      <trkpt lat="45.25648" lon="6.03174">
        <ele>2084.4560546875</ele>
        <time>2017-11-10T10:09:48Z</time>
      </trkpt>
      <trkpt lat="45.25643" lon="6.03173">
        <ele>2086.4560546875</ele>
        <time>2017-11-10T10:09:55Z</time>
      </trkpt>
      <trkpt lat="45.25638" lon="6.03172">
        <ele>2090.4560546875</ele>
        <time>2017-11-10T10:10:01Z</time>
      </trkpt>
      <trkpt lat="45.25634" lon="6.03168">
        <ele>2087.4560546875</ele>
        <time>2017-11-10T10:10:10Z</time>
      </trkpt>
      <trkpt lat="45.2563" lon="6.03164">
        <ele>2089.4560546875</ele>
        <time>2017-11-10T10:10:16Z</time>
      </trkpt>
      <trkpt lat="45.25626" lon="6.0316">
        <ele>2090.4560546875</ele>
        <time>2017-11-10T10:10:23Z</time>
      </trkpt>
      <trkpt lat="45.25623" lon="6.03155">
        <ele>2094.4560546875</ele>
        <time>2017-11-10T10:10:30Z</time>
      </trkpt>
      <trkpt lat="45.25619" lon="6.03151">
        <ele>2095.4560546875</ele>
        <time>2017-11-10T10:10:37Z</time>
      </trkpt>
      <trkpt lat="45.25616" lon="6.03144">
        <ele>2099.4560546875</ele>
        <time>2017-11-10T10:10:46Z</time>
      </trkpt>
      <trkpt lat="45.25611" lon="6.03144">
        <ele>2100.4560546875</ele>
        <time>2017-11-10T10:10:55Z</time>
      </trkpt>
      <trkpt lat="45.25607" lon="6.03149">
        <ele>2100.4560546875</ele>
        <time>2017-11-10T10:11:02Z</time>
      </trkpt>
      <trkpt lat="45.25604" lon="6.03154">
        <ele>2098.4560546875</ele>
        <time>2017-11-10T10:11:05Z</time>
      </trkpt>
      <trkpt lat="45.256" lon="6.0316">
        <ele>2097.4560546875</ele>
        <time>2017-11-10T10:11:09Z</time>
      </trkpt>
      <trkpt lat="45.25598" lon="6.03165">
        <ele>2097.4560546875</ele>
        <time>2017-11-10T10:11:13Z</time>
      </trkpt>
      <trkpt lat="45.25596" lon="6.03173">
        <ele>2097.4560546875</ele>
        <time>2017-11-10T10:11:18Z</time>
      </trkpt>
      <trkpt lat="45.25592" lon="6.0318">
        <ele>2098.4560546875</ele>
        <time>2017-11-10T10:11:23Z</time>
      </trkpt>
      <trkpt lat="45.2559" lon="6.03186">
        <ele>2100.4560546875</ele>
        <time>2017-11-10T10:11:28Z</time>
      </trkpt>
      <trkpt lat="45.25585" lon="6.03191">
        <ele>2100.4560546875</ele>
        <time>2017-11-10T10:11:33Z</time>
      </trkpt>
      <trkpt lat="45.25582" lon="6.03198">
        <ele>2100.4560546875</ele>
        <time>2017-11-10T10:11:39Z</time>
      </trkpt>
      <trkpt lat="45.25578" lon="6.03203">
        <ele>2099.4560546875</ele>
        <time>2017-11-10T10:11:44Z</time>
      </trkpt>
      <trkpt lat="45.25576" lon="6.03209">
        <ele>2100.4560546875</ele>
        <time>2017-11-10T10:11:49Z</time>
      </trkpt>
      <trkpt lat="45.25573" lon="6.03215">
        <ele>2101.4560546875</ele>
        <time>2017-11-10T10:11:56Z</time>
      </trkpt>
      <trkpt lat="45.2557" lon="6.03221">
        <ele>2104.4560546875</ele>
        <time>2017-11-10T10:12:02Z</time>
      </trkpt>
      <trkpt lat="45.25567" lon="6.03225">
        <ele>2101.4560546875</ele>
        <time>2017-11-10T10:12:06Z</time>
      </trkpt>
      <trkpt lat="45.25564" lon="6.03231">
        <ele>2102.4560546875</ele>
        <time>2017-11-10T10:12:12Z</time>
      </trkpt>
      <trkpt lat="45.25561" lon="6.03236">
        <ele>2102.4560546875</ele>
        <time>2017-11-10T10:12:16Z</time>
      </trkpt>
      <trkpt lat="45.25557" lon="6.0324">
        <ele>2103.4560546875</ele>
        <time>2017-11-10T10:12:23Z</time>
      </trkpt>
      <trkpt lat="45.25554" lon="6.03246">
        <ele>2103.4560546875</ele>
        <time>2017-11-10T10:12:29Z</time>
      </trkpt>
      <trkpt lat="45.25553" lon="6.03252">
        <ele>2107.4560546875</ele>
        <time>2017-11-10T10:12:35Z</time>
      </trkpt>
      <trkpt lat="45.2555" lon="6.03257">
        <ele>2106.4560546875</ele>
        <time>2017-11-10T10:12:39Z</time>
      </trkpt>
      <trkpt lat="45.25549" lon="6.03263">
        <ele>2108.4560546875</ele>
        <time>2017-11-10T10:12:44Z</time>
      </trkpt>
      <trkpt lat="45.25546" lon="6.03269">
        <ele>2109.4560546875</ele>
        <time>2017-11-10T10:12:50Z</time>
      </trkpt>
      <trkpt lat="45.25543" lon="6.03274">
        <ele>2109.4560546875</ele>
        <time>2017-11-10T10:12:54Z</time>
      </trkpt>
      <trkpt lat="45.2554" lon="6.03281">
        <ele>2112.4560546875</ele>
        <time>2017-11-10T10:13:01Z</time>
      </trkpt>
      <trkpt lat="45.25539" lon="6.03288">
        <ele>2112.4560546875</ele>
        <time>2017-11-10T10:13:07Z</time>
      </trkpt>
      <trkpt lat="45.25537" lon="6.03296">
        <ele>2115.4560546875</ele>
        <time>2017-11-10T10:13:15Z</time>
      </trkpt>
      <trkpt lat="45.25536" lon="6.03303">
        <ele>2119.4560546875</ele>
        <time>2017-11-10T10:13:21Z</time>
      </trkpt>
      <trkpt lat="45.25535" lon="6.03309">
        <ele>2120.4560546875</ele>
        <time>2017-11-10T10:13:28Z</time>
      </trkpt>
      <trkpt lat="45.25533" lon="6.03316">
        <ele>2121.4560546875</ele>
        <time>2017-11-10T10:13:34Z</time>
      </trkpt>
      <trkpt lat="45.25531" lon="6.03322">
        <ele>2119.4560546875</ele>
        <time>2017-11-10T10:13:41Z</time>
      </trkpt>
      <trkpt lat="45.25529" lon="6.03329">
        <ele>2122.4560546875</ele>
        <time>2017-11-10T10:13:48Z</time>
      </trkpt>
      <trkpt lat="45.25526" lon="6.03335">
        <ele>2123.4560546875</ele>
        <time>2017-11-10T10:13:53Z</time>
      </trkpt>
      <trkpt lat="45.25524" lon="6.03342">
        <ele>2126.4560546875</ele>
        <time>2017-11-10T10:14:00Z</time>
      </trkpt>
      <trkpt lat="45.25521" lon="6.03349">
        <ele>2127.4560546875</ele>
        <time>2017-11-10T10:14:06Z</time>
      </trkpt>
      <trkpt lat="45.25519" lon="6.03354">
        <ele>2127.4560546875</ele>
        <time>2017-11-10T10:14:11Z</time>
      </trkpt>
      <trkpt lat="45.25514" lon="6.03356">
        <ele>2127.4560546875</ele>
        <time>2017-11-10T10:14:17Z</time>
      </trkpt>
      <trkpt lat="45.25508" lon="6.03357">
        <ele>2127.4560546875</ele>
        <time>2017-11-10T10:14:24Z</time>
      </trkpt>
      <trkpt lat="45.25504" lon="6.03356">
        <ele>2127.4560546875</ele>
        <time>2017-11-10T10:14:32Z</time>
      </trkpt>
      <trkpt lat="45.255" lon="6.03352">
        <ele>2129.4560546875</ele>
        <time>2017-11-10T10:14:38Z</time>
      </trkpt>
      <trkpt lat="45.25497" lon="6.03346">
        <ele>2132.4560546875</ele>
        <time>2017-11-10T10:14:45Z</time>
      </trkpt>
      <trkpt lat="45.25495" lon="6.0334">
        <ele>2133.4560546875</ele>
        <time>2017-11-10T10:14:50Z</time>
      </trkpt>
      <trkpt lat="45.25492" lon="6.03335">
        <ele>2135.4560546875</ele>
        <time>2017-11-10T10:15:00Z</time>
      </trkpt>
      <trkpt lat="45.25487" lon="6.03329">
        <ele>2137.4560546875</ele>
        <time>2017-11-10T10:15:07Z</time>
      </trkpt>
      <trkpt lat="45.25484" lon="6.03324">
        <ele>2138.4560546875</ele>
        <time>2017-11-10T10:15:15Z</time>
      </trkpt>
      <trkpt lat="45.25482" lon="6.03318">
        <ele>2139.4560546875</ele>
        <time>2017-11-10T10:15:20Z</time>
      </trkpt>
      <trkpt lat="45.25478" lon="6.03312">
        <ele>2141.4560546875</ele>
        <time>2017-11-10T10:15:28Z</time>
      </trkpt>
      <trkpt lat="45.25477" lon="6.03305">
        <ele>2143.455078125</ele>
        <time>2017-11-10T10:15:36Z</time>
      </trkpt>
      <trkpt lat="45.25478" lon="6.03299">
        <ele>2146.455078125</ele>
        <time>2017-11-10T10:15:42Z</time>
      </trkpt>
      <trkpt lat="45.25475" lon="6.03293">
        <ele>2147.455078125</ele>
        <time>2017-11-10T10:15:51Z</time>
      </trkpt>
      <trkpt lat="45.25471" lon="6.03289">
        <ele>2147.455078125</ele>
        <time>2017-11-10T10:15:57Z</time>
      </trkpt>
      <trkpt lat="45.25473" lon="6.03282">
        <ele>2148.455078125</ele>
        <time>2017-11-10T10:16:00Z</time>
      </trkpt>
      <trkpt lat="45.25474" lon="6.03276">
        <ele>2148.455078125</ele>
        <time>2017-11-10T10:16:05Z</time>
      </trkpt>
      <trkpt lat="45.25477" lon="6.03271">
        <ele>2150.455078125</ele>
        <time>2017-11-10T10:16:09Z</time>
      </trkpt>
      <trkpt lat="45.25476" lon="6.03263">
        <ele>2150.455078125</ele>
        <time>2017-11-10T10:16:17Z</time>
      </trkpt>
      <trkpt lat="45.25479" lon="6.03257">
        <ele>2151.455078125</ele>
        <time>2017-11-10T10:16:24Z</time>
      </trkpt>
      <trkpt lat="45.25481" lon="6.0325">
        <ele>2151.455078125</ele>
        <time>2017-11-10T10:16:31Z</time>
      </trkpt>
      <trkpt lat="45.25485" lon="6.03245">
        <ele>2156.455078125</ele>
        <time>2017-11-10T10:16:38Z</time>
      </trkpt>
      <trkpt lat="45.25488" lon="6.03238">
        <ele>2160.455078125</ele>
        <time>2017-11-10T10:16:45Z</time>
      </trkpt>
      <trkpt lat="45.25491" lon="6.03233">
        <ele>2161.455078125</ele>
        <time>2017-11-10T10:16:52Z</time>
      </trkpt>
      <trkpt lat="45.25492" lon="6.03226">
        <ele>2162.455078125</ele>
        <time>2017-11-10T10:17:00Z</time>
      </trkpt>
      <trkpt lat="45.25493" lon="6.0322">
        <ele>2162.455078125</ele>
        <time>2017-11-10T10:17:07Z</time>
      </trkpt>
      <trkpt lat="45.25494" lon="6.03213">
        <ele>2164.455078125</ele>
        <time>2017-11-10T10:17:16Z</time>
      </trkpt>
      <trkpt lat="45.25494" lon="6.03206">
        <ele>2166.455078125</ele>
        <time>2017-11-10T10:17:24Z</time>
      </trkpt>
      <trkpt lat="45.25491" lon="6.03201">
        <ele>2168.455078125</ele>
        <time>2017-11-10T10:17:29Z</time>
      </trkpt>
      <trkpt lat="45.25487" lon="6.03198">
        <ele>2170.455078125</ele>
        <time>2017-11-10T10:17:42Z</time>
      </trkpt>
      <trkpt lat="45.25482" lon="6.03201">
        <ele>2172.455078125</ele>
        <time>2017-11-10T10:17:49Z</time>
      </trkpt>
      <trkpt lat="45.25478" lon="6.03203">
        <ele>2175.455078125</ele>
        <time>2017-11-10T10:17:56Z</time>
      </trkpt>
      <trkpt lat="45.25474" lon="6.03207">
        <ele>2176.455078125</ele>
        <time>2017-11-10T10:18:02Z</time>
      </trkpt>
      <trkpt lat="45.2547" lon="6.03205">
        <ele>2179.455078125</ele>
        <time>2017-11-10T10:18:16Z</time>
      </trkpt>
      <trkpt lat="45.25467" lon="6.032">
        <ele>2181.455078125</ele>
        <time>2017-11-10T10:18:30Z</time>
      </trkpt>
      <trkpt lat="45.25462" lon="6.03199">
        <ele>2183.455078125</ele>
        <time>2017-11-10T10:18:39Z</time>
      </trkpt>
      <trkpt lat="45.25458" lon="6.03195">
        <ele>2184.455078125</ele>
        <time>2017-11-10T10:19:00Z</time>
      </trkpt>
      <trkpt lat="45.25455" lon="6.032">
        <ele>2183.455078125</ele>
        <time>2017-11-10T10:19:08Z</time>
      </trkpt>
      <trkpt lat="45.25453" lon="6.03208">
        <ele>2183.455078125</ele>
        <time>2017-11-10T10:19:16Z</time>
      </trkpt>
      <trkpt lat="45.25452" lon="6.03215">
        <ele>2183.455078125</ele>
        <time>2017-11-10T10:19:21Z</time>
      </trkpt>
      <trkpt lat="45.25448" lon="6.03215">
        <ele>2188.455078125</ele>
        <time>2017-11-10T10:19:36Z</time>
      </trkpt>
      <trkpt lat="45.25443" lon="6.03211">
        <ele>2190.455078125</ele>
        <time>2017-11-10T10:19:44Z</time>
      </trkpt>
      <trkpt lat="45.2544" lon="6.03206">
        <ele>2191.455078125</ele>
        <time>2017-11-10T10:19:49Z</time>
      </trkpt>
      <trkpt lat="45.25435" lon="6.03203">
        <ele>2193.455078125</ele>
        <time>2017-11-10T10:19:59Z</time>
      </trkpt>
      <trkpt lat="45.25433" lon="6.0321">
        <ele>2193.455078125</ele>
        <time>2017-11-10T10:20:11Z</time>
      </trkpt>
      <trkpt lat="45.25428" lon="6.03213">
        <ele>2193.455078125</ele>
        <time>2017-11-10T10:20:24Z</time>
      </trkpt>
      <trkpt lat="45.25425" lon="6.03217">
        <ele>2197.455078125</ele>
        <time>2017-11-10T10:20:32Z</time>
      </trkpt>
      <trkpt lat="45.25423" lon="6.03223">
        <ele>2198.455078125</ele>
        <time>2017-11-10T10:20:40Z</time>
      </trkpt>
      <trkpt lat="45.25423" lon="6.0323">
        <ele>2200.455078125</ele>
        <time>2017-11-10T10:20:49Z</time>
      </trkpt>
      <trkpt lat="45.25422" lon="6.03236">
        <ele>2202.455078125</ele>
        <time>2017-11-10T10:21:00Z</time>
      </trkpt>
      <trkpt lat="45.25417" lon="6.03238">
        <ele>2202.455078125</ele>
        <time>2017-11-10T10:21:06Z</time>
      </trkpt>
      <trkpt lat="45.25412" lon="6.03237">
        <ele>2202.455078125</ele>
        <time>2017-11-10T10:21:11Z</time>
      </trkpt>
      <trkpt lat="45.25409" lon="6.03243">
        <ele>2204.455078125</ele>
        <time>2017-11-10T10:21:19Z</time>
      </trkpt>
      <trkpt lat="45.25407" lon="6.03249">
        <ele>2207.455078125</ele>
        <time>2017-11-10T10:21:29Z</time>
      </trkpt>
      <trkpt lat="45.25403" lon="6.03247">
        <ele>2208.455078125</ele>
        <time>2017-11-10T10:21:44Z</time>
      </trkpt>
      <trkpt lat="45.25399" lon="6.03252">
        <ele>2211.455078125</ele>
        <time>2017-11-10T10:21:52Z</time>
      </trkpt>
      <trkpt lat="45.25396" lon="6.03258">
        <ele>2214.455078125</ele>
        <time>2017-11-10T10:22:04Z</time>
      </trkpt>
      <trkpt lat="45.25393" lon="6.03264">
        <ele>2214.455078125</ele>
        <time>2017-11-10T10:22:12Z</time>
      </trkpt>
      <trkpt lat="45.2539" lon="6.03268">
        <ele>2217.455078125</ele>
        <time>2017-11-10T10:22:21Z</time>
      </trkpt>
      <trkpt lat="45.25386" lon="6.03271">
        <ele>2220.455078125</ele>
        <time>2017-11-10T10:22:28Z</time>
      </trkpt>
      <trkpt lat="45.25382" lon="6.03277">
        <ele>2223.455078125</ele>
        <time>2017-11-10T10:22:36Z</time>
      </trkpt>
      <trkpt lat="45.2538" lon="6.03283">
        <ele>2222.455078125</ele>
        <time>2017-11-10T10:22:45Z</time>
      </trkpt>
      <trkpt lat="45.25378" lon="6.0329">
        <ele>2225.455078125</ele>
        <time>2017-11-10T10:22:55Z</time>
      </trkpt>
      <trkpt lat="45.25374" lon="6.03289">
        <ele>2225.455078125</ele>
        <time>2017-11-10T10:23:02Z</time>
      </trkpt>
      <trkpt lat="45.25369" lon="6.03287">
        <ele>2228.455078125</ele>
        <time>2017-11-10T10:23:10Z</time>
      </trkpt>
      <trkpt lat="45.25365" lon="6.03285">
        <ele>2229.455078125</ele>
        <time>2017-11-10T10:23:19Z</time>
      </trkpt>
      <trkpt lat="45.2536" lon="6.03284">
        <ele>2229.455078125</ele>
        <time>2017-11-10T10:23:26Z</time>
      </trkpt>
      <trkpt lat="45.25356" lon="6.03279">
        <ele>2230.455078125</ele>
        <time>2017-11-10T10:23:34Z</time>
      </trkpt>
      <trkpt lat="45.25354" lon="6.03274">
        <ele>2231.455078125</ele>
        <time>2017-11-10T10:23:38Z</time>
      </trkpt>
      <trkpt lat="45.25353" lon="6.03267">
        <ele>2232.455078125</ele>
        <time>2017-11-10T10:23:45Z</time>
      </trkpt>
      <trkpt lat="45.25349" lon="6.0326">
        <ele>2234.455078125</ele>
        <time>2017-11-10T10:23:54Z</time>
      </trkpt>
      <trkpt lat="45.25346" lon="6.03255">
        <ele>2237.455078125</ele>
        <time>2017-11-10T10:24:00Z</time>
      </trkpt>
      <trkpt lat="45.25343" lon="6.03258">
        <ele>2235.455078125</ele>
        <time>2017-11-10T10:29:26Z</time>
      </trkpt>
      <trkpt lat="45.25348" lon="6.03261">
        <ele>2238.455078125</ele>
        <time>2017-11-10T10:31:24Z</time>
      </trkpt>
      <trkpt lat="45.25354" lon="6.03265">
        <ele>2237.455078125</ele>
        <time>2017-11-10T10:31:26Z</time>
      </trkpt>
      <trkpt lat="45.25362" lon="6.03274">
        <ele>2235.455078125</ele>
        <time>2017-11-10T10:31:28Z</time>
      </trkpt>
      <trkpt lat="45.25373" lon="6.03271">
        <ele>2232.455078125</ele>
        <time>2017-11-10T10:31:30Z</time>
      </trkpt>
      <trkpt lat="45.25384" lon="6.03269">
        <ele>2231.455078125</ele>
        <time>2017-11-10T10:31:32Z</time>
      </trkpt>
      <trkpt lat="45.25387" lon="6.0326">
        <ele>2230.455078125</ele>
        <time>2017-11-10T10:31:33Z</time>
      </trkpt>
      <trkpt lat="45.25398" lon="6.03253">
        <ele>2229.455078125</ele>
        <time>2017-11-10T10:31:35Z</time>
      </trkpt>
      <trkpt lat="45.25405" lon="6.03243">
        <ele>2229.455078125</ele>
        <time>2017-11-10T10:31:37Z</time>
      </trkpt>
      <trkpt lat="45.25407" lon="6.03235">
        <ele>2225.455078125</ele>
        <time>2017-11-10T10:31:38Z</time>
      </trkpt>
      <trkpt lat="45.25419" lon="6.03229">
        <ele>2214.455078125</ele>
        <time>2017-11-10T10:31:42Z</time>
      </trkpt>
      <trkpt lat="45.25429" lon="6.03221">
        <ele>2207.455078125</ele>
        <time>2017-11-10T10:31:44Z</time>
      </trkpt>
      <trkpt lat="45.25437" lon="6.03208">
        <ele>2202.455078125</ele>
        <time>2017-11-10T10:31:46Z</time>
      </trkpt>
      <trkpt lat="45.25447" lon="6.03201">
        <ele>2195.455078125</ele>
        <time>2017-11-10T10:31:48Z</time>
      </trkpt>
      <trkpt lat="45.25456" lon="6.03194">
        <ele>2192.455078125</ele>
        <time>2017-11-10T10:31:50Z</time>
      </trkpt>
      <trkpt lat="45.25469" lon="6.03193">
        <ele>2183.455078125</ele>
        <time>2017-11-10T10:31:54Z</time>
      </trkpt>
      <trkpt lat="45.25474" lon="6.03193">
        <ele>2178.455078125</ele>
        <time>2017-11-10T10:31:56Z</time>
      </trkpt>
      <trkpt lat="45.25482" lon="6.0319">
        <ele>2176.455078125</ele>
        <time>2017-11-10T10:31:58Z</time>
      </trkpt>
      <trkpt lat="45.25492" lon="6.03191">
        <ele>2172.455078125</ele>
        <time>2017-11-10T10:32:00Z</time>
      </trkpt>
      <trkpt lat="45.25497" lon="6.0321">
        <ele>2167.455078125</ele>
        <time>2017-11-10T10:32:02Z</time>
      </trkpt>
      <trkpt lat="45.25494" lon="6.03228">
        <ele>2164.455078125</ele>
        <time>2017-11-10T10:32:04Z</time>
      </trkpt>
      <trkpt lat="45.2549" lon="6.03248">
        <ele>2159.455078125</ele>
        <time>2017-11-10T10:32:06Z</time>
      </trkpt>
      <trkpt lat="45.25484" lon="6.0327">
        <ele>2155.455078125</ele>
        <time>2017-11-10T10:32:08Z</time>
      </trkpt>
      <trkpt lat="45.25479" lon="6.03292">
        <ele>2152.455078125</ele>
        <time>2017-11-10T10:32:10Z</time>
      </trkpt>
      <trkpt lat="45.25479" lon="6.0331">
        <ele>2148.4560546875</ele>
        <time>2017-11-10T10:32:12Z</time>
      </trkpt>
      <trkpt lat="45.25486" lon="6.03318">
        <ele>2145.4560546875</ele>
        <time>2017-11-10T10:32:14Z</time>
      </trkpt>
      <trkpt lat="45.25494" lon="6.03334">
        <ele>2141.4560546875</ele>
        <time>2017-11-10T10:32:16Z</time>
      </trkpt>
      <trkpt lat="45.25505" lon="6.03337">
        <ele>2136.4560546875</ele>
        <time>2017-11-10T10:32:18Z</time>
      </trkpt>
      <trkpt lat="45.25516" lon="6.03331">
        <ele>2130.4560546875</ele>
        <time>2017-11-10T10:32:20Z</time>
      </trkpt>
      <trkpt lat="45.25525" lon="6.03314">
        <ele>2127.4560546875</ele>
        <time>2017-11-10T10:32:22Z</time>
      </trkpt>
      <trkpt lat="45.25538" lon="6.03299">
        <ele>2126.4560546875</ele>
        <time>2017-11-10T10:32:24Z</time>
      </trkpt>
      <trkpt lat="45.25551" lon="6.0328">
        <ele>2125.4560546875</ele>
        <time>2017-11-10T10:32:26Z</time>
      </trkpt>
      <trkpt lat="45.25564" lon="6.03246">
        <ele>2124.4560546875</ele>
        <time>2017-11-10T10:32:28Z</time>
      </trkpt>
      <trkpt lat="45.25579" lon="6.03223">
        <ele>2123.4560546875</ele>
        <time>2017-11-10T10:32:30Z</time>
      </trkpt>
      <trkpt lat="45.25595" lon="6.03201">
        <ele>2121.4560546875</ele>
        <time>2017-11-10T10:32:32Z</time>
      </trkpt>
      <trkpt lat="45.25607" lon="6.0318">
        <ele>2118.4560546875</ele>
        <time>2017-11-10T10:32:34Z</time>
      </trkpt>
      <trkpt lat="45.25608" lon="6.03159">
        <ele>2106.4560546875</ele>
        <time>2017-11-10T10:32:36Z</time>
      </trkpt>
      <trkpt lat="45.2561" lon="6.0315">
        <ele>2103.4560546875</ele>
        <time>2017-11-10T10:32:37Z</time>
      </trkpt>
      <trkpt lat="45.25622" lon="6.03151">
        <ele>2098.4560546875</ele>
        <time>2017-11-10T10:32:39Z</time>
      </trkpt>
      <trkpt lat="45.25632" lon="6.03168">
        <ele>2093.4560546875</ele>
        <time>2017-11-10T10:32:41Z</time>
      </trkpt>
      <trkpt lat="45.25648" lon="6.0318">
        <ele>2091.4560546875</ele>
        <time>2017-11-10T10:32:43Z</time>
      </trkpt>
      <trkpt lat="45.25677" lon="6.03179">
        <ele>2089.4560546875</ele>
        <time>2017-11-10T10:32:45Z</time>
      </trkpt>
      <trkpt lat="45.25703" lon="6.03186">
        <ele>2087.4560546875</ele>
        <time>2017-11-10T10:32:47Z</time>
      </trkpt>
      <trkpt lat="45.25731" lon="6.03192">
        <ele>2084.4560546875</ele>
        <time>2017-11-10T10:32:49Z</time>
      </trkpt>
      <trkpt lat="45.25736" lon="6.03194">
        <ele>2076.4560546875</ele>
        <time>2017-11-10T10:32:50Z</time>
      </trkpt>
      <trkpt lat="45.25741" lon="6.03203">
        <ele>2072.4560546875</ele>
        <time>2017-11-10T10:32:52Z</time>
      </trkpt>
      <trkpt lat="45.25732" lon="6.03198">
        <ele>2059.4560546875</ele>
        <time>2017-11-10T10:33:05Z</time>
      </trkpt>
      <trkpt lat="45.25736" lon="6.032">
        <ele>2060.4560546875</ele>
        <time>2017-11-10T10:33:22Z</time>
      </trkpt>
      <trkpt lat="45.25741" lon="6.032">
        <ele>2060.4560546875</ele>
        <time>2017-11-10T10:33:31Z</time>
      </trkpt>
      <trkpt lat="45.25749" lon="6.03199">
        <ele>2060.4560546875</ele>
        <time>2017-11-10T10:33:33Z</time>
      </trkpt>
      <trkpt lat="45.25763" lon="6.03202">
        <ele>2060.4560546875</ele>
        <time>2017-11-10T10:33:35Z</time>
      </trkpt>
      <trkpt lat="45.25778" lon="6.03203">
        <ele>2060.4560546875</ele>
        <time>2017-11-10T10:33:37Z</time>
      </trkpt>
      <trkpt lat="45.25795" lon="6.03202">
        <ele>2059.4560546875</ele>
        <time>2017-11-10T10:33:39Z</time>
      </trkpt>
      <trkpt lat="45.25812" lon="6.03192">
        <ele>2058.4560546875</ele>
        <time>2017-11-10T10:33:41Z</time>
      </trkpt>
      <trkpt lat="45.25826" lon="6.03168">
        <ele>2060.4560546875</ele>
        <time>2017-11-10T10:33:44Z</time>
      </trkpt>
      <trkpt lat="45.25823" lon="6.03163">
        <ele>2057.4560546875</ele>
        <time>2017-11-10T10:33:45Z</time>
      </trkpt>
      <trkpt lat="45.25824" lon="6.03153">
        <ele>2056.4560546875</ele>
        <time>2017-11-10T10:33:46Z</time>
      </trkpt>
      <trkpt lat="45.25829" lon="6.0313">
        <ele>2051.4560546875</ele>
        <time>2017-11-10T10:33:49Z</time>
      </trkpt>
      <trkpt lat="45.25829" lon="6.03116">
        <ele>2044.4560546875</ele>
        <time>2017-11-10T10:33:51Z</time>
      </trkpt>
      <trkpt lat="45.25826" lon="6.03106">
        <ele>2038.4560546875</ele>
        <time>2017-11-10T10:33:53Z</time>
      </trkpt>
      <trkpt lat="45.25831" lon="6.03107">
        <ele>2036.4560546875</ele>
        <time>2017-11-10T10:33:57Z</time>
      </trkpt>
      <trkpt lat="45.25835" lon="6.03112">
        <ele>2035.4560546875</ele>
        <time>2017-11-10T10:33:59Z</time>
      </trkpt>
      <trkpt lat="45.25838" lon="6.03118">
        <ele>2033.4560546875</ele>
        <time>2017-11-10T10:34:02Z</time>
      </trkpt>
      <trkpt lat="45.25843" lon="6.03121">
        <ele>2031.4560546875</ele>
        <time>2017-11-10T10:34:05Z</time>
      </trkpt>
      <trkpt lat="45.25846" lon="6.03125">
        <ele>2029.4560546875</ele>
        <time>2017-11-10T10:34:08Z</time>
      </trkpt>
      <trkpt lat="45.2585" lon="6.03118">
        <ele>2022.4560546875</ele>
        <time>2017-11-10T10:34:12Z</time>
      </trkpt>
      <trkpt lat="45.25855" lon="6.03116">
        <ele>2017.4560546875</ele>
        <time>2017-11-10T10:34:15Z</time>
      </trkpt>
      <trkpt lat="45.25857" lon="6.03107">
        <ele>2016.4560546875</ele>
        <time>2017-11-10T10:34:17Z</time>
      </trkpt>
      <trkpt lat="45.25861" lon="6.03089">
        <ele>2020.4560546875</ele>
        <time>2017-11-10T10:34:20Z</time>
      </trkpt>
      <trkpt lat="45.25865" lon="6.03083">
        <ele>2017.4560546875</ele>
        <time>2017-11-10T10:34:22Z</time>
      </trkpt>
      <trkpt lat="45.2587" lon="6.03087">
        <ele>2014.4560546875</ele>
        <time>2017-11-10T10:34:24Z</time>
      </trkpt>
      <trkpt lat="45.25873" lon="6.03094">
        <ele>2012.4560546875</ele>
        <time>2017-11-10T10:34:26Z</time>
      </trkpt>
      <trkpt lat="45.25879" lon="6.03101">
        <ele>2009.4560546875</ele>
        <time>2017-11-10T10:34:28Z</time>
      </trkpt>
      <trkpt lat="45.25884" lon="6.03106">
        <ele>2005.4560546875</ele>
        <time>2017-11-10T10:34:30Z</time>
      </trkpt>
      <trkpt lat="45.25891" lon="6.03112">
        <ele>2005.4560546875</ele>
        <time>2017-11-10T10:34:32Z</time>
      </trkpt>
      <trkpt lat="45.25896" lon="6.03127">
        <ele>2003.4560546875</ele>
        <time>2017-11-10T10:34:35Z</time>
      </trkpt>
      <trkpt lat="45.259" lon="6.03132">
        <ele>2002.4560546875</ele>
        <time>2017-11-10T10:34:37Z</time>
      </trkpt>
      <trkpt lat="45.25908" lon="6.03141">
        <ele>2000.4560546875</ele>
        <time>2017-11-10T10:34:39Z</time>
      </trkpt>
      <trkpt lat="45.25916" lon="6.03151">
        <ele>1997.4560546875</ele>
        <time>2017-11-10T10:34:41Z</time>
      </trkpt>
      <trkpt lat="45.25922" lon="6.03157">
        <ele>1996.4560546875</ele>
        <time>2017-11-10T10:34:42Z</time>
      </trkpt>
      <trkpt lat="45.25934" lon="6.03166">
        <ele>1994.4560546875</ele>
        <time>2017-11-10T10:34:44Z</time>
      </trkpt>
      <trkpt lat="45.2594" lon="6.0317">
        <ele>1989.4560546875</ele>
        <time>2017-11-10T10:34:46Z</time>
      </trkpt>
      <trkpt lat="45.25948" lon="6.03175">
        <ele>1985.4560546875</ele>
        <time>2017-11-10T10:34:48Z</time>
      </trkpt>
      <trkpt lat="45.25954" lon="6.0318">
        <ele>1983.4560546875</ele>
        <time>2017-11-10T10:34:50Z</time>
      </trkpt>
      <trkpt lat="45.25961" lon="6.03182">
        <ele>1977.4560546875</ele>
        <time>2017-11-10T10:34:53Z</time>
      </trkpt>
      <trkpt lat="45.25967" lon="6.03185">
        <ele>1976.4560546875</ele>
        <time>2017-11-10T10:34:55Z</time>
      </trkpt>
      <trkpt lat="45.25979" lon="6.03186">
        <ele>1971.4560546875</ele>
        <time>2017-11-10T10:34:58Z</time>
      </trkpt>
      <trkpt lat="45.25986" lon="6.03175">
        <ele>1968.4560546875</ele>
        <time>2017-11-10T10:35:00Z</time>
      </trkpt>
      <trkpt lat="45.25997" lon="6.03166">
        <ele>1963.4560546875</ele>
        <time>2017-11-10T10:35:02Z</time>
      </trkpt>
      <trkpt lat="45.26003" lon="6.03157">
        <ele>1958.4560546875</ele>
        <time>2017-11-10T10:35:04Z</time>
      </trkpt>
      <trkpt lat="45.2601" lon="6.03144">
        <ele>1956.4560546875</ele>
        <time>2017-11-10T10:35:07Z</time>
      </trkpt>
      <trkpt lat="45.26016" lon="6.03138">
        <ele>1952.4560546875</ele>
        <time>2017-11-10T10:35:09Z</time>
      </trkpt>
      <trkpt lat="45.26022" lon="6.03134">
        <ele>1948.4560546875</ele>
        <time>2017-11-10T10:35:17Z</time>
      </trkpt>
      <trkpt lat="45.26027" lon="6.03136">
        <ele>1949.4560546875</ele>
        <time>2017-11-10T10:35:19Z</time>
      </trkpt>
      <trkpt lat="45.26033" lon="6.03136">
        <ele>1950.4560546875</ele>
        <time>2017-11-10T10:35:21Z</time>
      </trkpt>
      <trkpt lat="45.26039" lon="6.03134">
        <ele>1950.4560546875</ele>
        <time>2017-11-10T10:35:23Z</time>
      </trkpt>
      <trkpt lat="45.26047" lon="6.03125">
        <ele>1948.4560546875</ele>
        <time>2017-11-10T10:35:25Z</time>
      </trkpt>
      <trkpt lat="45.26052" lon="6.03111">
        <ele>1944.4560546875</ele>
        <time>2017-11-10T10:35:27Z</time>
      </trkpt>
      <trkpt lat="45.26056" lon="6.03092">
        <ele>1940.4560546875</ele>
        <time>2017-11-10T10:35:29Z</time>
      </trkpt>
      <trkpt lat="45.26064" lon="6.03075">
        <ele>1936.4560546875</ele>
        <time>2017-11-10T10:35:32Z</time>
      </trkpt>
      <trkpt lat="45.26065" lon="6.03068">
        <ele>1935.4560546875</ele>
        <time>2017-11-10T10:35:35Z</time>
      </trkpt>
      <trkpt lat="45.26068" lon="6.03062">
        <ele>1932.4560546875</ele>
        <time>2017-11-10T10:35:37Z</time>
      </trkpt>
      <trkpt lat="45.26063" lon="6.03056">
        <ele>1928.4560546875</ele>
        <time>2017-11-10T10:35:44Z</time>
      </trkpt>
      <trkpt lat="45.26051" lon="6.03042">
        <ele>1928.4560546875</ele>
        <time>2017-11-10T10:35:47Z</time>
      </trkpt>
      <trkpt lat="45.26049" lon="6.03031">
        <ele>1928.4560546875</ele>
        <time>2017-11-10T10:35:48Z</time>
      </trkpt>
      <trkpt lat="45.26048" lon="6.03014">
        <ele>1928.4560546875</ele>
        <time>2017-11-10T10:35:50Z</time>
      </trkpt>
      <trkpt lat="45.26049" lon="6.03006">
        <ele>1927.4560546875</ele>
        <time>2017-11-10T10:35:51Z</time>
      </trkpt>
      <trkpt lat="45.26053" lon="6.02987">
        <ele>1924.4560546875</ele>
        <time>2017-11-10T10:35:53Z</time>
      </trkpt>
      <trkpt lat="45.26056" lon="6.02976">
        <ele>1924.4560546875</ele>
        <time>2017-11-10T10:35:54Z</time>
      </trkpt>
      <trkpt lat="45.26056" lon="6.02961">
        <ele>1922.4560546875</ele>
        <time>2017-11-10T10:35:56Z</time>
      </trkpt>
      <trkpt lat="45.26061" lon="6.02946">
        <ele>1922.4560546875</ele>
        <time>2017-11-10T10:35:58Z</time>
      </trkpt>
      <trkpt lat="45.26064" lon="6.02932">
        <ele>1921.4560546875</ele>
        <time>2017-11-10T10:36:00Z</time>
      </trkpt>
      <trkpt lat="45.26067" lon="6.02923">
        <ele>1919.4560546875</ele>
        <time>2017-11-10T10:36:02Z</time>
      </trkpt>
      <trkpt lat="45.26071" lon="6.0291">
        <ele>1913.4560546875</ele>
        <time>2017-11-10T10:36:06Z</time>
      </trkpt>
      <trkpt lat="45.26072" lon="6.02902">
        <ele>1911.4560546875</ele>
        <time>2017-11-10T10:36:08Z</time>
      </trkpt>
      <trkpt lat="45.26077" lon="6.02896">
        <ele>1909.4560546875</ele>
        <time>2017-11-10T10:36:10Z</time>
      </trkpt>
      <trkpt lat="45.26083" lon="6.02893">
        <ele>1906.4560546875</ele>
        <time>2017-11-10T10:36:12Z</time>
      </trkpt>
      <trkpt lat="45.26088" lon="6.0289">
        <ele>1905.4560546875</ele>
        <time>2017-11-10T10:36:14Z</time>
      </trkpt>
      <trkpt lat="45.26087" lon="6.02881">
        <ele>1902.4560546875</ele>
        <time>2017-11-10T10:36:16Z</time>
      </trkpt>
      <trkpt lat="45.26085" lon="6.02872">
        <ele>1899.4560546875</ele>
        <time>2017-11-10T10:36:18Z</time>
      </trkpt>
      <trkpt lat="45.26089" lon="6.02854">
        <ele>1894.4560546875</ele>
        <time>2017-11-10T10:36:22Z</time>
      </trkpt>
      <trkpt lat="45.26087" lon="6.02845">
        <ele>1893.4560546875</ele>
        <time>2017-11-10T10:36:24Z</time>
      </trkpt>
      <trkpt lat="45.2609" lon="6.02838">
        <ele>1891.4560546875</ele>
        <time>2017-11-10T10:36:26Z</time>
      </trkpt>
      <trkpt lat="45.26094" lon="6.0283">
        <ele>1891.4560546875</ele>
        <time>2017-11-10T10:36:28Z</time>
      </trkpt>
      <trkpt lat="45.26094" lon="6.02818">
        <ele>1887.4560546875</ele>
        <time>2017-11-10T10:36:31Z</time>
      </trkpt>
      <trkpt lat="45.26089" lon="6.02808">
        <ele>1884.4560546875</ele>
        <time>2017-11-10T10:36:33Z</time>
      </trkpt>
      <trkpt lat="45.26085" lon="6.02803">
        <ele>1881.4560546875</ele>
        <time>2017-11-10T10:36:35Z</time>
      </trkpt>
      <trkpt lat="45.26081" lon="6.0279">
        <ele>1878.4560546875</ele>
        <time>2017-11-10T10:36:37Z</time>
      </trkpt>
      <trkpt lat="45.26084" lon="6.02775">
        <ele>1876.4560546875</ele>
        <time>2017-11-10T10:36:39Z</time>
      </trkpt>
      <trkpt lat="45.26082" lon="6.02769">
        <ele>1875.4560546875</ele>
        <time>2017-11-10T10:36:40Z</time>
      </trkpt>
      <trkpt lat="45.26081" lon="6.02754">
        <ele>1874.4560546875</ele>
        <time>2017-11-10T10:36:42Z</time>
      </trkpt>
      <trkpt lat="45.26082" lon="6.02746">
        <ele>1869.4560546875</ele>
        <time>2017-11-10T10:36:45Z</time>
      </trkpt>
      <trkpt lat="45.26083" lon="6.0273">
        <ele>1864.4560546875</ele>
        <time>2017-11-10T10:36:48Z</time>
      </trkpt>
      <trkpt lat="45.26085" lon="6.02721">
        <ele>1864.4560546875</ele>
        <time>2017-11-10T10:36:50Z</time>
      </trkpt>
      <trkpt lat="45.26091" lon="6.02705">
        <ele>1862.4560546875</ele>
        <time>2017-11-10T10:36:53Z</time>
      </trkpt>
      <trkpt lat="45.26096" lon="6.02693">
        <ele>1861.4560546875</ele>
        <time>2017-11-10T10:36:55Z</time>
      </trkpt>
      <trkpt lat="45.26102" lon="6.0268">
        <ele>1856.4560546875</ele>
        <time>2017-11-10T10:36:58Z</time>
      </trkpt>
      <trkpt lat="45.26113" lon="6.02679">
        <ele>1851.4560546875</ele>
        <time>2017-11-10T10:37:01Z</time>
      </trkpt>
      <trkpt lat="45.26119" lon="6.02686">
        <ele>1848.4560546875</ele>
        <time>2017-11-10T10:37:03Z</time>
      </trkpt>
      <trkpt lat="45.26127" lon="6.02692">
        <ele>1847.4560546875</ele>
        <time>2017-11-10T10:37:05Z</time>
      </trkpt>
      <trkpt lat="45.26132" lon="6.027">
        <ele>1845.4560546875</ele>
        <time>2017-11-10T10:37:07Z</time>
      </trkpt>
      <trkpt lat="45.26138" lon="6.02705">
        <ele>1844.4560546875</ele>
        <time>2017-11-10T10:37:09Z</time>
      </trkpt>
      <trkpt lat="45.26136" lon="6.02714">
        <ele>1840.4560546875</ele>
        <time>2017-11-10T10:37:11Z</time>
      </trkpt>
      <trkpt lat="45.26148" lon="6.02721">
        <ele>1836.4560546875</ele>
        <time>2017-11-10T10:37:14Z</time>
      </trkpt>
      <trkpt lat="45.26156" lon="6.02729">
        <ele>1834.4560546875</ele>
        <time>2017-11-10T10:37:16Z</time>
      </trkpt>
      <trkpt lat="45.26165" lon="6.02729">
        <ele>1831.4560546875</ele>
        <time>2017-11-10T10:37:18Z</time>
      </trkpt>
      <trkpt lat="45.26171" lon="6.0274">
        <ele>1829.4560546875</ele>
        <time>2017-11-10T10:37:20Z</time>
      </trkpt>
      <trkpt lat="45.26179" lon="6.02742">
        <ele>1825.4560546875</ele>
        <time>2017-11-10T10:37:22Z</time>
      </trkpt>
      <trkpt lat="45.26186" lon="6.02748">
        <ele>1825.4560546875</ele>
        <time>2017-11-10T10:37:24Z</time>
      </trkpt>
      <trkpt lat="45.26192" lon="6.02746">
        <ele>1823.4560546875</ele>
        <time>2017-11-10T10:37:26Z</time>
      </trkpt>
      <trkpt lat="45.26196" lon="6.02753">
        <ele>1822.4560546875</ele>
        <time>2017-11-10T10:37:28Z</time>
      </trkpt>
      <trkpt lat="45.262" lon="6.0276">
        <ele>1822.4560546875</ele>
        <time>2017-11-10T10:37:30Z</time>
      </trkpt>
      <trkpt lat="45.26206" lon="6.02766">
        <ele>1820.4560546875</ele>
        <time>2017-11-10T10:37:32Z</time>
      </trkpt>
      <trkpt lat="45.26213" lon="6.02767">
        <ele>1819.4560546875</ele>
        <time>2017-11-10T10:37:34Z</time>
      </trkpt>
      <trkpt lat="45.26219" lon="6.02774">
        <ele>1816.4560546875</ele>
        <time>2017-11-10T10:37:37Z</time>
      </trkpt>
      <trkpt lat="45.26223" lon="6.0278">
        <ele>1813.4560546875</ele>
        <time>2017-11-10T10:37:39Z</time>
      </trkpt>
      <trkpt lat="45.26229" lon="6.02785">
        <ele>1812.4560546875</ele>
        <time>2017-11-10T10:37:41Z</time>
      </trkpt>
      <trkpt lat="45.26234" lon="6.02784">
        <ele>1811.4560546875</ele>
        <time>2017-11-10T10:37:43Z</time>
      </trkpt>
      <trkpt lat="45.2624" lon="6.0279">
        <ele>1806.4560546875</ele>
        <time>2017-11-10T10:37:46Z</time>
      </trkpt>
      <trkpt lat="45.26245" lon="6.02795">
        <ele>1801.4560546875</ele>
        <time>2017-11-10T10:37:48Z</time>
      </trkpt>
      <trkpt lat="45.26253" lon="6.028">
        <ele>1799.4560546875</ele>
        <time>2017-11-10T10:37:50Z</time>
      </trkpt>
      <trkpt lat="45.26261" lon="6.02804">
        <ele>1794.4560546875</ele>
        <time>2017-11-10T10:37:53Z</time>
      </trkpt>
      <trkpt lat="45.26268" lon="6.02806">
        <ele>1792.4560546875</ele>
        <time>2017-11-10T10:37:55Z</time>
      </trkpt>
      <trkpt lat="45.26275" lon="6.0281">
        <ele>1789.4560546875</ele>
        <time>2017-11-10T10:37:57Z</time>
      </trkpt>
      <trkpt lat="45.26279" lon="6.0281">
        <ele>1788.4560546875</ele>
        <time>2017-11-10T10:37:59Z</time>
      </trkpt>
      <trkpt lat="45.26281" lon="6.02815">
        <ele>1783.4560546875</ele>
        <time>2017-11-10T10:38:01Z</time>
      </trkpt>
      <trkpt lat="45.26289" lon="6.02813">
        <ele>1782.4560546875</ele>
        <time>2017-11-10T10:38:03Z</time>
      </trkpt>
      <trkpt lat="45.26294" lon="6.02817">
        <ele>1778.4560546875</ele>
        <time>2017-11-10T10:38:05Z</time>
      </trkpt>
      <trkpt lat="45.26299" lon="6.02825">
        <ele>1778.4560546875</ele>
        <time>2017-11-10T10:38:07Z</time>
      </trkpt>
      <trkpt lat="45.26302" lon="6.02818">
        <ele>1774.4560546875</ele>
        <time>2017-11-10T10:38:11Z</time>
      </trkpt>
      <trkpt lat="45.26306" lon="6.02809">
        <ele>1773.4560546875</ele>
        <time>2017-11-10T10:38:14Z</time>
      </trkpt>
      <trkpt lat="45.2631" lon="6.02806">
        <ele>1771.4560546875</ele>
        <time>2017-11-10T10:38:16Z</time>
      </trkpt>
      <trkpt lat="45.26317" lon="6.02813">
        <ele>1770.4560546875</ele>
        <time>2017-11-10T10:38:18Z</time>
      </trkpt>
      <trkpt lat="45.26326" lon="6.02819">
        <ele>1769.45703125</ele>
        <time>2017-11-10T10:38:20Z</time>
      </trkpt>
      <trkpt lat="45.26332" lon="6.02812">
        <ele>1767.45703125</ele>
        <time>2017-11-10T10:38:22Z</time>
      </trkpt>
      <trkpt lat="45.2634" lon="6.02809">
        <ele>1765.45703125</ele>
        <time>2017-11-10T10:38:24Z</time>
      </trkpt>
      <trkpt lat="45.26345" lon="6.02809">
        <ele>1763.45703125</ele>
        <time>2017-11-10T10:38:25Z</time>
      </trkpt>
      <trkpt lat="45.26355" lon="6.02802">
        <ele>1762.45703125</ele>
        <time>2017-11-10T10:38:27Z</time>
      </trkpt>
      <trkpt lat="45.26361" lon="6.02788">
        <ele>1761.45703125</ele>
        <time>2017-11-10T10:38:29Z</time>
      </trkpt>
      <trkpt lat="45.26366" lon="6.02771">
        <ele>1757.45703125</ele>
        <time>2017-11-10T10:38:31Z</time>
      </trkpt>
      <trkpt lat="45.26371" lon="6.02757">
        <ele>1756.45703125</ele>
        <time>2017-11-10T10:38:33Z</time>
      </trkpt>
      <trkpt lat="45.2638" lon="6.02741">
        <ele>1755.45703125</ele>
        <time>2017-11-10T10:38:36Z</time>
      </trkpt>
      <trkpt lat="45.26382" lon="6.02735">
        <ele>1755.45703125</ele>
        <time>2017-11-10T10:38:37Z</time>
      </trkpt>
      <trkpt lat="45.26385" lon="6.02715">
        <ele>1754.4560546875</ele>
        <time>2017-11-10T10:38:40Z</time>
      </trkpt>
      <trkpt lat="45.26387" lon="6.02698">
        <ele>1751.4560546875</ele>
        <time>2017-11-10T10:38:42Z</time>
      </trkpt>
      <trkpt lat="45.26384" lon="6.0268">
        <ele>1748.4560546875</ele>
        <time>2017-11-10T10:38:44Z</time>
      </trkpt>
      <trkpt lat="45.26379" lon="6.02663">
        <ele>1749.4560546875</ele>
        <time>2017-11-10T10:38:46Z</time>
      </trkpt>
      <trkpt lat="45.26375" lon="6.02645">
        <ele>1749.4560546875</ele>
        <time>2017-11-10T10:38:48Z</time>
      </trkpt>
      <trkpt lat="45.26368" lon="6.02629">
        <ele>1747.4560546875</ele>
        <time>2017-11-10T10:38:50Z</time>
      </trkpt>
      <trkpt lat="45.2636" lon="6.02613">
        <ele>1746.4560546875</ele>
        <time>2017-11-10T10:38:52Z</time>
      </trkpt>
      <trkpt lat="45.26352" lon="6.02599">
        <ele>1743.4560546875</ele>
        <time>2017-11-10T10:38:54Z</time>
      </trkpt>
      <trkpt lat="45.26347" lon="6.02595">
        <ele>1743.4560546875</ele>
        <time>2017-11-10T10:38:55Z</time>
      </trkpt>
      <trkpt lat="45.26339" lon="6.02587">
        <ele>1741.4560546875</ele>
        <time>2017-11-10T10:38:57Z</time>
      </trkpt>
      <trkpt lat="45.26331" lon="6.02578">
        <ele>1742.4560546875</ele>
        <time>2017-11-10T10:38:59Z</time>
      </trkpt>
      <trkpt lat="45.26323" lon="6.02571">
        <ele>1741.4560546875</ele>
        <time>2017-11-10T10:39:01Z</time>
      </trkpt>
      <trkpt lat="45.26316" lon="6.02565">
        <ele>1741.4560546875</ele>
        <time>2017-11-10T10:39:03Z</time>
      </trkpt>
      <trkpt lat="45.2631" lon="6.02557">
        <ele>1743.4560546875</ele>
        <time>2017-11-10T10:39:05Z</time>
      </trkpt>
      <trkpt lat="45.26305" lon="6.0255">
        <ele>1744.4560546875</ele>
        <time>2017-11-10T10:39:07Z</time>
      </trkpt>
      <trkpt lat="45.26295" lon="6.02538">
        <ele>1740.4560546875</ele>
        <time>2017-11-10T10:39:10Z</time>
      </trkpt>
      <trkpt lat="45.26289" lon="6.02532">
        <ele>1739.4560546875</ele>
        <time>2017-11-10T10:39:12Z</time>
      </trkpt>
      <trkpt lat="45.26284" lon="6.02527">
        <ele>1738.4560546875</ele>
        <time>2017-11-10T10:39:14Z</time>
      </trkpt>
      <trkpt lat="45.2628" lon="6.02517">
        <ele>1736.4560546875</ele>
        <time>2017-11-10T10:39:16Z</time>
      </trkpt>
      <trkpt lat="45.2628" lon="6.02506">
        <ele>1736.4560546875</ele>
        <time>2017-11-10T10:39:18Z</time>
      </trkpt>
      <trkpt lat="45.26281" lon="6.025">
        <ele>1738.4560546875</ele>
        <time>2017-11-10T10:39:21Z</time>
      </trkpt>
      <trkpt lat="45.26283" lon="6.02493">
        <ele>1737.4560546875</ele>
        <time>2017-11-10T10:39:25Z</time>
      </trkpt>
      <trkpt lat="45.26281" lon="6.02485">
        <ele>1734.4560546875</ele>
        <time>2017-11-10T10:39:30Z</time>
      </trkpt>
      <trkpt lat="45.26283" lon="6.02479">
        <ele>1732.4560546875</ele>
        <time>2017-11-10T10:39:31Z</time>
      </trkpt>
      <trkpt lat="45.26289" lon="6.0246">
        <ele>1730.4560546875</ele>
        <time>2017-11-10T10:39:34Z</time>
      </trkpt>
      <trkpt lat="45.26296" lon="6.02445">
        <ele>1730.4560546875</ele>
        <time>2017-11-10T10:39:36Z</time>
      </trkpt>
      <trkpt lat="45.26297" lon="6.02436">
        <ele>1729.4560546875</ele>
        <time>2017-11-10T10:39:37Z</time>
      </trkpt>
      <trkpt lat="45.26301" lon="6.0242">
        <ele>1727.4560546875</ele>
        <time>2017-11-10T10:39:39Z</time>
      </trkpt>
      <trkpt lat="45.26302" lon="6.02412">
        <ele>1727.4560546875</ele>
        <time>2017-11-10T10:39:40Z</time>
      </trkpt>
      <trkpt lat="45.26304" lon="6.02396">
        <ele>1725.4560546875</ele>
        <time>2017-11-10T10:39:42Z</time>
      </trkpt>
      <trkpt lat="45.26303" lon="6.02382">
        <ele>1724.4560546875</ele>
        <time>2017-11-10T10:39:44Z</time>
      </trkpt>
      <trkpt lat="45.26309" lon="6.02373">
        <ele>1722.4560546875</ele>
        <time>2017-11-10T10:39:46Z</time>
      </trkpt>
      <trkpt lat="45.26314" lon="6.02369">
        <ele>1721.4560546875</ele>
        <time>2017-11-10T10:39:47Z</time>
      </trkpt>
      <trkpt lat="45.26314" lon="6.02359">
        <ele>1716.4560546875</ele>
        <time>2017-11-10T10:39:49Z</time>
      </trkpt>
      <trkpt lat="45.2631" lon="6.02348">
        <ele>1712.4560546875</ele>
        <time>2017-11-10T10:39:51Z</time>
      </trkpt>
      <trkpt lat="45.26309" lon="6.02338">
        <ele>1712.4560546875</ele>
        <time>2017-11-10T10:39:53Z</time>
      </trkpt>
      <trkpt lat="45.26315" lon="6.02322">
        <ele>1710.4560546875</ele>
        <time>2017-11-10T10:39:56Z</time>
      </trkpt>
      <trkpt lat="45.26319" lon="6.02313">
        <ele>1709.4560546875</ele>
        <time>2017-11-10T10:39:58Z</time>
      </trkpt>
      <trkpt lat="45.26323" lon="6.02306">
        <ele>1707.4560546875</ele>
        <time>2017-11-10T10:40:00Z</time>
      </trkpt>
      <trkpt lat="45.26325" lon="6.02296">
        <ele>1706.4560546875</ele>
        <time>2017-11-10T10:40:02Z</time>
      </trkpt>
      <trkpt lat="45.26327" lon="6.02285">
        <ele>1704.4560546875</ele>
        <time>2017-11-10T10:40:04Z</time>
      </trkpt>
      <trkpt lat="45.26329" lon="6.02274">
        <ele>1704.4560546875</ele>
        <time>2017-11-10T10:40:06Z</time>
      </trkpt>
      <trkpt lat="45.26332" lon="6.0226">
        <ele>1702.4560546875</ele>
        <time>2017-11-10T10:40:08Z</time>
      </trkpt>
      <trkpt lat="45.26338" lon="6.02243">
        <ele>1701.4560546875</ele>
        <time>2017-11-10T10:40:11Z</time>
      </trkpt>
      <trkpt lat="45.26341" lon="6.02228">
        <ele>1700.4560546875</ele>
        <time>2017-11-10T10:40:13Z</time>
      </trkpt>
      <trkpt lat="45.26346" lon="6.02227">
        <ele>1699.4560546875</ele>
        <time>2017-11-10T10:40:14Z</time>
      </trkpt>
      <trkpt lat="45.26341" lon="6.02228">
        <ele>1694.4560546875</ele>
        <time>2017-11-10T10:40:46Z</time>
      </trkpt>
      <trkpt lat="45.26338" lon="6.02234">
        <ele>1695.4560546875</ele>
        <time>2017-11-10T10:40:52Z</time>
      </trkpt>
      <trkpt lat="45.26337" lon="6.0224">
        <ele>1696.4560546875</ele>
        <time>2017-11-10T10:40:58Z</time>
      </trkpt>
      <trkpt lat="45.26337" lon="6.02246">
        <ele>1695.4560546875</ele>
        <time>2017-11-10T10:41:06Z</time>
      </trkpt>
      <trkpt lat="45.26335" lon="6.02253">
        <ele>1700.4560546875</ele>
        <time>2017-11-10T10:41:22Z</time>
      </trkpt>
      <trkpt lat="45.26332" lon="6.02259">
        <ele>1700.4560546875</ele>
        <time>2017-11-10T10:41:32Z</time>
      </trkpt>
      <trkpt lat="45.26327" lon="6.02261">
        <ele>1703.4560546875</ele>
        <time>2017-11-10T10:41:44Z</time>
      </trkpt>
      <trkpt lat="45.26323" lon="6.02267">
        <ele>1706.4560546875</ele>
        <time>2017-11-10T10:42:06Z</time>
      </trkpt>
      <trkpt lat="45.26319" lon="6.0227">
        <ele>1704.4560546875</ele>
        <time>2017-11-10T10:42:30Z</time>
      </trkpt>
      <trkpt lat="45.26315" lon="6.02273">
        <ele>1703.4560546875</ele>
        <time>2017-11-10T10:43:12Z</time>
      </trkpt>
      <trkpt lat="45.2631" lon="6.02273">
        <ele>1706.4560546875</ele>
        <time>2017-11-10T10:43:43Z</time>
      </trkpt>
      <trkpt lat="45.26307" lon="6.02277">
        <ele>1702.4560546875</ele>
        <time>2017-11-10T10:43:52Z</time>
      </trkpt>
      <trkpt lat="45.26303" lon="6.02281">
        <ele>1701.4560546875</ele>
        <time>2017-11-10T10:44:03Z</time>
      </trkpt>
      <trkpt lat="45.26302" lon="6.02289">
        <ele>1698.4560546875</ele>
        <time>2017-11-10T10:44:08Z</time>
      </trkpt>
      <trkpt lat="45.26296" lon="6.02289">
        <ele>1703.4560546875</ele>
        <time>2017-11-10T10:44:15Z</time>
      </trkpt>
      <trkpt lat="45.26291" lon="6.02288">
        <ele>1699.4560546875</ele>
        <time>2017-11-10T10:44:33Z</time>
      </trkpt>
      <trkpt lat="45.26286" lon="6.0229">
        <ele>1700.4560546875</ele>
        <time>2017-11-10T10:44:38Z</time>
      </trkpt>
      <trkpt lat="45.26281" lon="6.02292">
        <ele>1700.4560546875</ele>
        <time>2017-11-10T10:44:41Z</time>
      </trkpt>
      <trkpt lat="45.26277" lon="6.02291">
        <ele>1700.4560546875</ele>
        <time>2017-11-10T10:44:44Z</time>
      </trkpt>
      <trkpt lat="45.26271" lon="6.02289">
        <ele>1699.4560546875</ele>
        <time>2017-11-10T10:44:47Z</time>
      </trkpt>
      <trkpt lat="45.26265" lon="6.02285">
        <ele>1700.4560546875</ele>
        <time>2017-11-10T10:44:50Z</time>
      </trkpt>
      <trkpt lat="45.26261" lon="6.02281">
        <ele>1700.4560546875</ele>
        <time>2017-11-10T10:44:52Z</time>
      </trkpt>
      <trkpt lat="45.26257" lon="6.02276">
        <ele>1698.4560546875</ele>
        <time>2017-11-10T10:44:54Z</time>
      </trkpt>
      <trkpt lat="45.26252" lon="6.02272">
        <ele>1697.4560546875</ele>
        <time>2017-11-10T10:44:56Z</time>
      </trkpt>
      <trkpt lat="45.26246" lon="6.02264">
        <ele>1697.4560546875</ele>
        <time>2017-11-10T10:44:58Z</time>
      </trkpt>
      <trkpt lat="45.26242" lon="6.02254">
        <ele>1696.4560546875</ele>
        <time>2017-11-10T10:45:00Z</time>
      </trkpt>
      <trkpt lat="45.26235" lon="6.02244">
        <ele>1696.4560546875</ele>
        <time>2017-11-10T10:45:02Z</time>
      </trkpt>
      <trkpt lat="45.26226" lon="6.02232">
        <ele>1693.4560546875</ele>
        <time>2017-11-10T10:45:04Z</time>
      </trkpt>
      <trkpt lat="45.26219" lon="6.02219">
        <ele>1684.4549560547</ele>
        <time>2017-11-10T10:45:06Z</time>
      </trkpt>
      <trkpt lat="45.26215" lon="6.02208">
        <ele>1688.4549560547</ele>
        <time>2017-11-10T10:45:08Z</time>
      </trkpt>
      <trkpt lat="45.26211" lon="6.02196">
        <ele>1689.4549560547</ele>
        <time>2017-11-10T10:45:10Z</time>
      </trkpt>
      <trkpt lat="45.26207" lon="6.02183">
        <ele>1687.4549560547</ele>
        <time>2017-11-10T10:45:12Z</time>
      </trkpt>
      <trkpt lat="45.26202" lon="6.02169">
        <ele>1686.4549560547</ele>
        <time>2017-11-10T10:45:14Z</time>
      </trkpt>
      <trkpt lat="45.26195" lon="6.02149">
        <ele>1683.4549560547</ele>
        <time>2017-11-10T10:45:17Z</time>
      </trkpt>
      <trkpt lat="45.26192" lon="6.02133">
        <ele>1683.4549560547</ele>
        <time>2017-11-10T10:45:19Z</time>
      </trkpt>
      <trkpt lat="45.26189" lon="6.02117">
        <ele>1683.4549560547</ele>
        <time>2017-11-10T10:45:21Z</time>
      </trkpt>
      <trkpt lat="45.26185" lon="6.02104">
        <ele>1683.4549560547</ele>
        <time>2017-11-10T10:45:23Z</time>
      </trkpt>
      <trkpt lat="45.26183" lon="6.02092">
        <ele>1682.4549560547</ele>
        <time>2017-11-10T10:45:25Z</time>
      </trkpt>
      <trkpt lat="45.26183" lon="6.02083">
        <ele>1682.4549560547</ele>
        <time>2017-11-10T10:45:27Z</time>
      </trkpt>
      <trkpt lat="45.26181" lon="6.02074">
        <ele>1682.4549560547</ele>
        <time>2017-11-10T10:45:29Z</time>
      </trkpt>
      <trkpt lat="45.26181" lon="6.02066">
        <ele>1682.4549560547</ele>
        <time>2017-11-10T10:45:31Z</time>
      </trkpt>
      <trkpt lat="45.2618" lon="6.02057">
        <ele>1682.4549560547</ele>
        <time>2017-11-10T10:45:33Z</time>
      </trkpt>
      <trkpt lat="45.26181" lon="6.02048">
        <ele>1681.4549560547</ele>
        <time>2017-11-10T10:45:35Z</time>
      </trkpt>
      <trkpt lat="45.2618" lon="6.0204">
        <ele>1679.4549560547</ele>
        <time>2017-11-10T10:45:37Z</time>
      </trkpt>
      <trkpt lat="45.26182" lon="6.02021">
        <ele>1679.4549560547</ele>
        <time>2017-11-10T10:45:40Z</time>
      </trkpt>
      <trkpt lat="45.26177" lon="6.02">
        <ele>1677.4549560547</ele>
        <time>2017-11-10T10:45:43Z</time>
      </trkpt>
      <trkpt lat="45.26176" lon="6.01985">
        <ele>1676.4549560547</ele>
        <time>2017-11-10T10:45:45Z</time>
      </trkpt>
      <trkpt lat="45.26177" lon="6.0197">
        <ele>1674.4549560547</ele>
        <time>2017-11-10T10:45:47Z</time>
      </trkpt>
      <trkpt lat="45.26179" lon="6.01957">
        <ele>1673.4549560547</ele>
        <time>2017-11-10T10:45:49Z</time>
      </trkpt>
      <trkpt lat="45.26188" lon="6.01962">
        <ele>1669.4549560547</ele>
        <time>2017-11-10T10:45:52Z</time>
      </trkpt>
      <trkpt lat="45.26194" lon="6.01959">
        <ele>1668.4549560547</ele>
        <time>2017-11-10T10:45:54Z</time>
      </trkpt>
      <trkpt lat="45.26204" lon="6.01948">
        <ele>1666.4549560547</ele>
        <time>2017-11-10T10:45:57Z</time>
      </trkpt>
      <trkpt lat="45.26216" lon="6.01943">
        <ele>1663.4549560547</ele>
        <time>2017-11-10T10:46:00Z</time>
      </trkpt>
      <trkpt lat="45.26227" lon="6.01943">
        <ele>1658.4549560547</ele>
        <time>2017-11-10T10:46:02Z</time>
      </trkpt>
      <trkpt lat="45.26233" lon="6.0195">
        <ele>1656.4549560547</ele>
        <time>2017-11-10T10:46:04Z</time>
      </trkpt>
      <trkpt lat="45.2624" lon="6.01954">
        <ele>1656.4549560547</ele>
        <time>2017-11-10T10:46:06Z</time>
      </trkpt>
      <trkpt lat="45.26241" lon="6.01947">
        <ele>1655.4549560547</ele>
        <time>2017-11-10T10:46:07Z</time>
      </trkpt>
      <trkpt lat="45.26247" lon="6.0195">
        <ele>1649.4549560547</ele>
        <time>2017-11-10T10:46:10Z</time>
      </trkpt>
      <trkpt lat="45.26255" lon="6.0195">
        <ele>1643.4549560547</ele>
        <time>2017-11-10T10:46:16Z</time>
      </trkpt>
      <trkpt lat="45.26259" lon="6.01943">
        <ele>1642.4549560547</ele>
        <time>2017-11-10T10:46:18Z</time>
      </trkpt>
      <trkpt lat="45.26262" lon="6.01937">
        <ele>1642.4549560547</ele>
        <time>2017-11-10T10:46:20Z</time>
      </trkpt>
      <trkpt lat="45.26271" lon="6.01944">
        <ele>1642.4549560547</ele>
        <time>2017-11-10T10:46:22Z</time>
      </trkpt>
      <trkpt lat="45.26282" lon="6.01949">
        <ele>1642.4549560547</ele>
        <time>2017-11-10T10:46:25Z</time>
      </trkpt>
      <trkpt lat="45.26282" lon="6.01942">
        <ele>1639.4549560547</ele>
        <time>2017-11-10T10:46:27Z</time>
      </trkpt>
      <trkpt lat="45.26281" lon="6.01935">
        <ele>1639.4549560547</ele>
        <time>2017-11-10T10:46:29Z</time>
      </trkpt>
      <trkpt lat="45.26285" lon="6.01927">
        <ele>1639.4549560547</ele>
        <time>2017-11-10T10:46:31Z</time>
      </trkpt>
      <trkpt lat="45.2629" lon="6.01929">
        <ele>1637.4549560547</ele>
        <time>2017-11-10T10:46:33Z</time>
      </trkpt>
      <trkpt lat="45.26291" lon="6.01912">
        <ele>1632.4549560547</ele>
        <time>2017-11-10T10:46:36Z</time>
      </trkpt>
      <trkpt lat="45.26292" lon="6.01904">
        <ele>1631.4549560547</ele>
        <time>2017-11-10T10:46:38Z</time>
      </trkpt>
      <trkpt lat="45.26296" lon="6.019">
        <ele>1632.4549560547</ele>
        <time>2017-11-10T10:46:40Z</time>
      </trkpt>
      <trkpt lat="45.26302" lon="6.01904">
        <ele>1631.4549560547</ele>
        <time>2017-11-10T10:46:42Z</time>
      </trkpt>
      <trkpt lat="45.26302" lon="6.01895">
        <ele>1628.4549560547</ele>
        <time>2017-11-10T10:46:45Z</time>
      </trkpt>
      <trkpt lat="45.26302" lon="6.01889">
        <ele>1628.4549560547</ele>
        <time>2017-11-10T10:46:47Z</time>
      </trkpt>
      <trkpt lat="45.26303" lon="6.01882">
        <ele>1628.4549560547</ele>
        <time>2017-11-10T10:46:49Z</time>
      </trkpt>
      <trkpt lat="45.26309" lon="6.01876">
        <ele>1626.4549560547</ele>
        <time>2017-11-10T10:46:51Z</time>
      </trkpt>
      <trkpt lat="45.26314" lon="6.01881">
        <ele>1624.4549560547</ele>
        <time>2017-11-10T10:46:53Z</time>
      </trkpt>
      <trkpt lat="45.26315" lon="6.01874">
        <ele>1620.4549560547</ele>
        <time>2017-11-10T10:46:56Z</time>
      </trkpt>
      <trkpt lat="45.26316" lon="6.01868">
        <ele>1619.4549560547</ele>
        <time>2017-11-10T10:46:58Z</time>
      </trkpt>
      <trkpt lat="45.26321" lon="6.01865">
        <ele>1619.4549560547</ele>
        <time>2017-11-10T10:47:00Z</time>
      </trkpt>
      <trkpt lat="45.26325" lon="6.01858">
        <ele>1619.4549560547</ele>
        <time>2017-11-10T10:47:02Z</time>
      </trkpt>
      <trkpt lat="45.26333" lon="6.0186">
        <ele>1615.4549560547</ele>
        <time>2017-11-10T10:47:05Z</time>
      </trkpt>
      <trkpt lat="45.26335" lon="6.01853">
        <ele>1614.4549560547</ele>
        <time>2017-11-10T10:47:09Z</time>
      </trkpt>
      <trkpt lat="45.2634" lon="6.0185">
        <ele>1614.4549560547</ele>
        <time>2017-11-10T10:47:11Z</time>
      </trkpt>
      <trkpt lat="45.26347" lon="6.01849">
        <ele>1613.4549560547</ele>
        <time>2017-11-10T10:47:13Z</time>
      </trkpt>
      <trkpt lat="45.26351" lon="6.01844">
        <ele>1611.4549560547</ele>
        <time>2017-11-10T10:47:16Z</time>
      </trkpt>
      <trkpt lat="45.26355" lon="6.01847">
        <ele>1608.4549560547</ele>
        <time>2017-11-10T10:47:18Z</time>
      </trkpt>
      <trkpt lat="45.26359" lon="6.01843">
        <ele>1609.4549560547</ele>
        <time>2017-11-10T10:47:29Z</time>
      </trkpt>
      <trkpt lat="45.26359" lon="6.01835">
        <ele>1607.4549560547</ele>
        <time>2017-11-10T10:47:52Z</time>
      </trkpt>
      <trkpt lat="45.26365" lon="6.01825">
        <ele>1605.4549560547</ele>
        <time>2017-11-10T10:47:54Z</time>
      </trkpt>
      <trkpt lat="45.26374" lon="6.01812">
        <ele>1603.4549560547</ele>
        <time>2017-11-10T10:47:56Z</time>
      </trkpt>
      <trkpt lat="45.26374" lon="6.01797">
        <ele>1601.4549560547</ele>
        <time>2017-11-10T10:47:57Z</time>
      </trkpt>
      <trkpt lat="45.26378" lon="6.0177">
        <ele>1599.4549560547</ele>
        <time>2017-11-10T10:47:59Z</time>
      </trkpt>
      <trkpt lat="45.26379" lon="6.01742">
        <ele>1598.4549560547</ele>
        <time>2017-11-10T10:48:01Z</time>
      </trkpt>
      <trkpt lat="45.26379" lon="6.01731">
        <ele>1597.4549560547</ele>
        <time>2017-11-10T10:48:02Z</time>
      </trkpt>
      <trkpt lat="45.26382" lon="6.01706">
        <ele>1597.4549560547</ele>
        <time>2017-11-10T10:48:04Z</time>
      </trkpt>
      <trkpt lat="45.2638" lon="6.01694">
        <ele>1595.4549560547</ele>
        <time>2017-11-10T10:48:05Z</time>
      </trkpt>
      <trkpt lat="45.26381" lon="6.01671">
        <ele>1595.4549560547</ele>
        <time>2017-11-10T10:48:07Z</time>
      </trkpt>
      <trkpt lat="45.26387" lon="6.01649">
        <ele>1592.4549560547</ele>
        <time>2017-11-10T10:48:09Z</time>
      </trkpt>
      <trkpt lat="45.26396" lon="6.01632">
        <ele>1591.4549560547</ele>
        <time>2017-11-10T10:48:11Z</time>
      </trkpt>
      <trkpt lat="45.26401" lon="6.01629">
        <ele>1589.4549560547</ele>
        <time>2017-11-10T10:48:12Z</time>
      </trkpt>
      <trkpt lat="45.26412" lon="6.01621">
        <ele>1588.4549560547</ele>
        <time>2017-11-10T10:48:14Z</time>
      </trkpt>
      <trkpt lat="45.26425" lon="6.01615">
        <ele>1584.4549560547</ele>
        <time>2017-11-10T10:48:17Z</time>
      </trkpt>
      <trkpt lat="45.26433" lon="6.01608">
        <ele>1584.4549560547</ele>
        <time>2017-11-10T10:48:19Z</time>
      </trkpt>
      <trkpt lat="45.26441" lon="6.01602">
        <ele>1584.4549560547</ele>
        <time>2017-11-10T10:48:21Z</time>
      </trkpt>
      <trkpt lat="45.26448" lon="6.01601">
        <ele>1583.4549560547</ele>
        <time>2017-11-10T10:48:23Z</time>
      </trkpt>
      <trkpt lat="45.26453" lon="6.01596">
        <ele>1582.4549560547</ele>
        <time>2017-11-10T10:48:25Z</time>
      </trkpt>
      <trkpt lat="45.26456" lon="6.0159">
        <ele>1581.4549560547</ele>
        <time>2017-11-10T10:48:27Z</time>
      </trkpt>
      <trkpt lat="45.26452" lon="6.01585">
        <ele>1572.4549560547</ele>
        <time>2017-11-10T10:48:29Z</time>
      </trkpt>
      <trkpt lat="45.26455" lon="6.01578">
        <ele>1573.4549560547</ele>
        <time>2017-11-10T10:48:32Z</time>
      </trkpt>
      <trkpt lat="45.2646" lon="6.01571">
        <ele>1576.4549560547</ele>
        <time>2017-11-10T10:48:35Z</time>
      </trkpt>
      <trkpt lat="45.26459" lon="6.01563">
        <ele>1572.4549560547</ele>
        <time>2017-11-10T10:48:39Z</time>
      </trkpt>
      <trkpt lat="45.26454" lon="6.01558">
        <ele>1570.4549560547</ele>
        <time>2017-11-10T10:48:43Z</time>
      </trkpt>
      <trkpt lat="45.26449" lon="6.01551">
        <ele>1570.4549560547</ele>
        <time>2017-11-10T10:48:46Z</time>
      </trkpt>
      <trkpt lat="45.26445" lon="6.01548">
        <ele>1571.4549560547</ele>
        <time>2017-11-10T10:48:48Z</time>
      </trkpt>
      <trkpt lat="45.2644" lon="6.01547">
        <ele>1571.4549560547</ele>
        <time>2017-11-10T10:49:08Z</time>
      </trkpt>
      <trkpt lat="45.26442" lon="6.01541">
        <ele>1569.4549560547</ele>
        <time>2017-11-10T10:49:35Z</time>
      </trkpt>
      <trkpt lat="45.26444" lon="6.01534">
        <ele>1569.4549560547</ele>
        <time>2017-11-10T10:49:38Z</time>
      </trkpt>
      <trkpt lat="45.26442" lon="6.01527">
        <ele>1569.4549560547</ele>
        <time>2017-11-10T10:49:42Z</time>
      </trkpt>
      <trkpt lat="45.26438" lon="6.01522">
        <ele>1569.4549560547</ele>
        <time>2017-11-10T10:49:46Z</time>
      </trkpt>
      <trkpt lat="45.26438" lon="6.01529">
        <ele>1567.4549560547</ele>
        <time>2017-11-10T10:50:28Z</time>
      </trkpt>
    </trkseg>
  </trk>
</gpx>